[[{"header":{"parameterUnit":"m.s-1","parameterCategory":2,"la1":30.5641,"la2":29.4642,"lo1":-89.4342,"lo2":-87.9343,"dx":0.0333,"dy":0.0333,"nx":46,"ny":34,"refTime":"2022-11-04T00:00:00:Z","depth":"0","parameterNumber":2,"parameterNumberName":"U-component_of_CURRENTS"},"data":[0,0,0,0,0,0,0,0,0,0,0,0,0,0,0,0,0,0,0,0,0,0,0,0,0,0,0,0,0,0,0,0,0,0,0,0,0,0,0,0,0,0.0247,0.0816,0.1112,0.0895,0,0,0,0,0,0,0,0,0,0,0,0,0,0,0,0,0,0,0,0,0,0,0,0,0,0,0,0,0,0,0,0,0,0,0,0,0,0,0,0,0,0,0.0102,0.0222,0.0376,0.0442,0,0,0,0,0,0,0,0,0,0,0,0,0,0,0,0,0,0,0,0,0,0,0,0,0,0,0,0,0,0,0,0,0,0,0,0,0,0,0,0,0,0,-0.0074,-0.0255,-0.0173,0.0033,0,0,0,0,0,0,0,0,0,0,0,0,0,0,0,0,0,0,0,0,0,0,0,0,0,0,0,0,0,0,0,0,0,0,0,0,0,0,0,0,0,0,0.0019,-0.0805,-0.0604,-0.0299,0,0,0,0,0,0,0,0,0,0,0,0,0,0,0,0,0,0,0,0,0,0,0,0,0,0,0,0,0,0,0,0,0,0,0,0,0,0,0,0,0,-0.0486,-0.1673,-0.175,-0.0871,-0.0371,0,0,0,0,0,0,0,0,0,0,0,0,0,0,0,0,0,0,0,0,0,0,0,0,0,0,0,0,0,0,0,0,0,0,0,0,0,0,0,0,0,-0.0195,-0.1612,-0.2192,-0.1118,-0.0417,0,0,0,0,0,0,0,0,0,0,0,0,0.0022,0.0181,0.0387,0.0467,0.0478,0.0478,0.0417,0.0233,0.0113,0,0,0,0,0,0,0,0,0,0,0,0,-0.0206,-0.0349,-0.0286,0,0,0,0,0,0.0209,-0.075,-0.2151,-0.148,-0.0596,0,0,0,0,0,0,0,0,0,0.0027,0.0225,0.0648,0.084,0.0687,0.0563,0.0555,0.0618,0.0651,0.0665,0.0607,0.0585,0.0407,0.0041,-0.014,-0.0398,-0.0851,-0.1104,0,0,0,0,-0.0168,-0.0118,0.0173,0.0206,0.017,0,0,0,0,0,0.0187,0.022,-0.0906,-0.1241,-0.0645,0,0,0,0,0.0214,0.0706,0.1134,0.1291,0.1401,0.1423,0.1198,0.1003,0.0805,0.0558,0.0453,0.0472,0.0453,0.0324,0.0244,0.0277,0.0319,0.028,0.0203,0.0159,-0.0555,-0.1489,-0.0555,0.0602,0.0343,-0.0047,-0.0305,-0.0475,-0.0505,-0.0574,-0.0937,-0.1255,-0.1483,-0.1612,-0.1502,-0.1423,-0.1299,-0.0428,-0.0148,-0.1244,-0.153,-0.1252,0,0,0,0.0428,0.1085,0.1423,0.1585,0.173,0.1805,0.1681,0.117,0.07,0.0629,0.053,0.0415,0.036,0.0324,0.0159,-0.0253,-0.058,-0.0824,-0.0862,-0.0569,-0.0184,0.0206,0.0266,0.0332,0.0472,0.0192,-0.014,-0.028,-0.0445,-0.0788,-0.0953,-0.0868,-0.0423,-0.0327,-0.1148,-0.1656,0,0,0,-0.1214,-0.2505,-0.2109,-0.1783,0,0,0.0478,0.1176,0.1382,0.1387,0.1417,0.1346,0.1101,0.0939,0,0,0,-0.0022,0.0014,-0.008,-0.0225,0,-0.039,-0.0494,-0.0209,0,0,0,0,0,0,0,-0.0461,-0.0747,-0.0497,-0.0308,-0.0363,-0.0489,-0.0448,0,0,-0.0558,-0.1173,-0.1118,-0.1244,-0.1258,-0.045,0.0132,0,0,0,0.0621,0.1321,0.1307,0.1239,0.1277,0.1415,0.1555,0.1252,0.0882,0.075,0.0467,0.0091,-0.0118,-0.0151,0,0,-0.0113,-0.0047,0.0126,0.0272,0.0069,-0.05,-0.0854,-0.0994,-0.0981,-0.0978,-0.0989,-0.0994,0,0,0,-0.0283,-0.0623,-0.0338,-0.0486,-0.1217,-0.0989,-0.0681,-0.061,-0.0448,-0.0516,0,-0.0508,-0.0986,-0.0904,-0.0819,0.3043,0.242,0.1689,0.1321,0.1305,0.1629,0.1846,0.1766,0.1409,0.1066,0.1049,0.0873,0.0503,0.0492,0.0604,0.0659,0.0791,0.0808,0.0797,0.0755,0.0566,0.0184,-0.0266,-0.0533,-0.0613,-0.0821,-0.1052,-0.0827,-0.0569,-0.0714,-0.1099,-0.0975,-0.0736,-0.0566,-0.0225,-0.058,-0.0882,-0.0692,-0.0483,-0.0371,-0.0393,-0.0884,-0.0882,-0.0486,-0.0522,-0.0582,0,0.0319,0.0827,0.1008,0.1206,0.1406,0,0,0.019,0.0673,0.1068,0.1126,0.1121,0.1258,0.1489,0.164,0.1621,0.1524,0.1371,0.1159,0.0926,0.07,0.0398,0.0069,0.0025,0.0096,-0.028,-0.0615,-0.0269,0.0058,-0.0275,-0.064,-0.0755,-0.0615,-0.0346,-0.0374,-0.0558,-0.0695,-0.0728,-0.0654,-0.0505,-0.047,-0.0486,-0.0423,-0.0396,-0.0407,0.1755,0.1332,0.1003,0.0654,0.0431,0,0,0,0.0327,0.0865,0.1239,0.1478,0.161,0.1766,0.1997,0.2184,0.2431,0.2538,0.2131,0.1516,0.1063,0.0835,0.0615,0.0236,0.0044,0.0233,0.0005,-0.0538,-0.0335,0.0346,0.0629,0.0448,0.0115,-0.017,-0.0321,-0.0382,-0.0475,-0.0621,-0.067,-0.0588,-0.0434,-0.0343,-0.0341,-0.0327,-0.0302,-0.0294,0.0187,0.0623,0.0871,0,0,0,0,0,0.0283,0.0717,0.1016,0.1258,0.1426,0.1497,0.1593,0.1807,0.2401,0.2876,0.2401,0.1557,0.1008,0.0761,0.0621,0.0341,-0.0049,0.0099,0.0082,-0.056,-0.0797,-0.0357,0.0052,0.0074,0.0022,-0.0096,-0.0244,-0.0346,-0.0434,-0.0516,-0.0563,-0.0566,-0.0494,-0.0398,-0.0346,-0.031,-0.0288,-0.028,0,0,0.0165,0.0409,0.05,0.0511,0,0,0.0508,0.0928,0.0879,0.0997,0.1093,0.1118,0.1162,0.1195,0.1198,0,0.0308,0.0703,0.072,0.0596,0.0547,0.05,0.0187,0.0162,0.0222,-0.0497,-0.1217,-0.1088,-0.0687,-0.0634,-0.0566,-0.0426,-0.0393,-0.042,-0.0464,-0.0497,-0.0514,-0.0508,-0.0467,-0.0401,-0.0338,-0.0288,-0.0266,-0.0264,0,0,0.0404,0.1041,0.1447,0.1881,0.2277,0.2955,0.3252,0.2153,0.1022,0.0714,0.0736,0.0794,0.0794,0.072,0.0176,-0.031,0,0.0019,0.0184,0.0354,0.0423,0.0538,0.0547,0.0615,0.0805,0.0813,0.061,0.014,-0.0198,-0.0239,-0.0244,-0.0179,-0.0113,-0.014,-0.0244,-0.036,-0.0434,-0.0459,-0.0453,-0.0409,-0.0341,-0.0266,-0.022,-0.0195,0,0,0,0.0137,0.0277,0,0,0,-0.0022,0.0104,0.0341,0.0428,0.0407,0.0393,0.0374,0.0291,0.0038,-0.0159,0,-0.0041,0.0069,0.0239,0.031,0.0434,0.0588,0.0788,0.1005,0.114,0.1187,0.1148,0.0992,0.081,0.0761,0.0797,0.0783,0.0662,0.0431,0.0148,-0.0082,-0.0222,-0.0313,-0.0346,-0.0305,-0.0214,-0.0151,-0.0115,0,0,0,0,0,0,0,-0.0181,-0.0151,0.0121,0.0244,0.033,0.0324,0.022,0.011,0.0063,-0.0011,-0.008,0,-0.003,0.0055,0.0184,0.0236,0.033,0.0472,0.0676,0.0868,0.0997,0.1016,0.0934,0.0917,0.1011,0.1145,0.1269,0.1335,0.1318,0.1107,0.0744,0.0453,0.0258,0.0104,-0.0022,-0.0074,-0.0025,0.003,0.0036,0,0,0,0,0,0,-0.0187,-0.0228,0.0016,0.014,0.0187,0.0225,0.025,0.0233,0.0179,0.0091,-0.0113,-0.0258,0,-0.0019,0.0047,0.0157,0.0214,0.0305,0.042,0.0552,0.0665,0.0747,0.0777,0.0788,0.0923,0.1104,0.1244,0.1373,0.1434,0.1489,0.1511,0.1236,0.0849,0.0648,0.0552,0.045,0.0354,0.0352,0.039,0.0382,0,0,0,0,0,0,-0.0096,-0.0085,0.0082,0.0137,0.0121,0.0099,0.0091,0.0093,0.0044,-0.0011,0,0,0,0.0,0.0071,0.0165,0.0225,0.0324,0.0439,0.0544,0.0591,0.0604,0.064,0.078,0.1008,0.1123,0.1195,0.1307,0.1384,0.1409,0.1513,0.156,0.1217,0.0802,0.0662,0.0643,0.0643,0.0684,0.0758,0.081,0,0,0,0,0,0,-0.0025,0.0041,0.0151,0.0154,0.0102,0.0047,-0.0063,-0.0113,-0.0085,-0.0261,-0.0423,0,0,0.0027,0.0135,0.0253,0.0316,0.0382,0.0481,0.058,0.0626,0.0621,0.0659,0.0769,0.0854,0.0865,0.0915,0.1,0.1099,0.1274,0.1393,0.1533,0.1544,0.1132,0.0742,0.0643,0.0662,0.0722,0.0824,0.092,0,0,0,0,0,-0.0118,-0.008,0.0137,0.0201,0.0176,0.0102,0.0011,-0.0038,0,-0.0085,-0.0187,-0.0206,0,0,0.0063,0.0239,0.0437,0.058,0.0656,0.0681,0.0692,0.0689,0.0648,0.0615,0.0613,0.0547,0.0516,0.0582,0.0667,0.0775,0.0967,0.12,0.1346,0.1508,0.1409,0.0959,0.0667,0.0618,0.0673,0.0769,0.0849,0,-0.0766,-0.0906,-0.081,0,-0.0063,0.0033,0.0214,0.0239,0.0195,0.0115,0.0049,-0.0066,-0.0165,-0.0126,-0.014,-0.0195,0,0.0118,0.0313,0.0437,0.0571,0.0772,0.0959,0.1055,0.1049,0.0986,0.0819,0.061,0.0426,0.0291,0.0291,0.0352,0.0439,0.0552,0.0656,0.081,0.0972,0.1176,0.1313,0.1041,0.067,0.0555,0.0577,0.0662,0.0731,0,0.0077,0,-0.0082,-0.0165,0,0.0055,0.0195,0.0253,0.0195,0.0135,0.0088,0.0038,-0.0049,-0.0154,-0.0275,-0.0349,0,0.0052,0.0192,0.0349,0.0494,0.0684,0.0865,0.0989,0.1099,0.1159,0.1014,0.0703,0.0341,0.0113,0.0135,0.019,0.022,0.0258,0.028,0.0343,0.0492,0.078,0.1052,0.0931,0.0615,0.0439,0.039,0.042,0.0445,0,-0.0201,-0.0423,-0.0305,-0.0253,-0.028,-0.0027,0.0222,0.0258,0.0214,0.0181,0.0151,0.006,-0.0118,-0.0343,-0.0461,0,0.0176,0.0401,0.042,0.0401,0.0459,0.0558,0.0599,0.0613,0.0711,0.0895,0.0898,0.0643,0.0255,0.0044,0.0093,0.0082,0.0025,0.0088,0.0011,-0.0082,0.0151,0.0511,0.0733,0.0665,0.0467,0.0321,0.0255,0.019,0.008,-0.0629,-0.0352,-0.0102,-0.0104,-0.0063,0.0011,0.0132,0.0244,0.0275,0.0272,0.0286,0.0261,0.0091,-0.0379,-0.0706,0,0.0159,0.0376,0.0423,0.0404,0.042,0.0475,0.0497,0.0442,0.0368,0.0409,0.0582,0.07,0.0516,0.0179,0.0063,0.0137,0.0102,-0.0063,0.0055,0.0225,0.0124,0.0049,0.017,0.0341,0.0387,0.0352,0.0305,0.0277,0.0151,-0.0143,0.0096,-0.0074,-0.006,-0.0052,0.0,0.0113,0.0201,0.0261,0.0313,0.0382,0.0456,0.0503,0.0417,0.0313,0,0.0192,0.0437,0.0494,0.0481,0.0459,0.0464,0.0494,0.0492,0.0417,0.0327,0.0363,0.0544,0.0599,0.0417,0.0253,0.0225,0.0288,0.0283,0.0041,0.0052,0.0346,0.0585,0.0464,0.0181,0.0179,0.0275,0.0368,0.0412,0.0492,0.0464,0.0143,0.0041,0.0005,0.0025,0.0069,0.0132,0.017,0.0192,0.0294,0.0393,0.0483,0.0613,0.0764,0.0879,0.1104,0.1307,0.1115,0.0808,0.064,0.0552,0.0511,0.0497,0.0486,0.0464,0.0415,0.0354,0.0379,0.033,0.0132,-0.0011,-0.0121,-0.0063,0.0247,0.0478,0.0341,0.0255,0.0445,0.0673,0.0783,0.0412,0.0044,0.0157,0.0379,0.0503,0.0659,0.0673,0.0467,0.0091,0.0058,0.0082,0.0157,0.0225,0.0264,0.0324,0.0439,0.0508,0.0541,0.0621,0.0871,0.1077,0.1206,0.1255,0.1088,0.089,0.0717,0.061,0.0544,0.0475,0.0417,0.0428,0.0464,0.0481,0.0308,0.0019,-0.0217,-0.0437,-0.0341,0.0041,0.0442,0.0692,0.0615,0.0516,0.0571,0.0615,0.0687,0.0264,-0.0272,-0.0157,0.0126,0.0417,0.0511,0.0467,0.0538,0.0129,0.0115,0.0157,0.025,0.0349,0.0401,0.045,0.0558,0.0709,0.0626,0.0453,0,0.0291,0.0794,0.1046,0.1022,0.0871,0.0725,0.0623,0.0508,0.0393,0.036,0.0434,0.0549,0.0439,0.0146,0.0069,0.0195,0.0228,0.0357,0.0684,0.0862,0.0786,0.058,0.0489,0.0547,0.061,0.0761,0.0544,-0.0313,-0.0931,-0.0788,-0.0096,0.0338,0.0396,0.0541,0.0308,0.0291,0.0299,0.0365,0.0428,0.0434,0.0275,0.0129,0,0.0165,0.0527,0.0725,0.078,0.0898,0.0978,0.0939,0.0821,0.0711,0.0588,0.0459,0.0415,0.0503,0.0574,0.045,0.0299,0.0225,0.0228,0.0459,0.0764,0.0972,0.1011,0.0678,0.0206,0.008,0.0159,0.0288,0.0519,0.0678,0.0794,0.0428,-0.0541,-0.1154,-0.0956,-0.0387,0.0047,0.0335,0.0407,0.0407,0.039,0.0396,0.0401,0.0382,0.0363,0,-0.0019,0.0192,0.0599,0.0829,0.0906,0.0992,0.1014,0.0915,0.0794,0.067,0.0566,0.0547,0.0747,0.0964,0.1107,0.1288,0.1291,0.1,0.0665,0.0623,0.0799,0.103,0.1296,0.1129,0.0448,0.008,0.014,0.0371,0.0629,0.0717,0.0937,0.1247,0.1368,0.1178,0.0623,0.0341,0.0629,0.1063]},{"header":{"parameterUnit":"m.s-1","parameterCategory":2,"la1":30.5641,"la2":29.4642,"lo1":-89.4342,"lo2":-87.9343,"dx":0.0333,"dy":0.0333,"nx":46,"ny":34,"refTime":"2022-11-04T00:00:00:Z","depth":"0","parameterNumber":3,"parameterNumberName":"V-component_of_CURRENTS"},"data":[0,0,0,0,0,0,0,0,0,0,0,0,0,0,0,0,0,0,0,0,0,0,0,0,0,0,0,0,0,0,0,0,0,0,0,0,0,0,0,0,0,0.1351,0.1563,0.117,0.0107,0,0,0,0,0,0,0,0,0,0,0,0,0,0,0,0,0,0,0,0,0,0,0,0,0,0,0,0,0,0,0,0,0,0,0,0,0,0,0,0,0,0,0.1931,0.2173,0.1236,-0.0341,0,0,0,0,0,0,0,0,0,0,0,0,0,0,0,0,0,0,0,0,0,0,0,0,0,0,0,0,0,0,0,0,0,0,0,0,0,0,0,0,0,0,0.2774,0.2239,0.1008,-0.0547,0,0,0,0,0,0,0,0,0,0,0,0,0,0,0,0,0,0,0,0,0,0,0,0,0,0,0,0,0,0,0,0,0,0,0,0,0,0,0,0,0,0,0.2884,0.1703,0.0582,-0.0648,0,0,0,0,0,0,0,0,0,0,0,0,0,0,0,0,0,0,0,0,0,0,0,0,0,0,0,0,0,0,0,0,0,0,0,0,0,0,0,0,0,0.1019,0.2629,0.1285,0.0173,-0.0706,0,0,0,0,0,0,0,0,0,0,0,0,0,0,0,0,0,0,0,0,0,0,0,0,0,0,0,0,0,0,0,0,0,0,0,0,0,0,0,0,0,0.0242,0.2214,0.1241,-0.0121,-0.0651,0,0,0,0,0,0,0,0,0,0,0,0,0.1052,0.0868,0.0538,0.0461,0.0442,0.0371,0.0269,0.0371,-0.0244,0,0,0,0,0,0,0,0,0,0,0,0,0.0959,0.1035,0.0585,0,0,0,0,0,-0.0483,0.1497,0.1362,-0.006,-0.0461,0,0,0,0,0,0,0,0,0,0.1288,0.0942,0.0574,0.0753,0.0645,0.0437,0.0357,0.0349,0.0349,0.0404,0.0332,-0.0146,0.0387,0.05,0.0522,0.0906,0.0442,-0.1376,0,0,0,0,0.086,0.1763,0.1143,0.0893,0.0453,0,0,0,0,0,-0.0599,0.0819,0.1653,0.0547,0.0255,0,0,0,0,0.1241,0.1096,0.0961,0.1093,0.1156,0.1063,0.0799,0.0582,0.0525,0.0417,0.0319,0.0258,0.033,0.0415,0.0483,0.019,-0.0014,0.0261,0.0338,0.0321,0.0769,0.0566,-0.1079,0.0868,0.0456,0.0346,0.0566,0.0854,0.117,0.075,0.0231,-0.019,-0.036,0.0063,0.0019,0.0,0.0,-0.0308,0.084,0.1763,0.0832,0.0915,0,0,0,0.1373,0.1104,0.0912,0.0758,0.0695,0.0689,0.0887,0.033,0.0294,0.0299,0.0332,0.0297,0.0431,0.0676,0.025,0.0066,-0.0341,-0.0225,0.0066,0.0085,0.0063,0.0316,0.0346,-0.039,0.0434,0.0308,0.0118,0.0338,0.047,0.0352,-0.0038,-0.0357,-0.0349,-0.0181,0.0511,0.011,0,0,0,0.0398,0.1384,0.0357,0.05,0,0,0.131,0.1137,0.0923,0.075,0.0475,0.0033,-0.0052,0.031,0,0,0,0.0335,0.0302,0.0299,0.0475,0,-0.022,-0.0703,-0.0791,0,0,0,0,0,0,0,-0.0074,-0.0055,0.0055,0.0047,0.0091,-0.0302,-0.0404,0,0,0.0407,0.0071,0.0173,0.0203,0.0654,-0.0168,0.0335,0,0,0,0.1599,0.1305,0.0986,0.086,0.0643,0.0428,-0.0091,0.0052,-0.0118,0.0486,0.0291,-0.0047,0.0036,-0.0077,0,0,0.092,0.0052,-0.0453,-0.0948,-0.0324,-0.0121,0.0011,0.0154,0.0192,0.0316,0.0225,-0.0266,0,0,0,-0.0184,-0.0456,-0.0437,-0.0244,0.0044,-0.0173,0.0209,0.0335,0.031,0.045,0,-0.0615,0.0689,0.0651,0.0525,0.0799,0.0788,0.0769,0.0643,0.0497,0.1096,0.0022,0.0211,-0.0228,-0.0151,-0.0233,-0.0148,0.0154,0.0277,0.1046,0.0934,0.0753,0.0201,-0.0272,-0.0621,-0.0412,-0.0321,-0.0195,0.0008,0.0165,0.0266,0.0181,-0.0044,0.0286,-0.0162,-0.0209,-0.047,-0.039,-0.0387,-0.025,0.017,0.0195,0.0503,0.0428,0.0349,0.0255,0.0667,-0.0236,0.0615,0.0536,0.0505,0,0.0637,0.0571,0.0516,0.0728,0.0865,0,0,-0.0124,-0.0291,-0.0247,0.0231,0.0857,0.1079,0.1134,0.1118,0.0948,0.0335,-0.0217,-0.0472,-0.056,-0.0602,-0.0475,-0.0181,0.0074,0.0148,0.0168,0.0275,0.0428,0.0113,0.0195,0.0044,-0.0019,-0.0244,-0.0121,0.0335,0.053,0.0533,0.0486,0.0464,0.0459,0.0623,0.0453,0.0577,0.0522,0.0574,0.019,0.0448,0.0645,0.0294,0.0489,0,0,0,0.042,0.0365,0.039,0.0681,0.0923,0.1005,0.1027,0.106,0.1497,0.0689,-0.0154,-0.0511,-0.0692,-0.0733,-0.0591,-0.0286,-0.0044,-0.0022,0.0025,0.036,0.0549,0.019,0.0225,0.0316,0.0176,0.0011,0.0148,0.0396,0.0522,0.0615,0.0659,0.0662,0.064,0.0607,0.0623,0.0645,0.0665,0.0695,0.0093,-0.0049,0.0022,0,0,0,0,0,0.0854,0.0728,0.0599,0.0613,0.0645,0.072,0.075,0.0846,0.2096,0.0428,-0.0536,-0.0645,-0.0783,-0.0788,-0.0651,-0.0404,-0.0187,-0.0404,-0.0459,0.0118,0.0354,-0.0146,-0.0357,-0.0124,0.006,0.0151,0.0277,0.0445,0.0613,0.0711,0.0739,0.0722,0.0689,0.0678,0.0678,0.0684,0.0698,0.0709,0,0,-0.0407,-0.0003,0.0368,-0.0645,0,0,0.1241,0.1005,0.0692,0.047,0.0412,0.0492,0.064,0.0838,0.198,0,-0.0461,-0.0637,-0.0736,-0.0728,-0.0613,-0.0453,-0.0316,-0.0706,-0.0766,-0.0154,0.017,-0.0146,-0.0231,0.0,0.0126,0.0222,0.0379,0.0538,0.0665,0.0728,0.0764,0.0761,0.0747,0.0728,0.0714,0.07,0.0698,0.0706,0,0,-0.0118,-0.0115,0.0393,-0.0324,0.0,0.0,0.0302,0.047,0.0448,0.0319,0.0365,0.0497,0.0643,0.0775,0.1209,0.07,0,-0.0297,-0.042,-0.0508,-0.0456,-0.0376,-0.0308,-0.0582,-0.0582,-0.0151,0.0168,0.0272,0.0352,0.0442,0.0475,0.0527,0.0618,0.0711,0.0742,0.0747,0.075,0.0742,0.0742,0.0747,0.075,0.0742,0.0736,0.0744,0,0,0,-0.0113,0.0209,0,0,0,-0.0162,0.0014,0.017,0.0244,0.0352,0.0467,0.0569,0.0651,0.0857,0.0673,0,0.0016,-0.0027,-0.0209,-0.0255,-0.0228,-0.0206,-0.0305,-0.0266,-0.0055,0.0107,0.0376,0.0508,0.0613,0.0662,0.0678,0.0689,0.0725,0.0755,0.0766,0.0744,0.0744,0.0766,0.0805,0.0838,0.0835,0.081,0.0797,0,0,0,0,0,0,0,0.0607,0.0349,0.019,0.0203,0.0288,0.0387,0.047,0.0527,0.0602,0.075,0.0659,0,0.0179,0.0209,0.0049,-0.0058,-0.0071,-0.0085,-0.011,-0.0077,-0.0036,0.0011,0.0228,0.0519,0.0687,0.0717,0.0667,0.0563,0.0478,0.0547,0.0687,0.0747,0.0766,0.0824,0.0912,0.0989,0.0981,0.0915,0.0868,0,0,0,0,0,0,0.05,0.0516,0.0266,0.0206,0.0255,0.0343,0.047,0.0558,0.0602,0.0681,0.0379,0.0335,0,0.0335,0.0371,0.0264,0.0146,0.0088,0.0044,0.0016,0.0033,0.0014,0.0052,0.045,0.0761,0.0819,0.0786,0.0656,0.0467,0.0236,0.0162,0.0423,0.0692,0.0786,0.0854,0.0978,0.1099,0.1099,0.1019,0.0956,0,0,0,0,0,0,0.0453,0.0374,0.0201,0.0195,0.0239,0.031,0.0442,0.0555,0.0593,0.0733,0,0,0,0.0511,0.0533,0.0467,0.0357,0.0266,0.0203,0.0154,0.0154,0.0091,0.0319,0.0821,0.0983,0.0912,0.0802,0.0599,0.0398,0.0187,-0.0126,-0.0022,0.0453,0.0802,0.0915,0.1008,0.1121,0.1132,0.1074,0.1022,0,0,0,0,0,0,0.0434,0.0269,0.0157,0.0173,0.0225,0.0297,0.0434,0.0288,0.0552,0.0709,0.0695,0,0,0.0744,0.0769,0.0722,0.0613,0.0478,0.0365,0.0294,0.0255,0.0206,0.0728,0.1068,0.103,0.0882,0.0744,0.0541,0.0349,0.0206,-0.0069,-0.0327,0.0014,0.0681,0.1022,0.1088,0.114,0.1132,0.1088,0.1052,0,0,0,0,0,0.036,0.0478,0.019,0.0129,0.0165,0.0231,0.0302,0.0428,0,0.0527,0.067,0.0662,0,0,0.1101,0.1063,0.1046,0.0956,0.0772,0.0577,0.0445,0.0346,0.0398,0.0978,0.1035,0.0893,0.0739,0.0643,0.0511,0.0374,0.0198,0.006,-0.0275,-0.0319,0.0349,0.0983,0.1154,0.1167,0.114,0.111,0.1088,0,0.0978,0.0,0.0835,0,0.0181,0.0387,0.0132,0.0104,0.0168,0.025,0.0308,0.0404,0.0613,0.0511,0.0651,0.0623,0,0.1255,0.1324,0.1266,0.1305,0.1269,0.1074,0.0827,0.0618,0.0442,0.0563,0.0926,0.0829,0.0673,0.0602,0.0574,0.056,0.0503,0.0283,0.0088,-0.014,-0.0379,0.0038,0.0816,0.114,0.1173,0.117,0.117,0.1162,0,0.0742,0,0.0794,0.0717,0,0.0264,0.0088,0.0113,0.0217,0.0291,0.031,0.0343,0.0459,0.0503,0.064,0.031,0,0.1368,0.1373,0.1371,0.1398,0.1346,0.1154,0.0917,0.0673,0.0461,0.0574,0.0692,0.0577,0.0461,0.0492,0.0555,0.0692,0.0714,0.0434,0.0102,-0.017,-0.0379,-0.0014,0.0736,0.1066,0.1123,0.1187,0.1214,0.1159,0,0.0426,0.0849,0.0717,0.0632,0.0596,0.0228,0.0099,0.0201,0.031,0.0321,0.0269,0.0217,0.0288,0.0481,0.0324,0,0.153,0.1423,0.1368,0.1379,0.1332,0.1239,0.1099,0.0904,0.067,0.0459,0.0505,0.0404,0.0319,0.0291,0.0363,0.0522,0.084,0.0895,0.0448,0.0113,-0.0148,-0.0148,0.0294,0.0791,0.0964,0.1046,0.1154,0.1107,0.0915,0.0648,0.0461,0.0742,0.0615,0.045,0.0363,0.0187,0.0211,0.0349,0.0393,0.0313,0.0159,-0.0005,0.003,0.0225,0,0.1524,0.1393,0.1291,0.128,0.128,0.1222,0.1162,0.1088,0.0956,0.0802,0.0656,0.0464,0.0214,0.0135,0.0146,0.0192,0.0459,0.0978,0.0994,0.0461,0.0195,0.0148,0.042,0.0687,0.0827,0.0862,0.0994,0.103,0.0728,0.0464,0.0555,0.061,0.0656,0.0505,0.0269,0.0143,0.0269,0.0426,0.0492,0.0423,0.0275,0.0052,-0.019,-0.0588,0,0.1604,0.1401,0.1178,0.1167,0.1195,0.1184,0.1159,0.114,0.1088,0.1011,0.0961,0.0808,0.045,0.0242,0.0104,0.0085,0.008,0.0396,0.1008,0.1044,0.0654,0.0047,0.0428,0.0928,0.0898,0.0797,0.0802,0.1005,0.078,0.014,-0.0003,0.0527,0.0662,0.0648,0.0434,0.0211,0.0264,0.0511,0.0648,0.056,0.0404,0.0266,0.0173,-0.0118,-0.0571,0.0777,0.1266,0.1107,0.1044,0.1079,0.1104,0.1115,0.1121,0.1129,0.1082,0.1011,0.0931,0.0681,0.0352,0.0187,-0.0063,-0.0082,0.0044,0.0346,0.0948,0.1027,0.0761,-0.0176,0.0407,0.1123,0.1022,0.0816,0.0873,0.0953,0.028,-0.0379,-0.0338,0.0613,0.0667,0.0613,0.0428,0.0319,0.047,0.0722,0.0791,0.0618,0.0346,0.031,0.0165,-0.0118,-0.0077,0.0566,0.0775,0.0868,0.0948,0.0997,0.1027,0.106,0.1107,0.1129,0.1008,0.0799,0.0692,0.0486,0.0168,0.0011,-0.0198,0.0349,0.072,0.0736,0.1038,0.0923,0.0582,-0.0228,0.0118,0.0931,0.1112,0.1033,0.114,0.0621,-0.017,-0.0522,-0.0577,0.0621,0.0623,0.0585,0.0472,0.0456,0.0574,0.0805,0.0986,0.0335,0.0016,-0.0107,0,0.0192,0.0187,0.0368,0.0599,0.0777,0.0865,0.0901,0.0945,0.1014,0.1071,0.1011,0.0824,0.0665,0.0549,0.0407,0.0126,0.0102,0.0483,0.1112,0.1684,0.1404,0.1192,0.0684,0.0266,-0.0179,0.0038,0.058,0.1052,0.1187,0.1079,0.0143,-0.0316,-0.0645,-0.1148,0.0659,0.061,0.0566,0.0489,0.0489,0.0508,0.0667,0.0569,0,0.0058,-0.0233,0.0621,0.0569,0.039,0.0428,0.061,0.0739,0.0777,0.0794,0.0871,0.0978,0.0967,0.0959,0.0917,0.0829,0.0643,0.0514,0.028,0.0404,0.1088,0.1324,0.1881,0.1585,0.1099,0.0544,0.0058,-0.0088,0.0407,0.0549,0.0558,0.0827,0.092,0.0151,-0.0354,-0.0819,-0.1222,0.0725,0.0615,0.0558,0.0453,0.0393,0.0313,0.0151,0,0.1066,0.0516,0.0225,0.0527,0.0547,0.0472,0.0552,0.067,0.0692,0.0659,0.0681,0.0882,0.1126,0.1332,0.1467,0.1447,0.1209,0.0942,0.0733,0.0555,0.075,0.1151,0.1373,0.159,0.1483,0.1099,0.0692,0.0129,0.0129,0.0709,0.0703,0.0365,0.0544,0.0725,0.0283,-0.0217,-0.0558,-0.0437]}],[{"header":{"parameterUnit":"m.s-1","parameterCategory":2,"la1":30.5641,"la2":29.4642,"lo1":-89.4342,"lo2":-87.9343,"dx":0.0333,"dy":0.0333,"nx":46,"ny":34,"refTime":"2022-11-04T00:00:00:Z","depth":"2","parameterNumber":2,"parameterNumberName":"U-component_of_CURRENTS"},"data":[0,0,0,0,0,0,0,0,0,0,0,0,0,0,0,0,0,0,0,0,0,0,0,0,0,0,0,0,0,0,0,0,0,0,0,0,0,0,0,0,0,0.0376,0.0997,0.1228,0.1046,0,0,0,0,0,0,0,0,0,0,0,0,0,0,0,0,0,0,0,0,0,0,0,0,0,0,0,0,0,0,0,0,0,0,0,0,0,0,0,0,0,0,0.0201,0.0423,0.0555,0.064,0,0,0,0,0,0,0,0,0,0,0,0,0,0,0,0,0,0,0,0,0,0,0,0,0,0,0,0,0,0,0,0,0,0,0,0,0,0,0,0,0,0,0.0038,-0.0052,-0.0011,0.022,0,0,0,0,0,0,0,0,0,0,0,0,0,0,0,0,0,0,0,0,0,0,0,0,0,0,0,0,0,0,0,0,0,0,0,0,0,0,0,0,0,0,0.0324,-0.0566,-0.0431,-0.0135,0,0,0,0,0,0,0,0,0,0,0,0,0,0,0,0,0,0,0,0,0,0,0,0,0,0,0,0,0,0,0,0,0,0,0,0,0,0,0,0,0,-0.0352,-0.136,-0.1491,-0.0714,-0.0225,0,0,0,0,0,0,0,0,0,0,0,0,0,0,0,0,0,0,0,0,0,0,0,0,0,0,0,0,0,0,0,0,0,0,0,0,0,0,0,0,0,-0.008,-0.1329,-0.1906,-0.092,-0.0244,0,0,0,0,0,0,0,0,0,0,0,0,0.0187,0.0508,0.0689,0.0755,0.0783,0.0777,0.0725,0.0585,0.0494,0,0,0,0,0,0,0,0,0,0,0,0,-0.0003,0.0047,0.0099,0,0,0,0,0,0.0346,-0.0467,-0.1859,-0.1269,-0.0434,0,0,0,0,0,0,0,0,0,0.0231,0.0645,0.1008,0.1071,0.084,0.0698,0.0687,0.0742,0.0786,0.0824,0.0816,0.0873,0.0758,0.036,0.0124,0.0025,0.0168,0.0346,0,0,0,0,0.0025,0.0253,0.0489,0.0538,0.0555,0,0,0,0,0,0.0272,0.0434,-0.0654,-0.1046,-0.0511,0,0,0,0,0.0423,0.1096,0.1516,0.1774,0.1903,0.1761,0.139,0.1148,0.0934,0.0667,0.0544,0.056,0.0574,0.0489,0.0407,0.042,0.0494,0.0489,0.0393,0.031,-0.0294,-0.0769,0.0209,0.0942,0.0577,0.025,0.0047,-0.0129,-0.0228,-0.0371,-0.0731,-0.0956,-0.1099,-0.1233,-0.1143,-0.092,-0.0593,0.0124,0.0192,-0.0854,-0.1176,-0.0948,0,0,0,0.0637,0.1373,0.1566,0.1717,0.1851,0.1895,0.1791,0.1426,0.103,0.0854,0.0667,0.0547,0.0533,0.0599,0.0505,0.0016,-0.0426,-0.0651,-0.0607,-0.0319,0.0044,0.0396,0.0385,0.0459,0.0629,0.0365,0.0058,-0.006,-0.0233,-0.0599,-0.0791,-0.0698,-0.0203,-0.0069,-0.0797,-0.122,0,0,0,-0.0959,-0.1887,-0.1434,-0.1206,0,0,0.0662,0.1442,0.1549,0.1541,0.1552,0.1467,0.1241,0.1101,0,0,0,0.0058,0.0184,0.0244,0.0231,0,-0.0272,-0.0302,-0.0063,0,0,0,0,0,0,0,-0.0302,-0.0423,-0.0159,-0.0011,-0.014,-0.0299,-0.0261,0,0,-0.0401,-0.0871,-0.0799,-0.0832,-0.0725,0.0121,0.0698,0,0,0,0.0772,0.1593,0.1524,0.1404,0.142,0.1552,0.1684,0.1384,0.1052,0.1005,0.0769,0.0335,0.0058,0.0022,0,0,0.008,0.022,0.028,0.0431,0.0288,-0.0203,-0.0533,-0.0645,-0.0656,-0.0687,-0.0634,-0.0632,0,0,0,-0.0162,-0.0431,-0.0181,-0.0211,-0.086,-0.0728,-0.0494,-0.0398,-0.0201,-0.0225,0,-0.0206,-0.0486,-0.0525,-0.0417,0.323,0.2491,0.1827,0.1486,0.1489,0.1895,0.2233,0.2087,0.159,0.12,0.1134,0.0961,0.0618,0.0643,0.0904,0.1005,0.1016,0.0948,0.0906,0.086,0.0703,0.0332,-0.0096,-0.0349,-0.0426,-0.0643,-0.0851,-0.0602,-0.0297,-0.0357,-0.075,-0.0731,-0.0596,-0.042,-0.0047,-0.0385,-0.0698,-0.0536,-0.0338,-0.0222,-0.017,-0.053,-0.0525,-0.0233,-0.0275,-0.0327,0,0.0456,0.1085,0.1263,0.1599,0.1931,0,0,0.0277,0.081,0.1165,0.1214,0.1211,0.1346,0.1566,0.1717,0.1711,0.1623,0.1461,0.1244,0.1005,0.0777,0.0481,0.0159,0.0118,0.0187,-0.0173,-0.0478,-0.0115,0.022,-0.0093,-0.0481,-0.0626,-0.05,-0.0231,-0.0253,-0.0428,-0.0552,-0.0582,-0.05,-0.0316,-0.0255,-0.0288,-0.0258,-0.0239,-0.0247,0.2206,0.1632,0.128,0.1079,0.0942,0,0,0,0.0379,0.0959,0.1318,0.1555,0.1695,0.1857,0.2079,0.2247,0.2464,0.2532,0.2162,0.1621,0.1159,0.0915,0.0695,0.0327,0.0137,0.0321,0.0093,-0.0437,-0.0231,0.0439,0.072,0.0541,0.0217,-0.006,-0.0206,-0.0264,-0.0349,-0.0486,-0.053,-0.0448,-0.0294,-0.0201,-0.0198,-0.0181,-0.0159,-0.0151,0.0415,0.1068,0.1305,0,0,0,0,0,0.0368,0.086,0.1121,0.1354,0.1519,0.1596,0.1689,0.1901,0.2516,0.2862,0.2263,0.1607,0.1115,0.084,0.07,0.0426,0.0047,0.0187,0.0168,-0.0464,-0.0689,-0.0255,0.0148,0.0173,0.0124,0.0011,-0.0135,-0.0228,-0.031,-0.0387,-0.0431,-0.0431,-0.0357,-0.0261,-0.0209,-0.0173,-0.0148,-0.0137,0,0,0.0332,0.0802,0.0816,0.0703,0,0,0.058,0.106,0.0994,0.1093,0.1176,0.12,0.1236,0.1272,0.1283,0,0.0467,0.0909,0.081,0.0673,0.0623,0.058,0.0272,0.0244,0.0302,-0.0409,-0.1121,-0.0992,-0.0593,-0.0533,-0.0461,-0.0319,-0.028,-0.0302,-0.0343,-0.0371,-0.0385,-0.0376,-0.0335,-0.0269,-0.0206,-0.0154,-0.0132,-0.0124,0,0,0.061,0.1379,0.1703,0.2151,0.267,0.3238,0.3194,0.2112,0.1121,0.0808,0.081,0.0862,0.086,0.0788,0.0346,-0.0044,0,0.0093,0.0275,0.0428,0.05,0.0615,0.0626,0.0698,0.0884,0.0893,0.0695,0.0231,-0.0104,-0.0143,-0.0143,-0.0074,-0.0005,-0.003,-0.0129,-0.0242,-0.031,-0.0332,-0.0327,-0.028,-0.0211,-0.0137,-0.0088,-0.0058,0,0,0,0.0374,0.0747,0,0,0,0.0113,0.0305,0.0453,0.0511,0.0478,0.0459,0.0437,0.0357,0.0126,-0.006,0,0.0003,0.0143,0.0308,0.0385,0.0511,0.0667,0.0871,0.1088,0.1228,0.1274,0.1239,0.1082,0.0906,0.086,0.0898,0.0887,0.0766,0.0538,0.0261,0.0033,-0.0104,-0.0192,-0.0225,-0.0179,-0.0088,-0.0025,0.0016,0,0,0,0,0,0,0,-0.0027,0.0055,0.0211,0.0319,0.0398,0.0387,0.0283,0.0179,0.0157,0.0102,0.0038,0,0.0003,0.0124,0.0253,0.0313,0.0409,0.0555,0.0758,0.0956,0.1088,0.111,0.103,0.1016,0.1112,0.1247,0.1371,0.1439,0.1423,0.1211,0.0851,0.0563,0.0371,0.0217,0.0093,0.0044,0.0096,0.0151,0.0162,0,0,0,0,0,0,-0.0003,0.0038,0.0159,0.0239,0.0261,0.0294,0.031,0.0288,0.0239,0.0217,0.0176,0.0129,0,0.0014,0.0115,0.0228,0.0291,0.0385,0.0503,0.0634,0.075,0.0838,0.0868,0.0884,0.1022,0.1206,0.1349,0.148,0.1541,0.1593,0.1615,0.1343,0.0956,0.0758,0.0662,0.056,0.0467,0.0467,0.0505,0.05,0,0,0,0,0,0,0.0005,0.0082,0.0192,0.0217,0.0195,0.0173,0.0176,0.0176,0.0132,0.0093,0,0,0,0.0038,0.0143,0.0239,0.0305,0.0404,0.0525,0.0629,0.0678,0.0695,0.0733,0.0879,0.111,0.1231,0.1305,0.1417,0.1491,0.1516,0.1618,0.1664,0.1321,0.0909,0.0772,0.0753,0.0753,0.0794,0.0868,0.0917,0,0,0,0,0,0,0.0052,0.0168,0.0239,0.0228,0.0173,0.0118,0.0063,0.0049,0.0038,-0.0063,-0.0132,0,0,0.0066,0.0209,0.0332,0.0398,0.0467,0.0566,0.0667,0.0714,0.0711,0.0755,0.0871,0.0961,0.0975,0.1027,0.111,0.1206,0.1382,0.15,0.164,0.1648,0.1239,0.0851,0.0753,0.0769,0.0829,0.0931,0.1027,0,0,0,0,0,-0.0003,0.0099,0.0239,0.0275,0.0247,0.0173,0.0091,0.0052,0,-0.0025,-0.0044,-0.0038,0,0,0.0113,0.0327,0.0516,0.0662,0.0742,0.0769,0.0783,0.078,0.0742,0.0717,0.072,0.0659,0.0629,0.0692,0.0775,0.0882,0.1074,0.1307,0.1453,0.1615,0.1513,0.1066,0.0775,0.0725,0.078,0.0873,0.095,0,-0.0168,-0.0233,-0.0132,0,0.0077,0.0225,0.0308,0.031,0.0266,0.0187,0.0126,0.0058,0.0005,0.0014,0.0011,-0.0003,0,0.0228,0.047,0.0525,0.0654,0.0854,0.1046,0.1143,0.114,0.1079,0.0915,0.0711,0.0536,0.0404,0.0401,0.0459,0.0547,0.0656,0.0764,0.0923,0.1082,0.1283,0.142,0.1145,0.0777,0.0662,0.0681,0.0764,0.0829,0,0.0302,0,0.0058,0.0118,0,0.0121,0.0299,0.033,0.0272,0.0214,0.017,0.0132,0.0058,-0.0014,-0.0041,-0.0049,0,0.0124,0.0316,0.0442,0.058,0.0769,0.0953,0.1082,0.1192,0.1255,0.111,0.0805,0.045,0.0225,0.0242,0.0294,0.0327,0.0365,0.0387,0.0456,0.0602,0.0887,0.1159,0.1038,0.0725,0.0547,0.0492,0.0522,0.0544,0,-0.0027,-0.0044,0.0008,0.0033,0.0036,0.0168,0.0321,0.0346,0.0302,0.0266,0.0231,0.0151,0.0014,-0.0091,-0.0118,0,0.0305,0.0574,0.0514,0.0486,0.0544,0.0643,0.0689,0.0709,0.0813,0.0994,0.0997,0.0747,0.0365,0.0154,0.0201,0.0187,0.0132,0.0195,0.0118,0.0027,0.0261,0.0621,0.0843,0.0775,0.0574,0.0426,0.0357,0.0291,0.0179,-0.0168,-0.0113,0.0055,0.006,0.011,0.0168,0.0261,0.0352,0.0371,0.0365,0.0371,0.0341,0.0176,-0.0165,-0.0374,0,0.0294,0.0582,0.0544,0.0497,0.0505,0.0558,0.0582,0.0533,0.0464,0.0508,0.0684,0.0802,0.0621,0.0288,0.0173,0.0242,0.0203,0.0047,0.0165,0.033,0.0231,0.0159,0.028,0.045,0.0497,0.0459,0.0409,0.0379,0.025,-0.0049,0.019,0.0044,0.0063,0.0069,0.0126,0.0233,0.0308,0.0363,0.0412,0.0475,0.0538,0.058,0.0511,0.0426,0,0.0316,0.0632,0.0613,0.0569,0.0538,0.0547,0.0577,0.0577,0.0508,0.0423,0.0464,0.0645,0.07,0.0519,0.036,0.0332,0.0393,0.0385,0.0148,0.0165,0.0453,0.0689,0.0571,0.0291,0.0291,0.0385,0.0475,0.0516,0.0591,0.0555,0.0231,0.017,0.0118,0.0135,0.0173,0.0236,0.0275,0.0294,0.039,0.0486,0.0577,0.0703,0.0857,0.097,0.1236,0.1456,0.1225,0.0901,0.0722,0.0632,0.0591,0.058,0.0571,0.0555,0.0508,0.0453,0.0481,0.0434,0.0236,0.0093,-0.0011,0.0047,0.0352,0.058,0.0448,0.0368,0.0555,0.078,0.089,0.0522,0.0159,0.0266,0.0486,0.0607,0.0755,0.0764,0.0552,0.0209,0.017,0.019,0.025,0.0316,0.0357,0.0417,0.0538,0.0623,0.0659,0.0755,0.103,0.1203,0.1288,0.1338,0.1167,0.0967,0.0797,0.0689,0.0626,0.056,0.0508,0.0522,0.0563,0.0582,0.0412,0.0124,-0.0115,-0.033,-0.0239,0.0143,0.0547,0.0802,0.0728,0.0632,0.0684,0.0722,0.0791,0.0374,-0.0157,-0.0044,0.0239,0.0522,0.0607,0.056,0.0623,0.0255,0.0236,0.0264,0.0341,0.0434,0.0494,0.056,0.0744,0.0956,0.0805,0.0577,0,0.0343,0.0884,0.1118,0.1093,0.0945,0.0808,0.0706,0.0596,0.0483,0.0459,0.0536,0.0651,0.0544,0.0253,0.0173,0.0294,0.0327,0.0459,0.0788,0.0967,0.0898,0.0695,0.0604,0.0656,0.0717,0.0868,0.0651,-0.0201,-0.0816,-0.0673,0.0005,0.0431,0.0486,0.0621,0.0409,0.0398,0.0407,0.0461,0.0519,0.0525,0.0456,0.0401,0,0.022,0.0665,0.0882,0.0895,0.0967,0.1046,0.1014,0.0901,0.0794,0.0676,0.0552,0.0514,0.0607,0.0678,0.0558,0.0404,0.0332,0.0335,0.0563,0.0865,0.1077,0.1115,0.0786,0.0319,0.0195,0.0272,0.0396,0.0626,0.0783,0.0898,0.0525,-0.0442,-0.1052,-0.0854,-0.0294,0.0132,0.0415,0.0497,0.0508,0.0492,0.0494,0.0492,0.0475,0.0461,0,0.0113,0.0374,0.0692,0.0915,0.0989,0.1066,0.1085,0.0994,0.0879,0.0761,0.0662,0.0645,0.0849,0.1068,0.1211,0.139,0.139,0.1101,0.0769,0.0731,0.0904,0.1137,0.1401,0.1233,0.0552,0.0187,0.0247,0.0478,0.0736,0.0824,0.1044,0.1349,0.1464,0.1269,0.0711,0.0423,0.0709,0.1134]},{"header":{"parameterUnit":"m.s-1","parameterCategory":2,"la1":30.5641,"la2":29.4642,"lo1":-89.4342,"lo2":-87.9343,"dx":0.0333,"dy":0.0333,"nx":46,"ny":34,"refTime":"2022-11-04T00:00:00:Z","depth":"2","parameterNumber":3,"parameterNumberName":"V-component_of_CURRENTS"},"data":[0,0,0,0,0,0,0,0,0,0,0,0,0,0,0,0,0,0,0,0,0,0,0,0,0,0,0,0,0,0,0,0,0,0,0,0,0,0,0,0,0,0.0967,0.1228,0.0937,-0.0228,0,0,0,0,0,0,0,0,0,0,0,0,0,0,0,0,0,0,0,0,0,0,0,0,0,0,0,0,0,0,0,0,0,0,0,0,0,0,0,0,0,0,0.156,0.1879,0.0961,-0.0725,0,0,0,0,0,0,0,0,0,0,0,0,0,0,0,0,0,0,0,0,0,0,0,0,0,0,0,0,0,0,0,0,0,0,0,0,0,0,0,0,0,0,0.2425,0.1958,0.07,-0.0934,0,0,0,0,0,0,0,0,0,0,0,0,0,0,0,0,0,0,0,0,0,0,0,0,0,0,0,0,0,0,0,0,0,0,0,0,0,0,0,0,0,0,0.2546,0.1409,0.0305,-0.0961,0,0,0,0,0,0,0,0,0,0,0,0,0,0,0,0,0,0,0,0,0,0,0,0,0,0,0,0,0,0,0,0,0,0,0,0,0,0,0,0,0,0.0634,0.2324,0.0992,-0.0091,-0.0942,0,0,0,0,0,0,0,0,0,0,0,0,0,0,0,0,0,0,0,0,0,0,0,0,0,0,0,0,0,0,0,0,0,0,0,0,0,0,0,0,0,-0.0165,0.1928,0.1025,-0.0346,-0.0813,0,0,0,0,0,0,0,0,0,0,0,0,0.0547,0.0302,0.0118,0.0055,0.0047,0.0036,-0.0036,-0.0047,-0.0689,0,0,0,0,0,0,0,0,0,0,0,0,0.0442,0.0494,0.0096,0,0,0,0,0,-0.1014,0.1104,0.12,-0.0214,-0.0571,0,0,0,0,0,0,0,0,0,0.0651,0.0396,0.0096,0.0346,0.0253,0.0148,0.008,0.0058,0.008,0.0135,0.0008,-0.0527,-0.0008,0.0179,0.0269,0.064,-0.0209,-0.251,0,0,0,0,0.0396,0.1239,0.0731,0.0453,-0.0019,0,0,0,0,0,-0.1302,0.0368,0.1447,0.0363,0.011,0,0,0,0,0.0536,0.0283,0.0201,0.0374,0.0426,0.0527,0.0291,0.0135,0.0198,0.0209,0.0165,0.0104,0.0113,0.0143,0.0258,-0.0005,-0.0272,-0.008,0.0049,0.0077,0.0494,0.0132,-0.1736,0.0242,0.0266,0.0027,0.0217,0.0489,0.0827,0.0533,-0.0005,-0.0503,-0.0538,-0.0066,-0.0209,0.0,0.0,-0.0714,0.0478,0.1456,0.0445,0.0607,0,0,0,0.0645,0.0431,0.0305,0.0203,0.0168,0.0176,0.0508,0.0093,0.0085,0.0126,0.0115,0.0118,0.0137,0.0261,0.0082,-0.0154,-0.0475,-0.042,-0.0074,-0.0036,-0.0058,0.0176,0.0236,-0.0483,0.0121,0.0113,-0.0162,0.0044,0.0225,0.0201,-0.0157,-0.0503,-0.0437,-0.0269,0.0321,-0.011,0,0,0,-0.0005,0.1027,0.0093,0.0286,0,0,0.0503,0.0494,0.0417,0.039,0.0135,-0.0261,-0.0319,0.003,0,0,0,0.0102,0.0091,0.0085,0.0181,0,-0.0481,-0.0805,-0.0959,0,0,0,0,0,0,0,-0.0305,-0.0179,-0.0063,-0.0063,-0.0091,-0.0417,-0.0555,0,0,0.0198,-0.0102,0.0014,0.0022,0.0305,-0.0417,0.0008,0,0,0,0.0634,0.0514,0.0481,0.0503,0.0319,0.0074,-0.047,-0.0305,-0.0368,0.0099,-0.0118,-0.0321,-0.0159,-0.0299,0,0,0.0453,-0.0217,-0.0563,-0.1079,-0.0516,-0.0379,-0.0209,-0.0118,-0.0063,0.0104,0.0008,-0.0494,0,0,0,-0.0387,-0.0574,-0.0563,-0.0478,-0.022,-0.0316,0.0071,0.0187,0.0154,0.0184,0,-0.0882,0.0305,0.0357,0.0214,0.0319,0.0121,0.0341,0.0313,0.0124,0.0549,-0.0228,-0.0022,-0.0505,-0.0442,-0.0533,-0.0376,-0.0041,0.0019,0.0645,0.047,0.0396,-0.0011,-0.0398,-0.0728,-0.0563,-0.0494,-0.0349,-0.0168,-0.0025,0.0107,0.0041,-0.0198,0.0044,-0.0428,-0.0475,-0.0613,-0.0492,-0.0489,-0.0423,-0.0011,0.0071,0.0385,0.0319,0.0236,0.0074,0.0349,-0.047,0.0374,0.0324,0.0277,0,0.0093,0.0181,0.0107,0.0294,0.0508,0,0,-0.0415,-0.0522,-0.0464,-0.0003,0.0588,0.0761,0.0786,0.0736,0.0665,0.0126,-0.0363,-0.0593,-0.0667,-0.07,-0.0577,-0.0291,-0.0044,0.003,0.0058,0.0151,0.0255,-0.0082,-0.0019,-0.0099,-0.0126,-0.0346,-0.0228,0.0217,0.0415,0.0417,0.0376,0.0349,0.0291,0.0407,0.0275,0.0426,0.0382,0.042,-0.0244,-0.0126,0.0242,0.0047,0.0264,0,0,0,0.0129,0.0099,0.0143,0.0407,0.0643,0.0711,0.0772,0.0808,0.1178,0.0321,-0.0428,-0.0703,-0.0819,-0.0832,-0.0692,-0.039,-0.0154,-0.0137,-0.0088,0.0247,0.0431,0.0052,0.0085,0.0176,0.0055,-0.0102,0.0033,0.0275,0.0401,0.0492,0.0533,0.0533,0.0503,0.047,0.0483,0.0511,0.0525,0.0552,-0.0121,-0.0363,-0.0423,0,0,0,0,0,0.0456,0.0437,0.0371,0.0379,0.0431,0.0514,0.0563,0.067,0.1805,0.0181,-0.0915,-0.0937,-0.0928,-0.0893,-0.0761,-0.0516,-0.0302,-0.0522,-0.0574,0.0005,0.0244,-0.0255,-0.047,-0.0239,-0.0063,0.0027,0.0151,0.0316,0.0481,0.0577,0.0604,0.0591,0.0555,0.0544,0.0541,0.0547,0.0555,0.0571,0,0,-0.1019,-0.0689,-0.0319,-0.103,0,0,0.0662,0.0632,0.0478,0.0291,0.0261,0.0349,0.05,0.0711,0.1708,0,-0.0654,-0.0953,-0.0879,-0.0835,-0.0725,-0.0571,-0.0437,-0.0829,-0.089,-0.0277,0.0047,-0.0264,-0.0346,-0.0121,0.0,0.0091,0.0244,0.0404,0.053,0.0591,0.0626,0.0623,0.061,0.0593,0.0577,0.056,0.0558,0.0558,0,0,-0.0503,-0.0775,-0.0236,-0.0516,0.0,0.0,-0.0198,0.0091,0.0239,0.017,0.0239,0.0379,0.0527,0.0659,0.0942,0.0198,0,-0.0569,-0.0549,-0.0621,-0.0574,-0.0503,-0.0442,-0.0717,-0.0725,-0.0297,0.0022,0.0132,0.0211,0.0299,0.0332,0.0385,0.0475,0.0569,0.0599,0.0607,0.061,0.0602,0.0604,0.061,0.061,0.0599,0.0593,0.0593,0,0,0,-0.0428,-0.0074,0,0,0,-0.0503,-0.0244,-0.0003,0.0104,0.0228,0.0354,0.0453,0.0522,0.0585,0.0297,0,-0.0135,-0.0157,-0.033,-0.0382,-0.0363,-0.0349,-0.0453,-0.0423,-0.0214,-0.0052,0.022,0.0354,0.0459,0.0505,0.0519,0.0533,0.0574,0.0604,0.0621,0.0602,0.0602,0.0626,0.0665,0.0698,0.0687,0.0667,0.064,0,0,0,0,0,0,0,0.0129,0.0038,0.0008,0.006,0.0151,0.0253,0.0352,0.0407,0.042,0.0365,0.0294,0,0.006,0.0082,-0.008,-0.0192,-0.0214,-0.0236,-0.0266,-0.0239,-0.0201,-0.0151,0.0069,0.0357,0.0522,0.0547,0.05,0.0396,0.0313,0.0387,0.0533,0.0599,0.0618,0.0678,0.0766,0.084,0.0829,0.0761,0.0711,0,0,0,0,0,0,-0.0005,0.0121,0.0022,0.0052,0.0121,0.0214,0.0316,0.042,0.045,0.0448,0.0135,0.0096,0,0.0209,0.0239,0.0124,0.0,-0.0063,-0.0113,-0.0143,-0.0129,-0.0151,-0.0113,0.0283,0.0588,0.0643,0.0604,0.0478,0.0291,0.0063,-0.0005,0.0261,0.0536,0.0629,0.07,0.0824,0.0942,0.0942,0.0854,0.0797,0,0,0,0,0,0,0.0047,0.0091,0.0005,0.0044,0.011,0.019,0.0266,0.0338,0.0396,0.0445,0,0,0,0.0371,0.0385,0.0313,0.0198,0.0107,0.0038,-0.0014,-0.0014,-0.0077,0.0146,0.0645,0.0802,0.0725,0.0615,0.0415,0.0217,0.0008,-0.0299,-0.019,0.0288,0.0643,0.0758,0.0851,0.0961,0.097,0.0904,0.0854,0,0,0,0,0,0,0.0118,0.0047,-0.0014,0.0025,0.0102,0.0176,0.0231,0.0143,0.0324,0.0365,0.0179,0,0,0.0569,0.0599,0.0549,0.0437,0.0305,0.0192,0.0118,0.008,0.003,0.0547,0.0882,0.084,0.0692,0.0558,0.036,0.017,0.0027,-0.0247,-0.05,-0.0154,0.0516,0.086,0.0926,0.0978,0.097,0.0917,0.0882,0,0,0,0,0,0.0008,0.0132,-0.0003,-0.0033,0.0011,0.0104,0.0173,0.0209,0,0.0294,0.031,0.0173,0,0,0.0829,0.0868,0.0851,0.0761,0.058,0.0387,0.0258,0.0159,0.0211,0.0788,0.0843,0.07,0.0549,0.0461,0.0335,0.0201,0.0027,-0.0113,-0.0448,-0.0492,0.0184,0.0821,0.0992,0.1005,0.0981,0.0945,0.0923,0,0.0162,0.0,0.0302,0,0.0005,0.0016,-0.0066,-0.0063,0.0011,0.0115,0.0162,0.0184,0.0324,0.0272,0.028,0.0129,0,0.0772,0.0983,0.106,0.1099,0.1057,0.0865,0.0623,0.0415,0.0242,0.0368,0.0731,0.0634,0.0483,0.0417,0.0398,0.039,0.0335,0.0118,-0.0077,-0.031,-0.0549,-0.0126,0.0654,0.0975,0.1008,0.1008,0.1011,0.1,0,0.0066,0,0.0308,0.0154,0,-0.0102,-0.0118,-0.0066,0.0041,0.0135,0.0151,0.0146,0.0217,0.0206,0.0146,0.0044,0,0.0937,0.109,0.1167,0.1195,0.1143,0.095,0.0711,0.0467,0.0258,0.0374,0.0494,0.0382,0.0272,0.0308,0.0382,0.0522,0.0547,0.0266,-0.0063,-0.0332,-0.0544,-0.0176,0.0574,0.0904,0.0961,0.1025,0.1055,0.1005,0,-0.0058,0.0332,0.0316,0.017,0.0126,-0.0107,-0.0118,0.0005,0.0107,0.0146,0.0102,0.0044,0.0047,0.0025,0.0016,0,0.0923,0.1063,0.1156,0.1184,0.114,0.1049,0.0906,0.0709,0.0472,0.0255,0.0305,0.0206,0.0124,0.0102,0.0179,0.0349,0.0667,0.0725,0.0277,-0.0055,-0.031,-0.031,0.0132,0.0626,0.0799,0.0882,0.0992,0.095,0.0764,0.0099,0.0055,0.0332,0.0288,0.0118,0.0005,-0.0102,-0.0019,0.0129,0.0159,0.0121,-0.0014,-0.0173,-0.0269,-0.006,0,0.0835,0.0906,0.1008,0.1096,0.1096,0.1041,0.0978,0.0901,0.0766,0.0607,0.0456,0.0264,0.0016,-0.006,-0.0047,0.0008,0.0283,0.0802,0.0821,0.0286,0.0022,-0.0019,0.0255,0.0522,0.0659,0.0695,0.0829,0.0868,0.0574,0.0319,0.0091,0.0258,0.0349,0.0233,-0.0011,-0.0099,0.0016,0.0173,0.025,0.017,0.0063,-0.0137,-0.0371,-0.089,0,0.0942,0.0862,0.0895,0.0975,0.1019,0.1011,0.0981,0.0956,0.0901,0.0819,0.0764,0.0604,0.025,0.0038,-0.0096,-0.0107,-0.0104,0.0217,0.0832,0.0868,0.0478,-0.0132,0.0255,0.0761,0.0731,0.0629,0.0634,0.0838,0.0618,-0.0014,-0.0148,0.0121,0.0319,0.033,0.0168,-0.0066,0.0014,0.0255,0.0365,0.0297,0.0143,0.0022,-0.014,-0.0371,-0.0882,0.0266,0.0761,0.0791,0.0857,0.0912,0.0937,0.0945,0.0945,0.0945,0.0893,0.0813,0.0731,0.0481,0.0154,-0.0011,-0.0258,-0.0269,-0.0135,0.0168,0.0769,0.0849,0.0582,-0.0354,0.0231,0.0953,0.0851,0.0645,0.0703,0.0783,0.0118,-0.0536,-0.0486,0.0154,0.0283,0.0275,0.0143,0.0022,0.0203,0.0448,0.047,0.0244,0.006,0.0041,-0.0047,-0.0417,-0.0354,0.0203,0.0492,0.067,0.0783,0.0832,0.0862,0.089,0.0928,0.0942,0.0813,0.0602,0.0492,0.0288,-0.003,-0.0181,-0.0387,0.0162,0.0538,0.0552,0.0854,0.0739,0.0404,-0.0404,-0.0058,0.0758,0.0942,0.0862,0.0967,0.045,-0.0332,-0.0678,-0.0722,0.0124,0.0201,0.0228,0.0173,0.0154,0.0313,0.0492,0.053,0.0096,-0.0286,-0.0363,0,-0.0099,-0.0011,0.0179,0.0415,0.0615,0.0703,0.0742,0.078,0.084,0.0887,0.0819,0.0626,0.0464,0.0349,0.0206,-0.0077,-0.0096,0.0283,0.0912,0.1489,0.1211,0.1,0.0497,0.0088,-0.0354,-0.014,0.0404,0.0882,0.1019,0.0912,-0.0019,-0.047,-0.0791,-0.1283,0.0121,0.0157,0.0195,0.019,0.0198,0.0266,0.031,0.0283,0,-0.0266,-0.0478,0.0233,0.0286,0.0225,0.0272,0.0453,0.0582,0.0618,0.0629,0.0698,0.0791,0.0769,0.0753,0.0709,0.0621,0.0437,0.031,0.0077,0.0198,0.0882,0.1115,0.1678,0.1384,0.0904,0.0354,-0.0124,-0.0266,0.0225,0.036,0.0371,0.0651,0.0755,-0.0003,-0.05,-0.0956,-0.1354,0.0115,0.0157,0.0168,0.0148,0.0118,0.0093,-0.0173,0,0.0516,0.0159,0.0,0.0239,0.0316,0.0299,0.0396,0.0516,0.0538,0.0497,0.0511,0.0692,0.092,0.1118,0.1247,0.1225,0.0986,0.0722,0.0522,0.0346,0.0541,0.0942,0.1159,0.1376,0.1269,0.0887,0.0489,-0.0069,-0.0074,0.0494,0.0478,0.0151,0.0343,0.0547,0.0124,-0.0365,-0.0703,-0.0582]}],[{"header":{"parameterUnit":"m.s-1","parameterCategory":2,"la1":30.5641,"la2":29.4642,"lo1":-89.4342,"lo2":-87.9343,"dx":0.0333,"dy":0.0333,"nx":46,"ny":34,"refTime":"2022-11-04T00:00:00:Z","depth":"4","parameterNumber":2,"parameterNumberName":"U-component_of_CURRENTS"},"data":[0,0,0,0,0,0,0,0,0,0,0,0,0,0,0,0,0,0,0,0,0,0,0,0,0,0,0,0,0,0,0,0,0,0,0,0,0,0,0,0,0,0.0404,0.106,0.1321,0.1077,0,0,0,0,0,0,0,0,0,0,0,0,0,0,0,0,0,0,0,0,0,0,0,0,0,0,0,0,0,0,0,0,0,0,0,0,0,0,0,0,0,0,0.0283,0.0656,0.0758,0.0667,0,0,0,0,0,0,0,0,0,0,0,0,0,0,0,0,0,0,0,0,0,0,0,0,0,0,0,0,0,0,0,0,0,0,0,0,0,0,0,0,0,0,0.0244,0.0352,0.017,0.0088,0,0,0,0,0,0,0,0,0,0,0,0,0,0,0,0,0,0,0,0,0,0,0,0,0,0,0,0,0,0,0,0,0,0,0,0,0,0,0,0,0,0,0.0758,0.0044,-0.0349,-0.0505,0,0,0,0,0,0,0,0,0,0,0,0,0,0,0,0,0,0,0,0,0,0,0,0,0,0,0,0,0,0,0,0,0,0,0,0,0,0,0,0,0,-0.0143,-0.0552,-0.0887,-0.0868,-0.078,0,0,0,0,0,0,0,0,0,0,0,0,0,0,0,0,0,0,0,0,0,0,0,0,0,0,0,0,0,0,0,0,0,0,0,0,0,0,0,0,0,-0.0036,-0.0544,-0.0838,-0.0783,-0.0659,0,0,0,0,0,0,0,0,0,0,0,0,0.0211,0.053,0.0678,0.0728,0.0742,0.0744,0.0772,0.0742,0.0687,0,0,0,0,0,0,0,0,0,0,0,0,0.0104,0.0291,0.0379,0,0,0,0,0,-0.0151,-0.0549,-0.0678,-0.0645,-0.0181,0,0,0,0,0,0,0,0,0,0.0231,0.061,0.0843,0.0799,0.0654,0.0626,0.0629,0.0648,0.072,0.0879,0.0928,0.0937,0.0893,0.0602,0.0387,0.0753,0.1305,0.1464,0,0,0,0,0.0118,0.0525,0.078,0.0676,0.061,0,0,0,0,0,-0.0341,-0.0236,-0.0192,-0.0431,-0.0146,0,0,0,0,0.0277,0.0654,0.0923,0.1165,0.1357,0.1371,0.1126,0.0917,0.078,0.0681,0.0604,0.0547,0.0588,0.0604,0.0558,0.0558,0.0626,0.0629,0.0514,0.0376,0.0049,0.0129,0.047,0.0503,0.0489,0.0404,0.0288,0.0129,0.0025,-0.0129,-0.0505,-0.058,-0.0363,-0.0233,-0.0074,0.0165,0.011,-0.0209,-0.0096,-0.0346,-0.084,-0.0761,0,0,0,0.0343,0.072,0.0873,0.1104,0.1217,0.1283,0.1351,0.1203,0.0937,0.0766,0.064,0.0536,0.0489,0.0599,0.0634,0.0247,-0.0247,-0.0453,-0.0255,0.0074,0.0343,0.0503,0.0434,0.0456,0.0519,0.0434,0.0269,0.0115,-0.0033,-0.0352,-0.0569,-0.0527,-0.0041,0.0179,-0.0129,-0.0233,0,0,0,-0.0544,-0.103,-0.0824,-0.0714,0,0,0.0316,0.0709,0.0862,0.0992,0.1016,0.0868,0.0739,0.0731,0,0,0,0.0113,0.0288,0.0324,0.0294,0,-0.0132,-0.0058,0.0154,0,0,0,0,0,0,0,-0.0184,-0.0233,-0.0005,0.0179,0.0102,-0.0052,-0.0047,0,0,-0.0222,-0.0516,-0.0472,-0.0324,-0.0093,0.0233,0.0368,0,0,0,0.0321,0.0786,0.0931,0.0942,0.089,0.0876,0.0983,0.097,0.0972,0.0909,0.0662,0.0475,0.0338,0.028,0,0,0.0135,0.0357,0.0497,0.067,0.0508,-0.0025,-0.0374,-0.0527,-0.056,-0.0544,-0.0437,-0.036,0,0,0,0.0022,-0.0038,-0.0041,-0.0088,-0.0582,-0.0376,-0.028,-0.0179,0.003,0.0063,0,-0.019,-0.0294,-0.0253,-0.0217,0.2071,0.1524,0.1239,0.1011,0.0846,0.1165,0.1502,0.1445,0.1225,0.0917,0.0678,0.0593,0.061,0.0761,0.092,0.0989,0.1011,0.0948,0.0939,0.0961,0.0912,0.0577,0.0102,-0.0192,-0.0319,-0.0494,-0.0623,-0.0371,-0.0157,-0.0184,-0.0409,-0.0297,-0.0253,-0.0228,0.0049,-0.0239,-0.0511,-0.0341,-0.0165,-0.0058,0.0011,-0.0135,-0.0088,-0.0052,-0.0121,-0.0151,0,0.0222,0.0648,0.0862,0.0994,0.1112,0,0,0.0231,0.0596,0.0829,0.0997,0.1121,0.1255,0.1456,0.1604,0.1607,0.1478,0.131,0.1159,0.1033,0.0893,0.0607,0.0269,0.0211,0.0261,-0.0069,-0.0343,0.0005,0.0338,0.0063,-0.0297,-0.0461,-0.0382,-0.0143,-0.0157,-0.0299,-0.0398,-0.042,-0.0343,-0.017,-0.0113,-0.0124,-0.0096,-0.0102,-0.0118,0.1643,0.1217,0.0843,0.0764,0.0736,0,0,0,0.0228,0.0695,0.1104,0.1384,0.1579,0.1747,0.1906,0.2008,0.214,0.2079,0.1741,0.1387,0.114,0.0981,0.0783,0.0423,0.0236,0.039,0.0162,-0.033,-0.0113,0.0494,0.0725,0.0574,0.0288,0.0025,-0.0115,-0.0162,-0.0236,-0.036,-0.0396,-0.0316,-0.0179,-0.0091,-0.008,-0.0066,-0.0047,-0.0044,0.0253,0.0873,0.1236,0,0,0,0,0,0.0228,0.0659,0.1035,0.1313,0.1486,0.1582,0.1653,0.1832,0.2261,0.2302,0.1741,0.1327,0.1077,0.0926,0.0786,0.0511,0.0148,0.0266,0.0228,-0.0376,-0.0569,-0.0135,0.0253,0.0269,0.0203,0.0088,-0.0049,-0.0132,-0.0206,-0.0275,-0.0313,-0.031,-0.0239,-0.0148,-0.0093,-0.006,-0.0038,-0.003,0,0,0.0096,0.0346,0.0588,0.0681,0,0,0.0211,0.064,0.0956,0.1115,0.1206,0.1258,0.1288,0.1305,0.1318,0,0.0434,0.0846,0.081,0.0813,0.0709,0.0651,0.0352,0.0313,0.0354,-0.0338,-0.103,-0.0912,-0.0522,-0.0456,-0.0376,-0.0231,-0.0192,-0.0209,-0.0244,-0.0266,-0.0277,-0.0269,-0.0228,-0.0162,-0.0099,-0.0047,-0.0025,-0.0016,0,0,0.036,0.0714,0.0986,0.1851,0.2521,0.2472,0.2019,0.1398,0.0981,0.0832,0.0838,0.0895,0.0898,0.0813,0.0357,-0.0033,0,0.0162,0.0486,0.0538,0.0571,0.0676,0.0689,0.0755,0.0931,0.0934,0.0739,0.0291,-0.0036,-0.0071,-0.0071,-0.0003,0.0066,0.0047,-0.0044,-0.0146,-0.0211,-0.0231,-0.0222,-0.0179,-0.011,-0.0038,0.0011,0.0038,0,0,0,0.0198,0.0396,0,0,0,0.0168,0.0393,0.0483,0.0516,0.0508,0.05,0.0467,0.0382,0.0143,-0.0044,0,0.0104,0.028,0.0374,0.0448,0.0574,0.0725,0.0923,0.1137,0.1274,0.1318,0.128,0.1129,0.0964,0.0917,0.095,0.0937,0.0819,0.0602,0.0335,0.0121,-0.0014,-0.0099,-0.0126,-0.0085,0.0003,0.0066,0.0104,0,0,0,0,0,0,0,0.0041,0.0099,0.0173,0.0283,0.0357,0.0368,0.0305,0.0225,0.0195,0.0137,0.0074,0,0.0071,0.022,0.031,0.0376,0.0475,0.0615,0.0816,0.1011,0.1145,0.1173,0.1096,0.1082,0.1176,0.1307,0.1426,0.1486,0.1464,0.1255,0.0909,0.0629,0.0442,0.0291,0.0173,0.0126,0.0173,0.0228,0.0239,0,0,0,0,0,0,0.0033,0.0063,0.006,0.011,0.0211,0.028,0.0294,0.0269,0.0236,0.0239,0.0209,0.0157,0,0.0063,0.017,0.0286,0.0354,0.0448,0.0563,0.0692,0.0808,0.0895,0.0928,0.0945,0.1088,0.1274,0.1417,0.1541,0.1593,0.1634,0.1651,0.1384,0.1014,0.0821,0.0722,0.0623,0.053,0.0522,0.0552,0.0547,0,0,0,0,0,0,0.0036,0.0069,0.0066,0.0093,0.0159,0.0198,0.0206,0.0187,0.0137,0.011,0,0,0,0.0063,0.0187,0.0291,0.0368,0.0467,0.0582,0.0684,0.0733,0.075,0.0794,0.0945,0.1178,0.131,0.1384,0.1489,0.1555,0.1568,0.1659,0.17,0.1368,0.0972,0.0838,0.0816,0.0813,0.0846,0.0909,0.095,0,0,0,0,0,0,0.0025,0.006,0.0077,0.0113,0.0151,0.0151,0.0129,0.0107,0.0063,-0.0016,-0.0058,0,0,0.0085,0.025,0.0382,0.0459,0.053,0.0623,0.0722,0.0769,0.0766,0.0816,0.0945,0.1044,0.1066,0.1112,0.1189,0.128,0.1442,0.1549,0.1681,0.1686,0.1288,0.0912,0.0816,0.0832,0.089,0.0981,0.1066,0,0,0,0,0,0.0014,0.0036,0.0066,0.0099,0.014,0.0165,0.0135,0.0113,0,0.0005,0.0011,0.0014,0,0,0.0132,0.036,0.0549,0.0703,0.0791,0.0824,0.0838,0.0835,0.0802,0.0786,0.0802,0.075,0.0722,0.0775,0.0851,0.0959,0.1145,0.1371,0.1502,0.1659,0.156,0.1121,0.084,0.0791,0.0838,0.0926,0.1,0,0.0041,0.0091,0.0041,0,0.008,0.0118,0.0093,0.0132,0.0187,0.0201,0.0168,0.014,0.0126,0.0102,0.0074,0.0063,0,0.0264,0.0525,0.0558,0.0684,0.0884,0.1077,0.1178,0.1184,0.1126,0.097,0.0783,0.0623,0.0497,0.0483,0.0533,0.0615,0.0728,0.0838,0.0997,0.1148,0.1338,0.1469,0.1203,0.0843,0.0728,0.0742,0.0819,0.0879,0,0.0121,0,0.0047,0.0091,0,0.0027,0.0096,0.0176,0.0233,0.0239,0.0214,0.0184,0.0121,0.0055,0.0022,0.0008,0,0.0148,0.0365,0.0486,0.0618,0.0805,0.0992,0.1123,0.1233,0.1299,0.1165,0.0873,0.0536,0.0313,0.0313,0.0357,0.039,0.0431,0.0459,0.053,0.0673,0.095,0.122,0.1104,0.0791,0.0613,0.0555,0.058,0.0599,0,0.0005,0.0038,0.0074,0.0102,0.0099,0.0074,0.0146,0.0261,0.0308,0.0299,0.0272,0.0198,0.0069,-0.0036,-0.0066,0,0.0327,0.0615,0.0549,0.0527,0.058,0.0678,0.0736,0.0766,0.0876,0.1055,0.1057,0.0816,0.045,0.0236,0.0264,0.0247,0.0201,0.0261,0.0181,0.0099,0.0335,0.0692,0.0912,0.0846,0.0643,0.0492,0.042,0.0352,0.0236,-0.014,-0.0093,0.0069,0.0107,0.0118,0.0096,0.0126,0.0261,0.0365,0.0387,0.0396,0.0368,0.0236,-0.0025,-0.0187,0,0.0313,0.0613,0.058,0.0541,0.0538,0.0588,0.0618,0.0577,0.0519,0.0571,0.0744,0.086,0.0689,0.0371,0.0253,0.0305,0.0261,0.0115,0.0236,0.0387,0.0288,0.0228,0.0354,0.0525,0.0569,0.0525,0.0472,0.0437,0.0302,0.0005,0.006,0.0069,0.0115,0.0121,0.011,0.0143,0.0264,0.0379,0.0439,0.0494,0.0533,0.053,0.0456,0.0398,0,0.0321,0.0643,0.0632,0.0599,0.0569,0.0574,0.0607,0.0613,0.0552,0.0475,0.0519,0.0703,0.0761,0.0585,0.0431,0.0401,0.0448,0.0434,0.0217,0.0244,0.0514,0.0736,0.0629,0.0365,0.0368,0.0459,0.0541,0.0574,0.064,0.0593,0.0266,0.0096,0.0129,0.0151,0.0151,0.0181,0.0247,0.0319,0.042,0.0514,0.0582,0.0648,0.0711,0.0739,0.0923,0.117,0.1093,0.0865,0.0731,0.0654,0.0615,0.0607,0.0607,0.0593,0.0558,0.0508,0.0544,0.0503,0.0308,0.0168,0.0066,0.0118,0.0409,0.0634,0.0511,0.0448,0.0629,0.0838,0.095,0.0596,0.0244,0.0346,0.0555,0.0667,0.0802,0.0799,0.0582,0.0124,0.0151,0.0168,0.0209,0.0277,0.0349,0.0434,0.0552,0.0629,0.0645,0.0676,0.0824,0.092,0.1022,0.1134,0.1052,0.0937,0.0808,0.0711,0.0648,0.0593,0.0549,0.0569,0.0613,0.064,0.0481,0.0192,-0.0049,-0.0261,-0.0176,0.0201,0.0613,0.0871,0.0802,0.0714,0.0764,0.0786,0.0849,0.0445,-0.0071,0.0047,0.0321,0.0585,0.0656,0.0607,0.0665,0.0168,0.0198,0.0239,0.031,0.0412,0.0503,0.0585,0.0753,0.0876,0.0714,0.0549,0,0.0324,0.0794,0.0983,0.1025,0.0945,0.0829,0.0733,0.0629,0.053,0.0514,0.0593,0.0711,0.061,0.0324,0.0236,0.0343,0.0379,0.0516,0.0846,0.103,0.0972,0.078,0.0692,0.0739,0.0783,0.0923,0.0714,-0.0121,-0.0717,-0.0571,0.008,0.0486,0.0544,0.0665,0.0269,0.0338,0.0396,0.047,0.0536,0.0541,0.0467,0.0407,0,0.0211,0.0585,0.0764,0.0813,0.089,0.0978,0.1008,0.0926,0.0827,0.0714,0.0604,0.0574,0.067,0.0744,0.0623,0.047,0.0404,0.0404,0.0618,0.0915,0.1129,0.1167,0.0849,0.0398,0.0275,0.0352,0.047,0.0689,0.0849,0.0948,0.056,-0.0393,-0.0989,-0.0783,-0.0225,0.0187,0.0453,0.0341,0.0428,0.0492,0.053,0.053,0.0505,0.0489,0,0.0143,0.0404,0.067,0.0857,0.0931,0.0992,0.1074,0.1016,0.0915,0.0805,0.0714,0.0706,0.0909,0.1129,0.1261,0.1426,0.1423,0.1145,0.0832,0.0797,0.097,0.12,0.1453,0.1272,0.0602,0.025,0.0319,0.0541,0.0788,0.0868,0.1082,0.1379,0.1486,0.1291,0.0742,0.0464,0.0742,0.1159]},{"header":{"parameterUnit":"m.s-1","parameterCategory":2,"la1":30.5641,"la2":29.4642,"lo1":-89.4342,"lo2":-87.9343,"dx":0.0333,"dy":0.0333,"nx":46,"ny":34,"refTime":"2022-11-04T00:00:00:Z","depth":"4","parameterNumber":3,"parameterNumberName":"V-component_of_CURRENTS"},"data":[0,0,0,0,0,0,0,0,0,0,0,0,0,0,0,0,0,0,0,0,0,0,0,0,0,0,0,0,0,0,0,0,0,0,0,0,0,0,0,0,0,0.0838,0.1,0.0464,-0.1118,0,0,0,0,0,0,0,0,0,0,0,0,0,0,0,0,0,0,0,0,0,0,0,0,0,0,0,0,0,0,0,0,0,0,0,0,0,0,0,0,0,0,0.1296,0.1445,0.0385,-0.1472,0,0,0,0,0,0,0,0,0,0,0,0,0,0,0,0,0,0,0,0,0,0,0,0,0,0,0,0,0,0,0,0,0,0,0,0,0,0,0,0,0,0,0.1953,0.1362,-0.0096,-0.1796,0,0,0,0,0,0,0,0,0,0,0,0,0,0,0,0,0,0,0,0,0,0,0,0,0,0,0,0,0,0,0,0,0,0,0,0,0,0,0,0,0,0,0.1991,0.0618,-0.0769,-0.1876,0,0,0,0,0,0,0,0,0,0,0,0,0,0,0,0,0,0,0,0,0,0,0,0,0,0,0,0,0,0,0,0,0,0,0,0,0,0,0,0,0,0.0253,0.1796,-0.0132,-0.1263,-0.1585,0,0,0,0,0,0,0,0,0,0,0,0,0,0,0,0,0,0,0,0,0,0,0,0,0,0,0,0,0,0,0,0,0,0,0,0,0,0,0,0,0,-0.0242,0.1461,0.017,-0.1217,-0.0956,0,0,0,0,0,0,0,0,0,0,0,0,0.0374,0.0148,0.0008,-0.0049,-0.0063,-0.0088,-0.0162,-0.0316,-0.0753,0,0,0,0,0,0,0,0,0,0,0,0,0.0151,0.0014,-0.0308,0,0,0,0,0,-0.0181,0.0819,0.0824,-0.0689,-0.0431,0,0,0,0,0,0,0,0,0,0.0319,0.017,0.0022,0.0269,0.0118,0.0,-0.0036,-0.0038,-0.0066,-0.0055,-0.0258,-0.0725,-0.0335,-0.0137,0.0055,0.025,-0.0788,-0.1189,0,0,0,0,0.0143,0.0689,0.0283,-0.0077,-0.0478,0,0,0,0,0,-0.0275,0.0478,0.1014,-0.0052,-0.0052,0,0,0,0,0.006,-0.0228,-0.0316,-0.0231,-0.0173,0.0135,-0.0011,-0.0033,0.0066,0.0016,-0.0038,-0.0038,0.0005,-0.0033,0.0066,-0.0228,-0.0527,-0.0396,-0.0261,-0.0151,0.014,-0.0417,-0.07,-0.0277,-0.0244,-0.0272,-0.0121,0.0233,0.0475,0.0154,-0.0357,-0.0821,-0.0439,-0.0041,-0.0577,0.0,0.0,-0.0203,0.0277,0.0898,-0.0074,0.0187,0,0,0,0.0288,0.0063,-0.0148,-0.0272,-0.0261,-0.0198,0.0049,-0.0096,-0.0044,-0.0016,-0.0118,-0.0096,-0.0049,0.0113,-0.0011,-0.0247,-0.0593,-0.0582,-0.0228,-0.0192,-0.0181,0.0016,-0.0022,-0.0104,-0.0137,-0.0247,-0.036,-0.0173,0.0052,0.0082,-0.0272,-0.0618,-0.0492,-0.022,0.0082,-0.0401,0,0,0,-0.045,0.0665,-0.0148,0.006,0,0,0.0371,0.0228,0.0069,-0.0107,-0.0297,-0.0404,-0.0398,-0.0297,0,0,0,-0.0113,-0.0102,-0.0025,0.0104,0,-0.0533,-0.0835,-0.0981,0,0,0,0,0,0,0,-0.0445,-0.0225,-0.0115,-0.0113,-0.0195,-0.0492,-0.0632,0,0,-0.0055,-0.0258,-0.0044,-0.0121,-0.0066,-0.0505,0.0428,0,0,0,0.0286,0.0343,0.014,-0.0005,-0.0162,-0.0258,-0.0558,-0.0492,-0.0659,-0.0478,-0.0439,-0.0593,-0.025,-0.0297,0,0,0.0277,-0.0321,-0.0623,-0.0959,-0.0607,-0.0492,-0.033,-0.0187,-0.0113,0.003,-0.0041,-0.0459,0,0,0,-0.0338,-0.0582,-0.0533,-0.0687,-0.0368,-0.0297,-0.0104,0.0063,-0.0033,-0.0063,0,-0.0003,-0.0198,0.0069,0.0011,0.0143,0.0044,-0.0088,-0.0203,-0.0206,0.019,-0.0305,-0.0211,-0.0736,-0.0783,-0.0656,-0.0634,-0.0258,-0.0151,0.0071,0.0027,0.0168,-0.014,-0.0439,-0.0659,-0.0659,-0.0651,-0.0489,-0.0277,-0.011,0.0,-0.0047,-0.0231,-0.0132,-0.0492,-0.0634,-0.0508,-0.0621,-0.0618,-0.0566,-0.0165,-0.0052,0.0242,0.0203,0.0104,-0.0085,-0.0044,-0.0357,-0.0082,0.0077,0.0058,0,-0.0102,-0.0137,-0.0288,0.0008,0.0269,0,0,-0.0846,-0.0882,-0.0728,-0.0439,0.0047,0.0231,0.0211,0.0228,0.0258,-0.0096,-0.0385,-0.0544,-0.0689,-0.0854,-0.0731,-0.0396,-0.0159,-0.0093,-0.0049,0.0041,0.0069,-0.0321,-0.0291,-0.0258,-0.0288,-0.0437,-0.0338,0.0074,0.0253,0.028,0.0236,0.0201,0.0104,0.0099,-0.006,0.0146,0.0148,0.0198,-0.0753,-0.0461,-0.0107,-0.0137,0.0126,0,0,0,-0.0558,-0.0464,-0.039,-0.0137,0.0104,0.0214,0.0228,0.0283,0.0684,-0.0022,-0.047,-0.0645,-0.0769,-0.0926,-0.0882,-0.05,-0.0275,-0.0275,-0.0214,0.0124,0.0264,-0.0214,-0.0198,-0.0044,-0.0107,-0.0231,-0.0096,0.0129,0.0247,0.0332,0.0368,0.0354,0.0288,0.0247,0.0239,0.0272,0.0291,0.0308,-0.0376,-0.0481,-0.0851,0,0,0,0,0,-0.0277,-0.014,-0.008,-0.0025,0.0019,0.0121,0.0135,0.0233,0.139,0.0005,-0.0821,-0.0824,-0.0873,-0.1003,-0.0931,-0.0634,-0.0426,-0.0654,-0.0695,-0.0099,0.0137,-0.0398,-0.0632,-0.039,-0.0206,-0.0118,0.0003,0.0157,0.0313,0.0401,0.0426,0.0407,0.036,0.0338,0.0321,0.0319,0.033,0.0316,0,0,-0.1461,-0.0819,-0.0637,-0.1115,0,0,-0.0025,0.011,0.0082,0.0022,0.0008,0.011,0.0269,0.0445,0.1458,0,-0.0541,-0.0854,-0.0904,-0.1035,-0.0862,-0.07,-0.0566,-0.0959,-0.1022,-0.0407,-0.0071,-0.0371,-0.0459,-0.0244,-0.0137,-0.006,0.0082,0.0236,0.0357,0.0415,0.0445,0.0439,0.0423,0.039,0.0371,0.0338,0.0332,0.033,0,0,-0.0725,-0.0805,-0.0371,-0.0558,0.0,0.0,-0.0162,-0.0148,-0.0104,-0.0025,0.0069,0.0231,0.0404,0.0522,0.0794,0.0069,0,-0.0665,-0.0733,-0.0813,-0.0692,-0.0634,-0.0588,-0.0868,-0.089,-0.0475,-0.0154,-0.0036,0.0049,0.0137,0.0162,0.0206,0.0288,0.0379,0.0415,0.0428,0.0434,0.0426,0.0423,0.042,0.0417,0.0387,0.0371,0.0368,0,0,0,-0.0396,-0.0047,0,0,0,-0.0401,-0.0434,-0.0277,-0.0093,0.006,0.0214,0.0349,0.0401,0.0407,0.0104,0,-0.0407,-0.0426,-0.047,-0.0503,-0.05,-0.0505,-0.0621,-0.0607,-0.0412,-0.0253,0.0022,0.0165,0.0266,0.0305,0.031,0.0319,0.0357,0.0401,0.0426,0.0415,0.042,0.0445,0.0481,0.0497,0.0486,0.0437,0.042,0,0,0,0,0,0,0,-0.011,-0.0195,-0.0211,-0.0151,-0.0047,0.0069,0.0179,0.0283,0.0302,0.0184,0.0121,0,-0.0195,-0.0115,-0.0203,-0.0319,-0.0352,-0.039,-0.0434,-0.0417,-0.0385,-0.0335,-0.0113,0.0168,0.0319,0.0332,0.0269,0.0159,0.0077,0.0162,0.0319,0.0396,0.042,0.0483,0.0569,0.0634,0.061,0.0533,0.0475,0,0,0,0,0,0,-0.008,-0.0107,-0.0107,-0.0102,-0.0074,0.0016,0.0135,0.0225,0.0288,0.031,0.0049,0.0049,0,0.0025,0.0082,-0.0011,-0.0137,-0.0206,-0.0266,-0.0305,-0.0297,-0.0321,-0.0283,0.0102,0.039,0.0428,0.0379,0.0242,0.0047,-0.0184,-0.0253,0.0027,0.0321,0.0423,0.0497,0.0615,0.0725,0.0709,0.0615,0.0544,0,0,0,0,0,0,-0.0096,-0.0132,-0.0118,-0.011,-0.0069,0.0014,0.0124,0.0143,0.0236,0.0283,0,0,0,0.0233,0.0233,0.0157,0.0044,-0.0047,-0.0118,-0.0176,-0.0181,-0.0244,-0.0027,0.045,0.0591,0.0503,0.0385,0.0184,-0.0019,-0.0236,-0.0555,-0.0439,0.0058,0.0428,0.0552,0.064,0.0744,0.0739,0.0665,0.0602,0,0,0,0,0,0,-0.0126,-0.0184,-0.017,-0.0151,-0.0099,0.0014,0.0096,0.0038,0.0162,0.0179,0.0019,0,0,0.0412,0.0415,0.0354,0.0253,0.0126,0.0016,-0.0058,-0.0093,-0.0143,0.036,0.0678,0.0623,0.047,0.0338,0.0146,-0.0044,-0.0198,-0.0489,-0.0753,-0.0401,0.0294,0.0651,0.072,0.0769,0.0753,0.0692,0.064,0,0,0,0,0,-0.0124,-0.0157,-0.0225,-0.0228,-0.0195,-0.0121,0.0,0.0033,0,0.0096,0.0104,0.0003,0,0,0.0613,0.064,0.0613,0.0525,0.0357,0.0179,0.006,-0.003,0.0025,0.0591,0.0637,0.0489,0.0341,0.0269,0.0148,0.0019,-0.0162,-0.0324,-0.0681,-0.0731,-0.0038,0.0618,0.0791,0.0805,0.0772,0.0736,0.0698,0,-0.0143,0.0,0.0022,0,-0.006,-0.0222,-0.028,-0.0275,-0.0225,-0.0102,-0.003,-0.003,-0.0003,0.0049,0.0077,-0.0036,0,0.0505,0.0736,0.0813,0.0838,0.0794,0.061,0.0382,0.019,0.0027,0.0162,0.053,0.0434,0.0286,0.0233,0.0233,0.0233,0.0179,-0.0044,-0.0253,-0.0505,-0.0758,-0.033,0.0461,0.0783,0.0813,0.0813,0.0813,0.0794,0,-0.0228,0,0.0005,-0.0124,0,-0.0283,-0.033,-0.0302,-0.0201,-0.0093,-0.0066,-0.0066,-0.0036,0.0014,-0.0027,-0.0027,0,0.0681,0.0846,0.0928,0.095,0.0901,0.0717,0.0483,0.0242,0.0036,0.0162,0.0294,0.019,0.0085,0.0143,0.0233,0.0382,0.0398,0.0115,-0.0217,-0.0494,-0.0717,-0.0354,0.0396,0.0717,0.0772,0.0835,0.0865,0.0813,0,-0.039,-0.0058,-0.0027,-0.0137,-0.0258,-0.0299,-0.0338,-0.0272,-0.0143,-0.0113,-0.014,-0.0162,-0.0146,-0.0132,-0.0055,0,0.0648,0.0827,0.0934,0.0964,0.0926,0.0846,0.0711,0.0514,0.0275,0.0052,0.0099,0.0011,-0.0066,-0.008,0.0019,0.0209,0.053,0.0571,0.0121,-0.0203,-0.0456,-0.0464,-0.0033,0.0448,0.0613,0.0695,0.0805,0.0772,0.0593,-0.025,-0.0316,-0.0027,-0.0074,-0.0209,-0.0275,-0.0313,-0.028,-0.0157,-0.0113,-0.0173,-0.0294,-0.0434,-0.0483,-0.0135,0,0.0602,0.0665,0.0797,0.0898,0.0901,0.0854,0.0797,0.0722,0.0588,0.0426,0.0261,0.0063,-0.0179,-0.025,-0.022,-0.0148,0.014,0.0665,0.0665,0.0115,-0.0146,-0.0173,0.0099,0.0352,0.0481,0.0511,0.0643,0.0684,0.0398,0.0157,-0.0275,-0.0143,-0.0019,-0.0129,-0.0319,-0.0327,-0.0239,-0.0104,-0.006,-0.0124,-0.0258,-0.0442,-0.0673,-0.0909,0,0.0602,0.064,0.0689,0.0791,0.0846,0.084,0.0813,0.0783,0.0728,0.0643,0.058,0.0409,0.0049,-0.0159,-0.0283,-0.0277,-0.0258,0.0071,0.0692,0.0714,0.0302,-0.0313,0.0085,0.0593,0.056,0.045,0.045,0.0648,0.0428,-0.0195,-0.0316,-0.0302,-0.0126,-0.0071,-0.0203,-0.0368,-0.0288,-0.0055,0.0063,-0.0011,-0.0151,-0.0302,-0.0464,-0.0667,-0.0904,-0.0085,0.0453,0.058,0.0676,0.0753,0.0788,0.0797,0.0791,0.0777,0.0714,0.0629,0.0541,0.0286,-0.0038,-0.0192,-0.0426,-0.0415,-0.0272,0.0027,0.0621,0.0692,0.0415,-0.0533,0.0052,0.0786,0.0681,0.047,0.0516,0.0591,-0.0071,-0.0717,-0.0659,-0.0308,-0.0173,-0.0146,-0.0247,-0.0305,-0.0135,0.0113,0.0173,-0.0058,-0.0217,-0.0264,-0.0217,-0.067,-0.0613,-0.0102,0.0233,0.0464,0.0615,0.0687,0.0728,0.075,0.078,0.0775,0.0632,0.0409,0.0297,0.0093,-0.0214,-0.0352,-0.0549,0.0008,0.0385,0.0396,0.0687,0.0569,0.0239,-0.0574,-0.0236,0.0588,0.0772,0.0684,0.0775,0.0258,-0.0516,-0.086,-0.0887,-0.0324,-0.0242,-0.0206,-0.0228,-0.0192,-0.0033,0.0179,0.0277,-0.0058,-0.0514,-0.0566,0,-0.0374,-0.0305,-0.0071,0.0179,0.0423,0.0549,0.0602,0.0645,0.0698,0.0731,0.064,0.0428,0.0264,0.0151,0.0005,-0.0277,-0.0294,0.0082,0.0711,0.1296,0.1025,0.0813,0.0316,-0.0082,-0.0519,-0.0313,0.0222,0.0709,0.0849,0.0742,-0.0187,-0.0634,-0.0945,-0.142,-0.0305,-0.0291,-0.0236,-0.0201,-0.0137,-0.0063,0.0019,0.0165,0,-0.0492,-0.067,-0.0091,-0.0008,-0.0047,0.0041,0.0261,0.0415,0.0475,0.0492,0.0552,0.0626,0.0577,0.0533,0.0483,0.0396,0.0225,0.0104,-0.0137,-0.0025,0.0648,0.0882,0.1456,0.117,0.07,0.0165,-0.0299,-0.0439,0.0027,0.0143,0.0159,0.0456,0.0585,-0.0151,-0.064,-0.1088,-0.1489,-0.0316,-0.0288,-0.025,-0.022,-0.0187,-0.0203,-0.0426,0,0.0179,-0.0093,-0.0255,-0.0044,0.0044,0.003,0.0168,0.0343,0.0393,0.0363,0.0363,0.0508,0.07,0.0871,0.0978,0.0948,0.0711,0.0461,0.028,0.0121,0.0313,0.07,0.0898,0.1101,0.0994,0.0626,0.0242,-0.0305,-0.0332,0.0198,0.0165,-0.0154,0.0074,0.0321,-0.0066,-0.0527,-0.0862,-0.0758]}],[{"header":{"parameterUnit":"m.s-1","parameterCategory":2,"la1":30.5641,"la2":29.4642,"lo1":-89.4342,"lo2":-87.9343,"dx":0.0333,"dy":0.0333,"nx":46,"ny":34,"refTime":"2022-11-04T00:00:00:Z","depth":"6","parameterNumber":2,"parameterNumberName":"U-component_of_CURRENTS"},"data":[0,0,0,0,0,0,0,0,0,0,0,0,0,0,0,0,0,0,0,0,0,0,0,0,0,0,0,0,0,0,0,0,0,0,0,0,0,0,0,0,0,0.0475,0.0967,0.0978,0.0602,0,0,0,0,0,0,0,0,0,0,0,0,0,0,0,0,0,0,0,0,0,0,0,0,0,0,0,0,0,0,0,0,0,0,0,0,0,0,0,0,0,0,0.0352,0.0824,0.0654,0.0047,0,0,0,0,0,0,0,0,0,0,0,0,0,0,0,0,0,0,0,0,0,0,0,0,0,0,0,0,0,0,0,0,0,0,0,0,0,0,0,0,0,0,0.0299,0.0494,-0.0033,-0.0483,0,0,0,0,0,0,0,0,0,0,0,0,0,0,0,0,0,0,0,0,0,0,0,0,0,0,0,0,0,0,0,0,0,0,0,0,0,0,0,0,0,0,0.1038,0.0953,-0.0093,-0.0486,0,0,0,0,0,0,0,0,0,0,0,0,0,0,0,0,0,0,0,0,0,0,0,0,0,0,0,0,0,0,0,0,0,0,0,0,0,0,0,0,0,-0.0025,0.0456,0.0494,-0.0233,-0.0294,0,0,0,0,0,0,0,0,0,0,0,0,0,0,0,0,0,0,0,0,0,0,0,0,0,0,0,0,0,0,0,0,0,0,0,0,0,0,0,0,0,-0.0236,0.0115,0.0577,0.0195,-0.0011,0,0,0,0,0,0,0,0,0,0,0,0,0.0203,0.0505,0.0637,0.0678,0.0698,0.07,0.0676,0.0593,0.0525,0,0,0,0,0,0,0,0,0,0,0,0,0.0168,0.0316,0.0297,0,0,0,0,0,-0.0242,-0.0184,0.058,0.0678,0.0404,0,0,0,0,0,0,0,0,0,0.0211,0.0544,0.0692,0.0643,0.0566,0.0574,0.0582,0.0585,0.0621,0.0709,0.0761,0.0733,0.0648,0.0673,0.0893,0.1252,0.1134,0.0777,0,0,0,0,0.0132,0.0577,0.0805,0.0541,0.0371,0,0,0,0,0,-0.0121,-0.0343,0.0096,0.0151,0.0071,0,0,0,0,0.0025,0.0137,0.0222,0.0343,0.0615,0.0733,0.0681,0.0648,0.0613,0.0577,0.053,0.0483,0.0497,0.0637,0.0764,0.0714,0.0703,0.0709,0.0549,0.0266,0.0242,0.0676,0.0623,0.0206,0.0294,0.0387,0.0374,0.0434,0.0286,-0.0047,-0.014,0.014,0.0401,0.0689,0.0846,0.0549,0.0305,-0.0041,-0.0209,0.0135,-0.0135,-0.0547,0,0,0,-0.0093,-0.0091,0.008,0.0168,0.0209,0.0349,0.0549,0.0656,0.0665,0.0607,0.0525,0.0439,0.0404,0.0486,0.0728,0.0722,0.0343,0.0036,0.0088,0.0352,0.0577,0.0505,0.0299,0.0332,0.0343,0.0324,0.0327,0.0275,0.0206,0.0091,-0.008,-0.0217,-0.008,0.0176,0.0621,0.0961,0,0,0,-0.0008,0.0082,-0.0093,-0.0269,0,0,-0.0049,-0.0071,0.0069,0.0184,0.0214,0.0239,0.0184,0.0129,0,0,0,0.0102,0.025,0.0299,0.0302,0,0.0247,0.0508,0.0522,0,0,0,0,0,0,0,-0.0052,-0.0008,0.0154,0.022,0.0266,0.0231,0.0151,0,0,0.0044,0.0085,0.0016,0.0173,0.05,0.0577,0.0555,0,0,0,-0.0077,-0.0019,0.0143,0.0085,0.0055,0.0184,0.0283,0.039,0.0549,0.0533,0.0437,0.0415,0.0371,0.0321,0,0,0.022,0.0621,0.0766,0.0692,0.0593,0.0157,-0.0244,-0.0368,-0.0357,-0.0332,-0.0126,-0.0022,0,0,0,0.0047,0.0099,-0.0055,-0.0077,-0.0203,-0.0052,-0.003,0.017,0.0299,0.0412,0,-0.0258,-0.0374,-0.0176,-0.0113,0.0797,0.0472,0.0277,0.0093,-0.0016,0.0162,0.0412,0.0593,0.0736,0.0533,0.0231,0.0143,0.0321,0.0486,0.0574,0.0747,0.0772,0.0744,0.0777,0.0835,0.0821,0.064,0.0299,-0.0003,-0.0154,-0.0291,-0.0324,-0.0143,-0.0011,-0.003,-0.0082,-0.006,-0.0027,-0.0052,-0.0093,-0.0137,-0.0173,-0.0071,0.0091,0.0121,0.0019,0.0044,0.0071,-0.0036,-0.0107,-0.0102,0,-0.0093,-0.0104,-0.0022,-0.0088,-0.0151,0,0,0.0022,0.0091,0.0146,0.0302,0.0571,0.072,0.0835,0.0948,0.1041,0.1118,0.1148,0.1068,0.0956,0.0802,0.0659,0.0497,0.0357,0.0255,0.0033,-0.0124,-0.0014,0.0093,-0.0005,-0.0154,-0.0179,-0.0181,-0.0124,-0.0104,-0.0184,-0.0217,-0.0195,-0.0154,-0.0168,-0.0154,-0.011,-0.0107,-0.0132,-0.0124,0.1003,0.0541,0.0066,-0.0063,-0.0063,0,0,0,-0.0104,-0.0005,0.0398,0.072,0.0887,0.0884,0.0854,0.1005,0.131,0.1439,0.142,0.1255,0.1066,0.0882,0.0736,0.056,0.0385,0.0401,0.017,-0.0214,-0.003,0.0308,0.0382,0.0363,0.0242,0.0069,-0.0049,-0.0096,-0.0162,-0.0264,-0.0288,-0.0233,-0.0162,-0.0107,-0.0077,-0.0063,-0.0071,-0.008,0.0058,0.0352,0.0596,0,0,0,0,0,-0.0146,0.0003,0.0472,0.0695,0.0687,0.0634,0.0648,0.0816,0.1316,0.1579,0.1346,0.1165,0.1014,0.0854,0.072,0.0574,0.0291,0.0269,0.019,-0.0275,-0.0365,-0.0157,0.0011,0.0168,0.0195,0.0102,-0.0011,-0.008,-0.0146,-0.0206,-0.0239,-0.0236,-0.0184,-0.0115,-0.0074,-0.0052,-0.0049,-0.006,0,0,0.0113,0.0055,0.0162,0.0461,0,0,-0.0209,-0.0014,0.0527,0.0626,0.0599,0.0552,0.0503,0.0514,0.0527,0,0.0374,0.075,0.0755,0.0717,0.0667,0.0651,0.0442,0.0327,0.0332,-0.0283,-0.0901,-0.0797,-0.0439,-0.0376,-0.0308,-0.0179,-0.0143,-0.0157,-0.0187,-0.0206,-0.0217,-0.0211,-0.0181,-0.0132,-0.0082,-0.0044,-0.003,-0.0038,0,0,0.0277,0.0486,0.0519,0.0956,0.1173,0.0862,0.0651,0.0637,0.0593,0.0497,0.0472,0.0464,0.0415,0.0302,0.0055,-0.0107,0,0.0148,0.0385,0.0516,0.0593,0.07,0.0706,0.0764,0.0901,0.089,0.0717,0.0302,-0.0008,-0.0047,-0.0047,0.0016,0.0082,0.0069,-0.0011,-0.0099,-0.0157,-0.0176,-0.017,-0.0137,-0.0082,-0.0027,0.0008,0.0022,0,0,0,0.0025,0.0052,0,0,0,0.0069,0.0179,0.0225,0.025,0.0264,0.0272,0.0242,0.0157,0.0019,-0.0074,0,0.0104,0.0247,0.0385,0.0522,0.0615,0.0736,0.0915,0.1112,0.1239,0.1274,0.1225,0.1088,0.0942,0.0895,0.0912,0.0884,0.0769,0.0574,0.0338,0.0146,0.0022,-0.0058,-0.0088,-0.0055,0.0016,0.0069,0.0093,0,0,0,0,0,0,0,0.0058,0.0063,0.0055,0.011,0.0124,0.0126,0.0146,0.0151,0.0124,0.0082,0.0058,0,0.0085,0.0181,0.0357,0.0437,0.0519,0.064,0.0824,0.1014,0.1151,0.1181,0.1118,0.1101,0.1181,0.1294,0.139,0.1423,0.1376,0.1173,0.0862,0.061,0.0434,0.0294,0.0181,0.0132,0.0168,0.0209,0.0217,0,0,0,0,0,0,0.0036,0.0058,0.0036,0.0044,0.0074,0.0091,0.0113,0.0137,0.0162,0.022,0.0211,0.0162,0,0.0088,0.0203,0.0313,0.0396,0.0492,0.0599,0.0714,0.0827,0.0915,0.0945,0.0967,0.1107,0.1288,0.142,0.1522,0.1544,0.1544,0.1527,0.1288,0.097,0.0799,0.0703,0.0604,0.0508,0.0489,0.0503,0.0492,0,0,0,0,0,0,0.0036,0.0036,0.0003,0.0019,0.0058,0.0093,0.0118,0.0102,0.0071,0.0069,0,0,0,0.0091,0.0217,0.0316,0.0404,0.05,0.0607,0.0703,0.075,0.0769,0.0813,0.097,0.1203,0.1338,0.1409,0.1491,0.1533,0.1508,0.1533,0.1541,0.1266,0.0939,0.0829,0.0805,0.0794,0.0813,0.0854,0.0884,0,0,0,0,0,0,0.0011,-0.0011,-0.0033,-0.0008,0.003,0.0071,0.0129,0.011,0.0027,-0.0019,-0.0044,0,0,0.0088,0.025,0.039,0.0486,0.0563,0.0648,0.0736,0.078,0.0783,0.084,0.0981,0.109,0.1121,0.1156,0.1214,0.1288,0.1415,0.1469,0.1538,0.1533,0.1209,0.0893,0.0813,0.0829,0.0873,0.0948,0.1019,0,0,0,0,0,0.0008,-0.0016,-0.006,-0.0063,-0.0041,0.0,0.0041,0.0058,0,0.0011,0.0025,0.0025,0,0,0.0121,0.0335,0.0519,0.0681,0.0786,0.0829,0.0846,0.0843,0.0819,0.0821,0.0854,0.0816,0.0786,0.0821,0.089,0.0994,0.1162,0.1338,0.142,0.1546,0.1464,0.1082,0.0835,0.0791,0.0832,0.0906,0.0972,0,0.003,0.0121,0.0113,0,0.0055,0.0016,-0.0082,-0.008,-0.0049,0.0011,0.0074,0.0129,0.0151,0.0129,0.0088,0.0074,0,0.0261,0.0505,0.0527,0.0643,0.0832,0.1025,0.1137,0.1156,0.111,0.0978,0.0819,0.0687,0.0571,0.0544,0.0582,0.0662,0.0769,0.0879,0.1025,0.1143,0.1294,0.1415,0.1176,0.0846,0.0733,0.0744,0.081,0.0862,0,0.0104,0,-0.0003,-0.0003,0,-0.0038,-0.0099,-0.0088,-0.0016,0.006,0.0124,0.0157,0.0129,0.0091,0.0058,0.003,0,0.0146,0.036,0.0475,0.0588,0.0764,0.0953,0.1093,0.1203,0.1269,0.1162,0.0904,0.0599,0.0385,0.0365,0.0398,0.0431,0.047,0.0503,0.0577,0.07,0.0953,0.1214,0.1107,0.0802,0.0623,0.0563,0.0585,0.0596,0,-0.0011,0.0038,0.0052,0.0058,0.006,-0.0038,-0.0091,-0.0038,0.006,0.0124,0.011,0.0077,0.0077,0.0025,-0.0036,0,0.0313,0.0588,0.053,0.0508,0.0544,0.064,0.0725,0.078,0.0893,0.1063,0.1066,0.0849,0.0516,0.0299,0.0308,0.0286,0.0244,0.0299,0.0211,0.0143,0.0379,0.0728,0.0942,0.0873,0.0662,0.0505,0.0428,0.036,0.0244,-0.0022,0.0005,0.0041,0.008,0.006,-0.0003,-0.0052,-0.0025,0.0088,0.0181,0.017,0.0099,0.0038,-0.0038,-0.0093,0,0.0299,0.058,0.0558,0.053,0.0516,0.0547,0.0588,0.0577,0.0538,0.0596,0.0766,0.0879,0.0728,0.0437,0.0316,0.0341,0.0291,0.017,0.028,0.0393,0.0297,0.0264,0.0396,0.0563,0.0593,0.0541,0.0483,0.0437,0.0297,0.0008,-0.0005,0.0074,0.0096,0.0096,0.0049,-0.0008,0.0014,0.0137,0.0266,0.0288,0.0236,0.0198,0.0225,0.0266,0,0.0294,0.0593,0.0591,0.0577,0.0549,0.0547,0.0571,0.0588,0.0552,0.0494,0.0541,0.0717,0.0777,0.0618,0.0478,0.0448,0.0472,0.0453,0.0264,0.0302,0.0519,0.0709,0.0632,0.0398,0.0409,0.0489,0.0555,0.0582,0.0626,0.0552,0.0233,0.0049,0.0093,0.0082,0.0033,-0.0016,0.0016,0.019,0.0335,0.0374,0.0357,0.0338,0.0379,0.0489,0.075,0.0981,0.0923,0.0755,0.0678,0.0623,0.0588,0.058,0.0585,0.0582,0.056,0.0525,0.0571,0.0538,0.0349,0.0217,0.0124,0.0173,0.0445,0.0659,0.0552,0.0511,0.0656,0.0829,0.0948,0.0629,0.0299,0.0387,0.058,0.0676,0.0777,0.0747,0.0489,0.0049,0.0085,0.0063,0.0019,0.0049,0.0201,0.0365,0.0464,0.0456,0.0401,0.0437,0.0591,0.0681,0.0777,0.0887,0.084,0.0802,0.0747,0.0676,0.0623,0.058,0.0549,0.0577,0.0618,0.0654,0.0514,0.0225,-0.0008,-0.0209,-0.0137,0.0231,0.0654,0.0917,0.086,0.078,0.081,0.0794,0.0846,0.047,-0.0016,0.0107,0.0368,0.0599,0.0645,0.0591,0.058,0.0077,0.0118,0.0118,0.014,0.0233,0.0376,0.0483,0.0563,0.0607,0.0475,0.0346,0,0.0211,0.0555,0.072,0.0794,0.0821,0.0775,0.07,0.0615,0.0538,0.0536,0.0613,0.0725,0.064,0.0363,0.0261,0.0343,0.0379,0.0527,0.0854,0.1049,0.1022,0.0843,0.0755,0.0788,0.0805,0.0926,0.0731,-0.0074,-0.0637,-0.0489,0.011,0.0486,0.0547,0.0607,0.0124,0.0236,0.0297,0.0321,0.0363,0.0417,0.0346,0.0258,0,0.0129,0.039,0.0549,0.0588,0.0629,0.0695,0.0813,0.084,0.0788,0.0703,0.0618,0.0602,0.0687,0.0761,0.0643,0.0494,0.0439,0.0439,0.0621,0.0898,0.111,0.1145,0.086,0.0448,0.0332,0.0404,0.0511,0.0709,0.0862,0.0931,0.0519,-0.0404,-0.0959,-0.0733,-0.0184,0.0206,0.0453,0.0132,0.0242,0.0321,0.0346,0.0354,0.0327,0.0299,0,0.0137,0.0316,0.0448,0.0555,0.0607,0.0632,0.0799,0.0895,0.0873,0.0799,0.0728,0.0722,0.0923,0.1132,0.1241,0.1373,0.1362,0.1118,0.0846,0.0821,0.0989,0.1206,0.1409,0.1189,0.0547,0.0242,0.0332,0.0536,0.0733,0.0786,0.0994,0.1291,0.1395,0.1222,0.0709,0.0453,0.0722,0.1121]},{"header":{"parameterUnit":"m.s-1","parameterCategory":2,"la1":30.5641,"la2":29.4642,"lo1":-89.4342,"lo2":-87.9343,"dx":0.0333,"dy":0.0333,"nx":46,"ny":34,"refTime":"2022-11-04T00:00:00:Z","depth":"6","parameterNumber":3,"parameterNumberName":"V-component_of_CURRENTS"},"data":[0,0,0,0,0,0,0,0,0,0,0,0,0,0,0,0,0,0,0,0,0,0,0,0,0,0,0,0,0,0,0,0,0,0,0,0,0,0,0,0,0,0.0832,0.0365,-0.0445,-0.1222,0,0,0,0,0,0,0,0,0,0,0,0,0,0,0,0,0,0,0,0,0,0,0,0,0,0,0,0,0,0,0,0,0,0,0,0,0,0,0,0,0,0,0.0956,0.0621,-0.089,-0.1766,0,0,0,0,0,0,0,0,0,0,0,0,0,0,0,0,0,0,0,0,0,0,0,0,0,0,0,0,0,0,0,0,0,0,0,0,0,0,0,0,0,0,0.1236,0.0255,-0.1129,-0.1733,0,0,0,0,0,0,0,0,0,0,0,0,0,0,0,0,0,0,0,0,0,0,0,0,0,0,0,0,0,0,0,0,0,0,0,0,0,0,0,0,0,0,0.1266,-0.0338,-0.1209,-0.1393,0,0,0,0,0,0,0,0,0,0,0,0,0,0,0,0,0,0,0,0,0,0,0,0,0,0,0,0,0,0,0,0,0,0,0,0,0,0,0,0,0,0.0656,0.1351,-0.0516,-0.1025,-0.0953,0,0,0,0,0,0,0,0,0,0,0,0,0,0,0,0,0,0,0,0,0,0,0,0,0,0,0,0,0,0,0,0,0,0,0,0,0,0,0,0,0,0.0448,0.1395,0.0077,-0.0656,-0.0591,0,0,0,0,0,0,0,0,0,0,0,0,0.033,0.0118,0.0005,-0.0044,-0.0052,-0.0069,-0.0088,-0.0242,-0.0549,0,0,0,0,0,0,0,0,0,0,0,0,-0.0033,-0.0511,-0.0613,0,0,0,0,0,0.0681,0.0939,0.0742,-0.0382,-0.0244,0,0,0,0,0,0,0,0,0,0.0308,0.019,0.0159,0.0286,0.0126,0.0011,-0.0019,-0.0005,-0.003,-0.0113,-0.0379,-0.061,-0.0516,-0.047,-0.0277,-0.0069,-0.0107,0.0069,0,0,0,0,0.0033,0.0016,-0.0299,-0.0659,-0.0967,0,0,0,0,0,0.0698,0.0961,0.0714,-0.0335,-0.0074,0,0,0,0,0.0077,0.0047,-0.0041,-0.0104,-0.0058,0.022,0.011,0.0085,0.0113,0.0041,-0.0022,-0.0005,0.0044,-0.0041,-0.0146,-0.0569,-0.0739,-0.0618,-0.0544,-0.0423,-0.019,-0.0074,0.0005,-0.0126,-0.0176,-0.0291,-0.0349,-0.0085,0.0011,-0.0448,-0.0632,-0.0915,0.0302,0.0113,-0.0055,0.0,0.0,0.0371,0.0824,0.0203,-0.0519,-0.0217,0,0,0,0.0536,0.0343,0.0233,0.0162,0.0211,0.0165,0.0132,0.0014,0.0005,-0.0008,-0.0124,-0.0107,-0.0058,0.0099,-0.0044,-0.0286,-0.0689,-0.07,-0.0363,-0.0313,-0.0286,-0.0154,-0.0022,-0.0027,-0.0063,-0.019,-0.0319,-0.0286,-0.0132,-0.0005,-0.0316,-0.0374,-0.0228,0.0151,-0.0096,-0.0088,0,0,0,0.025,0.039,-0.0294,-0.0137,0,0,0.084,0.0731,0.0555,0.0409,0.0483,0.0549,0.0439,-0.0036,0,0,0,-0.0113,-0.0052,-0.0052,0.0077,0,-0.0365,-0.0516,-0.0566,0,0,0,0,0,0,0,-0.0349,-0.0173,-0.011,-0.0033,-0.0063,-0.0294,-0.0275,0,0,-0.0179,-0.0044,0.0022,0.0041,0.0305,0.0038,0.0934,0,0,0,0.0673,0.0805,0.0599,0.0428,0.0549,0.0698,0.0398,0.0151,-0.0288,-0.0522,-0.0332,-0.0159,0.0124,0.0088,0,0,0.0168,-0.0228,-0.0327,-0.0516,-0.0409,-0.0555,-0.036,-0.0247,-0.0104,-0.0022,-0.0041,-0.025,0,0,0,-0.0088,-0.0231,-0.0132,-0.0404,-0.0376,-0.0044,-0.0052,0.0104,0.0107,0.0294,0,0.0613,0.014,0.0,-0.0014,0.0338,0.0437,0.0211,0.0321,0.0689,0.0904,0.011,-0.0102,-0.0453,-0.047,-0.0294,-0.0201,-0.0085,-0.0157,-0.0343,-0.0104,0.0159,-0.006,-0.0286,-0.0483,-0.0494,-0.0623,-0.0505,-0.0343,-0.0198,-0.0082,-0.0049,-0.0069,-0.0192,-0.0316,-0.0371,-0.0179,-0.0387,-0.0346,-0.0483,-0.0365,-0.0146,0.0069,0.0162,0.0096,0.0091,-0.0198,-0.003,-0.0005,-0.0003,0.0,0,0.014,0.0321,0.028,0.0654,0.0505,0,0,-0.0566,-0.0596,-0.0516,-0.0519,-0.0536,-0.045,-0.0352,-0.0206,0.0044,-0.0049,-0.0277,-0.045,-0.0574,-0.0698,-0.0689,-0.0516,-0.0321,-0.0233,-0.0253,-0.0074,-0.0187,-0.0456,-0.0415,-0.0332,-0.0475,-0.0494,-0.047,-0.0187,0.0041,0.0118,0.0102,0.0052,-0.006,-0.017,-0.0168,-0.0063,-0.0022,0.0,-0.0678,-0.0118,0.0192,0.0137,0.0308,0,0,0,-0.0505,-0.0632,-0.0678,-0.067,-0.0519,-0.0305,-0.0154,-0.0041,0.0277,-0.0093,-0.0385,-0.0552,-0.0684,-0.0761,-0.0761,-0.0689,-0.0445,-0.0525,-0.0431,-0.0022,0.0033,-0.0552,-0.0448,-0.0354,-0.0368,-0.0428,-0.0291,-0.006,0.0074,0.0154,0.0179,0.0121,0.0014,-0.003,-0.0033,0.0005,0.003,0.006,-0.0338,-0.0203,-0.0681,0,0,0,0,0,-0.0481,-0.0305,-0.0409,-0.0407,-0.025,-0.0066,0.0261,0.0494,0.1228,-0.0049,-0.0634,-0.072,-0.0794,-0.0838,-0.0824,-0.0813,-0.0582,-0.0857,-0.0884,-0.0247,-0.0019,-0.0593,-0.0728,-0.0621,-0.0417,-0.0302,-0.017,-0.0016,0.0129,0.0209,0.0231,0.0206,0.0146,0.0104,0.0091,0.0085,0.0093,0.0096,0,0,-0.0926,0.0195,0.0294,-0.1096,0,0,-0.0269,0.0093,-0.0085,-0.0132,-0.0011,0.0195,0.0459,0.0717,0.1371,0,-0.0398,-0.0755,-0.0808,-0.0854,-0.0873,-0.0926,-0.0733,-0.1151,-0.1198,-0.0555,-0.0214,-0.0549,-0.0648,-0.042,-0.0305,-0.0233,-0.0099,0.0047,0.0165,0.022,0.025,0.0239,0.0214,0.0181,0.0148,0.0121,0.0113,0.0107,0,0,-0.0297,0.0302,0.0514,-0.0547,0.0,0.0,0.0093,0.0022,-0.008,-0.0027,0.0041,0.0206,0.0346,0.0511,0.0607,0.003,0,-0.0607,-0.067,-0.0775,-0.0838,-0.0865,-0.0769,-0.1046,-0.1082,-0.0676,-0.0346,-0.0214,-0.0129,-0.0041,-0.0022,0.0008,0.008,0.0168,0.0209,0.0231,0.0239,0.0233,0.0231,0.0225,0.0209,0.0181,0.0159,0.0154,0,0,0,0.0206,0.0365,0,0,0,0.0033,-0.0187,-0.0137,-0.0022,0.0096,0.0206,0.0261,0.0269,0.0198,0.0071,0,-0.0409,-0.0478,-0.0637,-0.07,-0.0681,-0.0687,-0.0813,-0.0819,-0.064,-0.0483,-0.0201,-0.0047,0.0055,0.0085,0.008,0.0077,0.0118,0.0168,0.0209,0.0211,0.0225,0.025,0.0283,0.0302,0.0277,0.0239,0.0214,0,0,0,0,0,0,0,-0.0115,-0.0096,-0.0071,-0.003,0.0019,0.0091,0.0173,0.0201,0.0179,0.0052,0.0088,0,-0.0244,-0.0299,-0.0445,-0.0492,-0.05,-0.0555,-0.0618,-0.0618,-0.0591,-0.0541,-0.0313,-0.0038,0.0099,0.0091,0.0011,-0.0107,-0.019,-0.0096,0.0077,0.0173,0.0211,0.0277,0.0365,0.0431,0.0409,0.0332,0.0283,0,0,0,0,0,0,-0.0088,-0.0104,-0.0069,-0.0033,-0.0016,0.0,0.0,0.0058,0.0126,0.0184,0.0011,0.0033,0,-0.0102,-0.0124,-0.0195,-0.0269,-0.0338,-0.0415,-0.0472,-0.0472,-0.0497,-0.0459,-0.0088,0.0179,0.0198,0.0124,-0.0033,-0.0239,-0.0475,-0.0533,-0.0236,0.0074,0.0201,0.0283,0.0404,0.0514,0.05,0.0415,0.0349,0,0,0,0,0,0,-0.0102,-0.0093,-0.0052,-0.003,-0.0014,0.0003,-0.0005,0.0016,0.011,0.0168,0,0,0,0.0027,0.0038,-0.0005,-0.0102,-0.019,-0.0272,-0.0341,-0.0349,-0.0409,-0.0201,0.0253,0.0363,0.0261,0.0126,-0.008,-0.0297,-0.053,-0.0854,-0.0725,-0.0209,0.019,0.0332,0.0428,0.0533,0.053,0.0461,0.0404,0,0,0,0,0,0,-0.0132,-0.0104,-0.0071,-0.0058,-0.0049,-0.0033,-0.0025,-0.0016,0.0033,0.0047,-0.0036,0,0,0.0179,0.0209,0.0159,0.0063,-0.0049,-0.0157,-0.0233,-0.0269,-0.0316,0.0168,0.0461,0.039,0.0225,0.0096,-0.0091,-0.0288,-0.0467,-0.0791,-0.106,-0.0684,0.0036,0.0423,0.0511,0.0563,0.0547,0.0492,0.0442,0,0,0,0,0,-0.0137,-0.0159,-0.0132,-0.0113,-0.0113,-0.0115,-0.0126,-0.011,0,-0.0052,-0.0041,-0.0055,0,0,0.0398,0.0409,0.0357,0.0269,0.0118,-0.0038,-0.0146,-0.0228,-0.0168,0.0387,0.0417,0.0264,0.0118,0.0063,-0.0049,-0.0179,-0.0379,-0.0582,-0.0975,-0.1019,-0.0302,0.039,0.0582,0.0602,0.0574,0.0541,0.0505,0,-0.0154,0.0,-0.022,0,-0.0069,-0.0192,-0.017,-0.0157,-0.0173,-0.0201,-0.0236,-0.0217,-0.0214,-0.011,-0.011,-0.0093,0,0.0371,0.0533,0.0563,0.0555,0.0503,0.0327,0.0121,-0.0055,-0.0198,-0.0052,0.0319,0.0222,0.0074,0.0038,0.0063,0.0071,0.0016,-0.0214,-0.0448,-0.0739,-0.1016,-0.0574,0.0247,0.0582,0.0621,0.0623,0.0623,0.0607,0,-0.0258,0,-0.0211,-0.0286,0,-0.0214,-0.0192,-0.0201,-0.0244,-0.0302,-0.033,-0.0313,-0.0258,-0.0206,-0.0176,-0.0055,0,0.0514,0.0629,0.0678,0.0684,0.0634,0.0459,0.0233,-0.0003,-0.0203,-0.006,0.0082,-0.0016,-0.0115,-0.0033,0.0082,0.0239,0.0244,-0.0036,-0.0371,-0.0662,-0.0904,-0.0549,0.0203,0.0527,0.0585,0.0654,0.0687,0.064,0,-0.0363,-0.0291,-0.0244,-0.0294,-0.0261,-0.0211,-0.0201,-0.0255,-0.0335,-0.039,-0.0409,-0.0396,-0.0365,-0.0321,-0.0096,0,0.0503,0.0645,0.072,0.0736,0.07,0.0626,0.0503,0.0313,0.0069,-0.0162,-0.0113,-0.0195,-0.0269,-0.0272,-0.0148,0.0066,0.0393,0.0412,-0.0036,-0.0346,-0.0593,-0.061,-0.0195,0.0275,0.0434,0.0514,0.0629,0.0604,0.0434,-0.025,-0.0341,-0.0275,-0.0294,-0.0294,-0.0236,-0.0201,-0.0242,-0.0332,-0.0407,-0.0453,-0.0478,-0.0478,-0.0533,-0.0184,0,0.0464,0.0519,0.0623,0.0703,0.0706,0.0662,0.0607,0.0538,0.0409,0.0236,0.006,-0.0146,-0.0385,-0.045,-0.0407,-0.0313,-0.0003,0.0527,0.0503,-0.006,-0.0319,-0.0324,-0.0049,0.0192,0.0308,0.0332,0.0464,0.0505,0.0233,0.0008,-0.0302,-0.0352,-0.0286,-0.0332,-0.0269,-0.0228,-0.0269,-0.0297,-0.0371,-0.0434,-0.0483,-0.0505,-0.0566,-0.0766,0,0.0442,0.0489,0.0541,0.0626,0.0678,0.0673,0.0643,0.061,0.0549,0.0461,0.039,0.0201,-0.0168,-0.0374,-0.0486,-0.0459,-0.0417,-0.0077,0.0549,0.0555,0.0115,-0.0516,-0.0096,0.0431,0.0396,0.028,0.0275,0.0464,0.0247,-0.0365,-0.0486,-0.0434,-0.0407,-0.0346,-0.0396,-0.0302,-0.0352,-0.0335,-0.0294,-0.0349,-0.042,-0.0453,-0.0475,-0.0593,-0.0775,-0.0121,0.031,0.0428,0.0525,0.0604,0.0645,0.0648,0.0634,0.0607,0.0533,0.0437,0.0338,0.0077,-0.0244,-0.0393,-0.0604,-0.056,-0.0404,-0.0113,0.0472,0.0533,0.0239,-0.0739,-0.0146,0.0618,0.0519,0.0302,0.0341,0.0409,-0.0253,-0.0895,-0.0876,-0.053,-0.045,-0.0417,-0.0453,-0.0431,-0.0439,-0.0277,-0.0217,-0.0352,-0.0365,-0.0387,-0.022,-0.0582,-0.0555,-0.0137,0.0132,0.0319,0.0467,0.0549,0.0596,0.0613,0.0629,0.0604,0.0439,0.0209,0.0091,-0.0115,-0.0412,-0.053,-0.0709,-0.0143,0.0231,0.0236,0.0514,0.039,0.0071,-0.0755,-0.0428,0.0417,0.061,0.0514,0.0588,0.0069,-0.0695,-0.1046,-0.1121,-0.0552,-0.0508,-0.0481,-0.0492,-0.0475,-0.039,-0.019,-0.0055,-0.019,-0.0464,-0.05,0,-0.0387,-0.0316,-0.011,0.008,0.0264,0.0401,0.047,0.0514,0.0558,0.0571,0.0453,0.0222,0.0049,-0.006,-0.0209,-0.0494,-0.05,-0.0129,0.0492,0.1085,0.0819,0.0607,0.0124,-0.025,-0.0681,-0.0492,0.0044,0.0547,0.0695,0.058,-0.0346,-0.0788,-0.1101,-0.1588,-0.0527,-0.0519,-0.0489,-0.0459,-0.0417,-0.0371,-0.0286,0.0033,0,-0.0533,-0.0574,-0.0195,-0.0148,-0.0129,-0.0025,0.0093,0.0244,0.033,0.036,0.0409,0.0464,0.0379,0.0305,0.0242,0.0157,-0.0005,-0.0121,-0.0368,-0.0266,0.0393,0.0613,0.1203,0.0928,0.0481,-0.0033,-0.047,-0.0607,-0.0165,-0.0074,-0.0038,0.0277,0.0431,-0.028,-0.0761,-0.1206,-0.1618,-0.0478,-0.0505,-0.0442,-0.0371,-0.0357,-0.0365,-0.0508,0,-0.0022,-0.031,-0.0387,-0.0165,-0.0099,-0.0041,0.0014,0.0129,0.022,0.0222,0.0217,0.0324,0.0472,0.0602,0.0681,0.064,0.0407,0.0173,0.0019,-0.0126,0.006,0.0426,0.0593,0.0788,0.0692,0.0349,-0.0005,-0.0533,-0.0577,-0.0071,-0.011,-0.0412,-0.0143,0.0132,-0.0233,-0.067,-0.1008,-0.0928]}],[{"header":{"parameterUnit":"m.s-1","parameterCategory":2,"la1":30.5641,"la2":29.4642,"lo1":-89.4342,"lo2":-87.9343,"dx":0.0333,"dy":0.0333,"nx":46,"ny":34,"refTime":"2022-11-04T00:00:00:Z","depth":"8","parameterNumber":2,"parameterNumberName":"U-component_of_CURRENTS"},"data":[0,0,0,0,0,0,0,0,0,0,0,0,0,0,0,0,0,0,0,0,0,0,0,0,0,0,0,0,0,0,0,0,0,0,0,0,0,0,0,0,0,0.0437,0.0975,0.0777,0.0148,0,0,0,0,0,0,0,0,0,0,0,0,0,0,0,0,0,0,0,0,0,0,0,0,0,0,0,0,0,0,0,0,0,0,0,0,0,0,0,0,0,0,0.0363,0.0656,0.0291,-0.0041,0,0,0,0,0,0,0,0,0,0,0,0,0,0,0,0,0,0,0,0,0,0,0,0,0,0,0,0,0,0,0,0,0,0,0,0,0,0,0,0,0,0,0.022,0.0255,-0.008,-0.0165,0,0,0,0,0,0,0,0,0,0,0,0,0,0,0,0,0,0,0,0,0,0,0,0,0,0,0,0,0,0,0,0,0,0,0,0,0,0,0,0,0,0,0.058,0.0857,0.0316,0.006,0,0,0,0,0,0,0,0,0,0,0,0,0,0,0,0,0,0,0,0,0,0,0,0,0,0,0,0,0,0,0,0,0,0,0,0,0,0,0,0,0,-0.0099,0.0382,0.0772,0.0497,0.0423,0,0,0,0,0,0,0,0,0,0,0,0,0,0,0,0,0,0,0,0,0,0,0,0,0,0,0,0,0,0,0,0,0,0,0,0,0,0,0,0,0,-0.0162,0.0231,0.0728,0.064,0.0569,0,0,0,0,0,0,0,0,0,0,0,0,0.0195,0.0475,0.0588,0.0621,0.0637,0.064,0.0582,0.0514,0.0492,0,0,0,0,0,0,0,0,0,0,0,0,0.0173,0.0242,0.0135,0,0,0,0,0,-0.0113,0.0074,0.0585,0.0766,0.0667,0,0,0,0,0,0,0,0,0,0.0198,0.0489,0.0588,0.0533,0.0497,0.0525,0.0533,0.0533,0.0549,0.0574,0.0571,0.0571,0.0549,0.0505,0.0563,0.0728,0.064,0.0448,0,0,0,0,0.0132,0.0283,0.0269,0.0129,0.0025,0,0,0,0,0,0.0019,-0.0129,0.0316,0.0753,0.0623,0,0,0,0,-0.0066,-0.0168,-0.0195,-0.0093,0.0088,0.0209,0.0327,0.0448,0.05,0.0514,0.0489,0.0445,0.0456,0.0522,0.0552,0.0461,0.0445,0.0522,0.0412,0.0085,0.0126,0.0401,0.0179,0.0044,0.028,0.0371,0.0332,0.0382,0.0258,0.0047,0.0151,0.036,0.0585,0.072,0.0709,0.0626,0.0527,0.0277,0.0069,0.0607,0.0703,0.0277,0,0,0,0.0016,-0.0005,-0.006,-0.0047,-0.0014,-0.0126,-0.0151,0.0176,0.0464,0.0508,0.0472,0.0407,0.0371,0.0445,0.0593,0.0676,0.0538,0.0423,0.0602,0.0835,0.0742,0.0393,0.0195,0.0198,0.0228,0.0286,0.0305,0.0244,0.0184,0.0275,0.0255,0.0058,-0.014,-0.0011,0.0577,0.0876,0,0,0,0.0239,0.0829,0.0851,0.0459,0,0,0.0071,0.0063,-0.0041,-0.0052,-0.0011,0.0027,0.0025,0.0008,0,0,0,0.0085,0.0217,0.028,0.0294,0,0.0365,0.0659,0.0585,0,0,0,0,0,0,0,-0.0003,0.0096,0.0214,0.022,0.0266,0.0275,0.0225,0,0,0.0093,0.0319,0.0415,0.0591,0.0827,0.0552,0.0266,0,0,0,0.0069,0.0027,-0.0033,-0.0008,-0.0019,0.0011,-0.0069,0.0069,0.028,0.0211,0.0195,0.0258,0.0286,0.0275,0,0,0.0228,0.0522,0.0593,0.0481,0.0393,0.0294,0.0036,-0.0143,-0.0168,-0.0019,0.0165,0.0124,0,0,0,0.0025,0.0102,-0.0148,-0.0118,0.0088,0.0118,0.0162,0.0385,0.0404,0.0511,0,-0.0266,-0.0382,-0.0168,-0.0102,0.0354,0.0088,-0.0033,-0.0038,-0.008,-0.0107,0.0016,0.0302,0.0514,0.031,-0.0074,-0.0187,-0.0036,0.0168,0.0338,0.0494,0.0555,0.0607,0.0648,0.0695,0.0711,0.064,0.0467,0.0187,-0.0027,-0.0099,-0.0047,-0.003,-0.0005,0.0019,0.0055,0.0038,0.0025,-0.0047,-0.0195,-0.0093,0.0052,0.0165,0.0206,0.0115,-0.0088,0.0033,0.0121,-0.0038,-0.0096,-0.0102,0,-0.0036,-0.0121,-0.0176,-0.0209,-0.0236,0,0,-0.0025,-0.0096,-0.0184,-0.0129,-0.0047,-0.0091,-0.0113,0.0055,0.0439,0.0783,0.0972,0.0961,0.0862,0.0728,0.0621,0.0533,0.0357,0.0148,0.0102,0.0104,-0.006,-0.0192,-0.0192,-0.0132,-0.006,-0.0096,-0.0173,-0.0151,-0.0085,-0.0025,-0.0055,-0.0129,-0.019,-0.0162,-0.0099,-0.011,-0.0143,-0.0124,0.0566,0.0286,-0.0058,-0.0184,-0.0179,0,0,0,-0.0071,-0.0181,-0.0209,-0.0159,-0.0107,-0.0063,-0.0077,-0.0066,0.0341,0.0838,0.1101,0.1112,0.0986,0.0819,0.0681,0.0615,0.0475,0.0214,0.0025,-0.0071,-0.0088,-0.0118,-0.011,-0.0027,-0.0014,-0.0047,-0.0102,-0.014,-0.0151,-0.0159,-0.017,-0.0187,-0.0225,-0.0222,-0.0179,-0.0168,-0.0165,-0.0151,0.0085,0.0192,0.0214,0,0,0,0,0,-0.0069,-0.017,-0.0206,-0.0162,-0.0069,-0.0025,0.0003,0.0074,0.0434,0.089,0.0989,0.1005,0.0937,0.0808,0.0676,0.0591,0.0481,0.0203,-0.0041,-0.0181,-0.0151,-0.0195,-0.0264,-0.0124,-0.0036,-0.0038,-0.0091,-0.0129,-0.0162,-0.0195,-0.0214,-0.022,-0.0225,-0.0203,-0.0162,-0.0143,-0.014,-0.0148,0,0,0.0074,0.0014,-0.0008,0.0102,0,0,-0.011,-0.0228,-0.0211,-0.0195,-0.0206,-0.0181,-0.0173,-0.0242,-0.0288,0,0.0316,0.0651,0.07,0.0684,0.0632,0.0571,0.0472,0.0269,0.0082,-0.0327,-0.0736,-0.0764,-0.0558,-0.0407,-0.0321,-0.0214,-0.017,-0.0165,-0.0184,-0.0198,-0.0211,-0.0214,-0.0203,-0.0184,-0.0154,-0.0129,-0.0121,-0.0126,0,0,0.0184,0.0302,0.0294,0.0552,0.0536,0.0222,-0.0022,-0.0104,-0.0071,-0.0118,-0.0192,-0.0255,-0.0283,-0.0365,-0.031,-0.0181,0,0.0137,0.0363,0.0494,0.0541,0.0541,0.0563,0.0588,0.0667,0.0711,0.0604,0.0258,-0.0019,-0.0066,-0.008,-0.003,0.0019,0.0011,-0.0044,-0.0113,-0.0159,-0.0184,-0.0187,-0.017,-0.014,-0.0102,-0.0074,-0.0058,0,0,0,-0.006,-0.0121,0,0,0,-0.0005,0.0,-0.003,-0.008,-0.0091,-0.0132,-0.0209,-0.0288,-0.0217,-0.0099,0,0.0099,0.0236,0.0343,0.0437,0.0472,0.0569,0.0728,0.0939,0.1074,0.1115,0.1068,0.095,0.0838,0.0794,0.0791,0.0744,0.0626,0.0453,0.0261,0.0096,-0.0016,-0.0088,-0.0115,-0.0091,-0.0036,0.0005,0.0027,0,0,0,0,0,0,0,0.0055,0.0049,0.0022,0.0052,0.0049,0.0066,0.0102,0.0118,0.0069,0.0036,0.0044,0,0.0085,0.0173,0.0253,0.0368,0.0417,0.053,0.0687,0.0898,0.1044,0.1079,0.1038,0.1035,0.1107,0.1195,0.1258,0.125,0.1167,0.0972,0.0714,0.0505,0.0352,0.0222,0.0121,0.008,0.0107,0.0143,0.0151,0,0,0,0,0,0,0.0038,0.0058,0.0027,0.0033,0.0055,0.0058,0.0044,0.0049,0.0099,0.0195,0.0206,0.0159,0,0.0091,0.017,0.025,0.0354,0.0431,0.0522,0.0643,0.0769,0.0862,0.0904,0.0939,0.1074,0.1241,0.1349,0.1406,0.1376,0.1313,0.1252,0.1055,0.0821,0.0695,0.0613,0.0519,0.0431,0.0404,0.0409,0.0401,0,0,0,0,0,0,0.0033,0.003,-0.0008,0.0008,0.0049,0.0082,0.0088,0.0027,-0.0005,0.0011,0,0,0,0.0091,0.019,0.0283,0.039,0.0478,0.0558,0.0656,0.0709,0.0733,0.0791,0.0953,0.1176,0.1313,0.1371,0.1406,0.1401,0.1307,0.1241,0.1214,0.1022,0.081,0.0747,0.0733,0.072,0.0725,0.0753,0.0775,0,0,0,0,0,0,0.0008,-0.0022,-0.0052,-0.0027,0.0019,0.0066,0.0126,0.0091,-0.0014,-0.0041,-0.0041,0,0,0.0082,0.0206,0.0338,0.0464,0.0541,0.0607,0.0687,0.0731,0.0744,0.0824,0.0972,0.109,0.1129,0.1145,0.1176,0.1214,0.1272,0.1222,0.1192,0.1203,0.0997,0.0794,0.0753,0.0769,0.0805,0.0862,0.0923,0,0,0,0,0,0.0008,-0.0025,-0.008,-0.0093,-0.0063,-0.0011,0.0027,0.0038,0,0.0005,0.0019,0.0027,0,0,0.0093,0.0258,0.0417,0.0585,0.0703,0.0758,0.078,0.0786,0.0786,0.0816,0.0865,0.0843,0.081,0.0824,0.0876,0.097,0.109,0.1173,0.1148,0.122,0.1203,0.0942,0.0769,0.0742,0.078,0.084,0.0895,0,0.0025,0.0118,0.0113,0,0.0052,0.0005,-0.011,-0.0113,-0.0071,-0.0005,0.0036,0.0077,0.0132,0.0118,0.0077,0.0071,0,0.0244,0.0453,0.0439,0.0525,0.0698,0.0884,0.1008,0.1038,0.1014,0.0926,0.081,0.0714,0.0615,0.0571,0.0596,0.0673,0.0772,0.0873,0.0981,0.1005,0.1071,0.1189,0.1035,0.0783,0.0695,0.0703,0.0758,0.0802,0,0.0096,0,-0.0005,-0.0014,0,-0.0044,-0.0121,-0.0115,-0.0041,0.0022,0.0055,0.0069,0.0074,0.008,0.0058,0.003,0,0.0129,0.0319,0.0409,0.0483,0.0626,0.0816,0.097,0.1079,0.1154,0.1088,0.0887,0.0632,0.0428,0.0387,0.0407,0.0445,0.0481,0.0511,0.0585,0.0659,0.084,0.109,0.1022,0.0755,0.0591,0.053,0.0547,0.0555,0,0.0033,0.0082,0.0049,0.0052,0.0055,-0.0049,-0.0115,-0.0071,0.0016,0.006,0.0058,0.0041,0.0058,0.0027,-0.0025,0,0.0286,0.053,0.0472,0.0439,0.0431,0.0492,0.0613,0.0717,0.084,0.0997,0.1014,0.0835,0.0555,0.0343,0.0319,0.0294,0.0269,0.0302,0.0203,0.0148,0.039,0.0725,0.0931,0.0851,0.0634,0.0475,0.0398,0.0327,0.0214,-0.0011,0.0022,0.006,0.0091,0.0058,-0.0008,-0.0063,-0.0058,0.0019,0.0091,0.0099,0.0066,0.003,-0.0036,-0.0082,0,0.0277,0.0527,0.0505,0.0481,0.0439,0.0423,0.0456,0.0494,0.0505,0.0582,0.0744,0.0849,0.0725,0.0475,0.0357,0.0346,0.0294,0.0201,0.0288,0.0324,0.0228,0.0253,0.0407,0.0566,0.058,0.0514,0.045,0.0393,0.0239,-0.0036,0.0005,0.0099,0.0107,0.0093,0.0047,-0.0019,-0.003,0.0041,0.0126,0.0148,0.0137,0.0135,0.0184,0.0228,0,0.0261,0.0525,0.053,0.0527,0.0492,0.0461,0.0461,0.0483,0.0486,0.0464,0.0519,0.0684,0.0747,0.061,0.0494,0.0467,0.0464,0.0437,0.0288,0.0335,0.0396,0.0459,0.0486,0.0382,0.0417,0.0481,0.053,0.0544,0.0563,0.0453,0.0129,0.0066,0.0102,0.008,0.003,-0.0025,-0.0049,0.0003,0.0085,0.0165,0.0206,0.0217,0.0272,0.0387,0.0626,0.0813,0.0761,0.064,0.0602,0.0566,0.0522,0.05,0.05,0.0508,0.0508,0.0494,0.0552,0.053,0.0354,0.0233,0.0162,0.0209,0.0456,0.0656,0.0569,0.0549,0.0525,0.0472,0.0695,0.0588,0.0319,0.0396,0.0566,0.064,0.07,0.0632,0.0327,0.0069,0.008,0.0036,-0.0011,-0.003,0.0008,0.0082,0.0165,0.0233,0.0275,0.0332,0.0475,0.056,0.0626,0.0706,0.0665,0.0659,0.0648,0.0599,0.0547,0.0516,0.05,0.0525,0.0563,0.0604,0.0489,0.0214,-0.0008,-0.0187,-0.0129,0.0233,0.0676,0.0945,0.0893,0.0821,0.0722,0.0475,0.0577,0.0409,0.0003,0.0143,0.0382,0.0569,0.0574,0.0494,0.0365,0.0093,0.011,0.0077,0.0038,0.0038,0.0082,0.0206,0.0357,0.0448,0.0393,0.0299,0,0.0162,0.042,0.0538,0.0599,0.0662,0.0662,0.061,0.0547,0.0497,0.0505,0.0571,0.0676,0.0621,0.0363,0.0236,0.0283,0.0319,0.0483,0.0805,0.1016,0.1033,0.0879,0.0786,0.0772,0.0689,0.0766,0.0645,-0.0069,-0.0574,-0.042,0.0093,0.0423,0.047,0.0341,0.0055,0.0129,0.0157,0.0157,0.0148,0.0151,0.0033,-0.0088,0,0.0099,0.0313,0.0426,0.0423,0.0439,0.0483,0.0596,0.067,0.0659,0.0604,0.0569,0.0585,0.0645,0.0703,0.0604,0.0472,0.0431,0.0428,0.0555,0.0802,0.1003,0.1027,0.0791,0.0456,0.0363,0.0428,0.0508,0.0659,0.0802,0.0843,0.0407,-0.047,-0.0964,-0.0709,-0.0168,0.0165,0.0352,0.0077,0.0137,0.0211,0.025,0.025,0.019,0.0137,0,0.003,0.0126,0.0264,0.0305,0.0321,0.0346,0.0508,0.0643,0.0695,0.0665,0.0656,0.0684,0.0876,0.1074,0.1148,0.1236,0.1206,0.1005,0.0799,0.0791,0.0939,0.1115,0.1228,0.095,0.0382,0.017,0.0294,0.0434,0.0544,0.0585,0.0816,0.1129,0.1244,0.1104,0.0632,0.0401,0.0659,0.1035]},{"header":{"parameterUnit":"m.s-1","parameterCategory":2,"la1":30.5641,"la2":29.4642,"lo1":-89.4342,"lo2":-87.9343,"dx":0.0333,"dy":0.0333,"nx":46,"ny":34,"refTime":"2022-11-04T00:00:00:Z","depth":"8","parameterNumber":3,"parameterNumberName":"V-component_of_CURRENTS"},"data":[0,0,0,0,0,0,0,0,0,0,0,0,0,0,0,0,0,0,0,0,0,0,0,0,0,0,0,0,0,0,0,0,0,0,0,0,0,0,0,0,0,0.0948,0.017,-0.0533,-0.0618,0,0,0,0,0,0,0,0,0,0,0,0,0,0,0,0,0,0,0,0,0,0,0,0,0,0,0,0,0,0,0,0,0,0,0,0,0,0,0,0,0,0,0.0876,-0.0283,-0.0821,-0.078,0,0,0,0,0,0,0,0,0,0,0,0,0,0,0,0,0,0,0,0,0,0,0,0,0,0,0,0,0,0,0,0,0,0,0,0,0,0,0,0,0,0,0.0901,-0.0264,-0.0648,-0.0574,0,0,0,0,0,0,0,0,0,0,0,0,0,0,0,0,0,0,0,0,0,0,0,0,0,0,0,0,0,0,0,0,0,0,0,0,0,0,0,0,0,0,0.0849,-0.0063,-0.0448,-0.039,0,0,0,0,0,0,0,0,0,0,0,0,0,0,0,0,0,0,0,0,0,0,0,0,0,0,0,0,0,0,0,0,0,0,0,0,0,0,0,0,0,0.0615,0.0769,0.0113,-0.0126,-0.0091,0,0,0,0,0,0,0,0,0,0,0,0,0,0,0,0,0,0,0,0,0,0,0,0,0,0,0,0,0,0,0,0,0,0,0,0,0,0,0,0,0,0.0695,0.0772,0.0349,0.0198,0.0203,0,0,0,0,0,0,0,0,0,0,0,0,0.0302,0.0118,0.0014,-0.003,-0.0038,-0.0044,-0.003,-0.0124,-0.0461,0,0,0,0,0,0,0,0,0,0,0,0,-0.0058,-0.0244,-0.0396,0,0,0,0,0,0.0676,0.0626,0.0588,0.0299,0.0382,0,0,0,0,0,0,0,0,0,0.0302,0.0203,0.0203,0.0286,0.0135,0.0022,-0.0005,0.0014,-0.0005,-0.0074,-0.022,-0.0431,-0.0434,-0.0332,-0.017,0.0093,0.0195,0.0602,0,0,0,0,-0.0014,-0.0409,-0.0316,-0.0354,-0.0574,0,0,0,0,0,0.0709,0.0703,0.039,0.0005,-0.0011,0,0,0,0,0.022,0.0297,0.0264,0.0154,0.0179,0.0363,0.0236,0.0137,0.0135,0.0058,-0.0005,0.0014,0.006,0.0011,-0.008,-0.0283,-0.0363,-0.0374,-0.047,-0.0288,-0.0113,0.0107,0.0393,0.0096,-0.0157,-0.028,-0.0316,-0.0148,-0.0203,-0.0343,-0.028,-0.0269,0.0904,0.0681,0.0585,0.0,0.0,0.0376,0.0728,0.0025,-0.0291,-0.0343,0,0,0,0.0217,0.028,0.033,0.0316,0.0291,0.0321,0.0291,0.0135,0.0036,0.0,-0.0104,-0.0093,-0.0047,0.0096,-0.0005,-0.0055,-0.0173,-0.0201,-0.0157,-0.0305,-0.0203,-0.0159,0.0008,0.0093,0.0047,-0.0159,-0.0277,-0.0217,-0.0148,0.0036,-0.0022,0.0066,0.0107,0.0453,0.0302,0.0423,0,0,0,0.0558,0.0489,-0.0157,-0.0102,0,0,0.0291,0.0363,0.0376,0.0387,0.0428,0.0486,0.0533,0.0148,0,0,0,-0.0069,-0.0019,-0.0049,0.0069,0,-0.008,0.0071,-0.008,0,0,0,0,0,0,0,-0.0269,-0.0137,-0.006,-0.0005,0.0014,0.0071,0.0222,0,0,0.0049,0.0346,0.0398,0.0494,0.0758,0.0255,0.1052,0,0,0,0.0417,0.0401,0.0486,0.0417,0.0453,0.0527,0.0527,0.0349,-0.0049,-0.0157,-0.0162,0.0176,0.0266,0.0242,0,0,0.0157,-0.0071,0.0016,-0.0181,-0.0184,-0.0368,-0.0354,-0.0222,-0.0044,0.0093,0.0049,-0.0132,0,0,0,0.008,0.0126,0.028,-0.0022,0.0058,0.0228,0.0244,0.0357,0.0417,0.0645,0,0.0764,0.0242,0.0022,-0.0005,0.0209,0.0387,0.0398,0.0415,0.0475,0.0478,0.0255,0.0049,-0.0286,-0.0074,0.0115,0.0151,0.0157,0.0063,-0.0288,-0.0011,0.019,0.0,-0.0181,-0.0321,-0.0332,-0.045,-0.0423,-0.0288,-0.0151,-0.0022,0.0033,0.0104,0.0115,0.0027,0.0077,0.0143,-0.0085,-0.0049,-0.0179,-0.017,-0.0044,0.0049,0.0231,0.0253,0.0286,-0.0115,0.014,0.0121,0.0036,0.0005,0,0.0239,0.0321,0.0332,0.0299,0.0195,0,0,-0.0332,-0.0088,0.0082,-0.0071,-0.0187,-0.0173,-0.0157,-0.014,0.0058,0.0014,-0.0184,-0.036,-0.0464,-0.0563,-0.0571,-0.0437,-0.0275,-0.0162,-0.0151,-0.0077,-0.0074,-0.0266,-0.0324,-0.0222,-0.0324,-0.0244,-0.0244,-0.0228,-0.0085,0.0104,0.0165,0.0107,0.0005,-0.011,-0.0085,-0.0014,0.0,-0.0005,-0.0192,0.0165,0.0176,0.0132,0.0074,0,0,0,-0.0255,-0.0066,-0.0082,-0.0091,0.0003,0.0091,0.0176,0.0115,0.014,-0.0063,-0.0291,-0.0461,-0.0593,-0.0667,-0.0651,-0.0558,-0.0486,-0.0393,-0.0478,-0.0203,-0.0214,-0.0385,-0.0401,-0.0404,-0.0456,-0.0409,-0.0332,-0.0168,-0.0069,0.0014,0.0041,0.0022,-0.0005,-0.0066,-0.0102,-0.006,-0.0038,-0.0016,-0.0096,0.0058,-0.022,0,0,0,0,0,-0.008,0.0143,0.017,0.0225,0.0321,0.0401,0.042,0.0536,0.0618,-0.0047,-0.047,-0.0615,-0.0711,-0.0755,-0.0736,-0.0678,-0.0758,-0.0722,-0.0777,-0.0379,-0.0165,-0.0321,-0.0412,-0.0511,-0.0497,-0.0434,-0.0327,-0.0168,-0.0074,0.0019,0.0049,0.0025,0.0011,-0.0022,-0.0038,-0.003,-0.0003,0.0014,0,0,-0.0352,0.0478,0.0835,0.0365,0,0,0.0115,0.0319,0.0332,0.039,0.0448,0.0472,0.045,0.0503,0.0662,0,-0.0283,-0.0662,-0.0733,-0.078,-0.078,-0.0753,-0.0895,-0.106,-0.1126,-0.0714,-0.0319,-0.045,-0.0527,-0.0525,-0.0467,-0.0409,-0.0286,-0.0135,-0.0022,0.0038,0.0071,0.0066,0.0049,0.0041,0.0027,0.0016,0.0016,0.0019,0,0,-0.0118,0.0442,0.086,0.0184,0.0,0.0,0.0409,0.0376,0.0332,0.0368,0.0382,0.0343,0.0349,0.0343,0.0272,0.0019,0,-0.0555,-0.0621,-0.0703,-0.0742,-0.0744,-0.092,-0.1154,-0.1189,-0.0865,-0.0514,-0.0374,-0.0291,-0.0214,-0.0195,-0.0173,-0.0107,-0.0022,0.0022,0.0049,0.0066,0.0069,0.0071,0.0085,0.0082,0.0063,0.0049,0.0047,0,0,0,0.0203,0.0442,0,0,0,0.028,0.0162,0.0181,0.0244,0.0288,0.031,0.0297,0.0255,0.0049,0.006,0,-0.0393,-0.045,-0.0571,-0.0643,-0.0684,-0.0827,-0.0992,-0.1016,-0.0843,-0.0681,-0.0387,-0.0228,-0.0129,-0.011,-0.0118,-0.0115,-0.0069,-0.0019,0.0025,0.0038,0.006,0.0093,0.0135,0.0162,0.0148,0.0118,0.0102,0,0,0,0,0,0,0,-0.0113,-0.006,-0.0027,0.0047,0.0096,0.0135,0.0192,0.0214,0.0187,0.0016,0.0074,0,-0.025,-0.0305,-0.0442,-0.0541,-0.0623,-0.07,-0.081,-0.0821,-0.0797,-0.0744,-0.0511,-0.0239,-0.0113,-0.0132,-0.0211,-0.0321,-0.0371,-0.0266,-0.0104,-0.0008,0.0041,0.0115,0.0209,0.028,0.0269,0.0206,0.0165,0,0,0,0,0,0,-0.0088,-0.0099,-0.0058,-0.0019,0.0003,0.0016,0.0008,0.0022,0.0082,0.014,0.0,0.0025,0,-0.0118,-0.0179,-0.0319,-0.0437,-0.0522,-0.0574,-0.0667,-0.0659,-0.0681,-0.0643,-0.028,-0.003,-0.0027,-0.0124,-0.0288,-0.0483,-0.0684,-0.0684,-0.039,-0.0107,0.0022,0.0115,0.0242,0.0357,0.0354,0.0283,0.0228,0,0,0,0,0,0,-0.0102,-0.0085,-0.0041,-0.0016,-0.0003,0.0011,0.0003,-0.0016,0.0052,0.0096,0,0,0,-0.0003,-0.0066,-0.017,-0.0288,-0.0365,-0.0453,-0.0525,-0.0525,-0.0577,-0.0368,0.006,0.0146,0.0019,-0.0129,-0.0343,-0.0558,-0.078,-0.1038,-0.0827,-0.0357,0.0003,0.0151,0.0261,0.0368,0.0376,0.0321,0.0272,0,0,0,0,0,0,-0.0132,-0.0093,-0.0052,-0.0038,-0.0038,-0.0025,-0.0022,-0.0025,-0.0033,-0.0038,-0.0058,0,0,0.0113,0.0047,-0.0027,-0.0126,-0.0236,-0.0343,-0.0409,-0.0445,-0.0483,-0.0014,0.0253,0.0162,-0.0016,-0.0148,-0.0335,-0.0533,-0.0725,-0.1035,-0.12,-0.0786,-0.0135,0.0233,0.0332,0.0393,0.0385,0.0343,0.0302,0,0,0,0,0,-0.014,-0.0154,-0.0113,-0.0088,-0.0088,-0.0107,-0.0115,-0.0121,0,-0.014,-0.0143,-0.0077,0,0,0.0266,0.0201,0.0121,0.0027,-0.011,-0.0247,-0.0343,-0.0417,-0.0352,0.019,0.0206,0.0044,-0.0102,-0.0143,-0.025,-0.0379,-0.0602,-0.0829,-0.1203,-0.1165,-0.0456,0.0209,0.0401,0.0431,0.0412,0.039,0.036,0,-0.0146,0.0,-0.0233,0,-0.0069,-0.0184,-0.0143,-0.0129,-0.0151,-0.019,-0.0217,-0.0247,-0.0302,-0.0233,-0.0206,-0.0115,0,0.0291,0.0368,0.0341,0.0294,0.0222,0.0058,-0.0132,-0.0286,-0.0415,-0.0261,0.0118,0.0022,-0.0129,-0.0148,-0.0102,-0.0085,-0.0137,-0.0382,-0.0648,-0.097,-0.1222,-0.0742,0.0074,0.0409,0.0453,0.0464,0.0472,0.0459,0,-0.0225,0,-0.0236,-0.0286,0,-0.0206,-0.0165,-0.0176,-0.0222,-0.0275,-0.0305,-0.0321,-0.0319,-0.0305,-0.0233,-0.0066,0,0.0398,0.0453,0.0453,0.0431,0.0385,0.0211,-0.0008,-0.0239,-0.0431,-0.028,-0.0118,-0.0214,-0.0308,-0.0198,-0.006,0.0102,0.0102,-0.0179,-0.0519,-0.0832,-0.1088,-0.0722,0.0033,0.036,0.0426,0.0497,0.0538,0.0494,0,-0.0294,-0.0275,-0.0258,-0.0291,-0.0253,-0.0201,-0.0173,-0.0225,-0.0299,-0.0346,-0.0368,-0.0371,-0.0374,-0.0346,-0.0115,0,0.0415,0.0508,0.0541,0.0533,0.0494,0.0434,0.0302,0.011,-0.0137,-0.0371,-0.0319,-0.0396,-0.0467,-0.0461,-0.0308,-0.0071,0.0258,0.0261,-0.0187,-0.0483,-0.0728,-0.075,-0.0346,0.0113,0.0272,0.0357,0.0478,0.0464,0.0308,-0.0231,-0.0275,-0.0283,-0.0272,-0.0286,-0.0225,-0.0187,-0.0206,-0.0294,-0.0365,-0.0398,-0.0415,-0.0448,-0.0497,-0.0184,0,0.0385,0.0426,0.0497,0.0541,0.0538,0.05,0.0442,0.0363,0.0231,0.0055,-0.0129,-0.0343,-0.0585,-0.0651,-0.0591,-0.0472,-0.014,0.039,0.0346,-0.025,-0.0522,-0.0497,-0.019,0.0049,0.0154,0.0179,0.0308,0.036,0.0107,-0.0104,-0.0264,-0.0302,-0.0332,-0.0277,-0.0261,-0.0206,-0.0214,-0.0288,-0.0354,-0.0398,-0.0417,-0.0439,-0.0514,-0.0684,0,0.0346,0.0396,0.0442,0.0503,0.0541,0.0538,0.0505,0.0453,0.0382,0.0291,0.0209,0.0005,-0.0371,-0.0588,-0.0695,-0.0643,-0.0571,-0.0217,0.0409,0.0398,-0.0118,-0.072,-0.0327,0.0261,0.025,0.0135,0.0126,0.0308,0.0099,-0.0486,-0.0602,-0.0332,-0.0379,-0.0374,-0.0297,-0.0286,-0.028,-0.0319,-0.0357,-0.0365,-0.0385,-0.0398,-0.0417,-0.0525,-0.0673,-0.0118,0.0236,0.0338,0.0423,0.0494,0.053,0.0533,0.0505,0.0456,0.036,0.0261,0.0148,-0.0124,-0.0448,-0.0593,-0.0786,-0.07,-0.0527,-0.0239,0.0332,0.0374,-0.0033,-0.0904,-0.0376,0.0423,0.0371,0.0159,0.0184,0.025,-0.0401,-0.1027,-0.1027,-0.0385,-0.0428,-0.0393,-0.0327,-0.0346,-0.0412,-0.05,-0.0417,-0.0346,-0.033,-0.0352,-0.0195,-0.0497,-0.0472,-0.0124,0.0099,0.0247,0.0368,0.045,0.0492,0.05,0.0483,0.0437,0.0258,0.0019,-0.0107,-0.0319,-0.0604,-0.0698,-0.0857,-0.0286,0.0082,0.0082,0.0343,0.0217,-0.0198,-0.0975,-0.064,0.022,0.0453,0.0363,0.0407,-0.0118,-0.0849,-0.1225,-0.1313,-0.0385,-0.0376,-0.0365,-0.0341,-0.0354,-0.0464,-0.0511,-0.0294,-0.0168,-0.039,-0.0445,0,-0.033,-0.0261,-0.008,0.0077,0.0195,0.0308,0.0374,0.0404,0.0426,0.042,0.028,0.0022,-0.0162,-0.0266,-0.042,-0.07,-0.0698,-0.0338,0.0272,0.0871,0.0604,0.0398,-0.0066,-0.0453,-0.0923,-0.0709,-0.0143,0.0398,0.0563,0.0423,-0.0519,-0.0926,-0.1263,-0.1684,-0.0343,-0.0316,-0.031,-0.0321,-0.0324,-0.0382,-0.0387,-0.0063,0,-0.0431,-0.0503,-0.0181,-0.0135,-0.0096,0.0011,0.0085,0.0165,0.0233,0.025,0.028,0.0319,0.0198,0.0085,0.0011,-0.0071,-0.0225,-0.0343,-0.0596,-0.0503,0.0137,0.0352,0.0959,0.0689,0.0261,-0.022,-0.0632,-0.0755,-0.0341,-0.0255,-0.0192,0.0143,0.0308,-0.0393,-0.0857,-0.1313,-0.1728,-0.0231,-0.0275,-0.0291,-0.0302,-0.0302,-0.0321,-0.0445,0,-0.0162,-0.0302,-0.0341,-0.0132,-0.0055,0.0036,0.0071,0.0082,0.0121,0.0107,0.008,0.0146,0.0247,0.0338,0.0387,0.0343,0.0118,-0.0099,-0.0231,-0.0363,-0.0184,0.0159,0.0319,0.0541,0.0445,0.0124,-0.0206,-0.0698,-0.0722,-0.0231,-0.0277,-0.0574,-0.0283,0.0005,-0.0357,-0.0786,-0.1129,-0.1074]}],[{"header":{"parameterUnit":"m.s-1","parameterCategory":2,"la1":30.5641,"la2":29.4642,"lo1":-89.4342,"lo2":-87.9343,"dx":0.0333,"dy":0.0333,"nx":46,"ny":34,"refTime":"2022-11-04T00:00:00:Z","depth":"10","parameterNumber":2,"parameterNumberName":"U-component_of_CURRENTS"},"data":[0,0,0,0,0,0,0,0,0,0,0,0,0,0,0,0,0,0,0,0,0,0,0,0,0,0,0,0,0,0,0,0,0,0,0,0,0,0,0,0,0,0.0082,0.0206,0.0176,0.0129,0,0,0,0,0,0,0,0,0,0,0,0,0,0,0,0,0,0,0,0,0,0,0,0,0,0,0,0,0,0,0,0,0,0,0,0,0,0,0,0,0,0,0.0069,0.0195,0.0165,0.0113,0,0,0,0,0,0,0,0,0,0,0,0,0,0,0,0,0,0,0,0,0,0,0,0,0,0,0,0,0,0,0,0,0,0,0,0,0,0,0,0,0,0,0.0124,0.0222,0.0135,0.0151,0,0,0,0,0,0,0,0,0,0,0,0,0,0,0,0,0,0,0,0,0,0,0,0,0,0,0,0,0,0,0,0,0,0,0,0,0,0,0,0,0,0,0.039,0.0494,0.0242,0.0217,0,0,0,0,0,0,0,0,0,0,0,0,0,0,0,0,0,0,0,0,0,0,0,0,0,0,0,0,0,0,0,0,0,0,0,0,0,0,0,0,0,-0.0074,0.0286,0.0574,0.0354,0.0275,0,0,0,0,0,0,0,0,0,0,0,0,0,0,0,0,0,0,0,0,0,0,0,0,0,0,0,0,0,0,0,0,0,0,0,0,0,0,0,0,0,-0.0121,0.0211,0.0629,0.0492,0.0363,0,0,0,0,0,0,0,0,0,0,0,0,0.0187,0.0448,0.0547,0.0574,0.0591,0.0591,0.0541,0.0483,0.0464,0,0,0,0,0,0,0,0,0,0,0,0,0.017,0.0236,0.0132,0,0,0,0,0,-0.0104,0.0069,0.0519,0.064,0.0544,0,0,0,0,0,0,0,0,0,0.0187,0.0459,0.0536,0.0486,0.0459,0.0489,0.05,0.0494,0.0511,0.0533,0.0527,0.0511,0.0483,0.0461,0.0431,0.047,0.0417,0.0299,0,0,0,0,0.0129,0.0272,0.0253,0.0124,0.0025,0,0,0,0,0,0.0019,-0.0121,0.0272,0.0637,0.0464,0,0,0,0,-0.0066,-0.0168,-0.0192,-0.0096,0.0074,0.0184,0.0288,0.0404,0.0456,0.0478,0.0459,0.042,0.0428,0.0492,0.0497,0.0376,0.031,0.031,0.0236,0.0038,0.0077,0.0242,-0.0003,-0.0038,0.0266,0.0354,0.0316,0.0302,0.0176,0.0055,0.0162,0.0239,0.0346,0.056,0.0659,0.0599,0.0505,0.0266,0.0071,0.0428,0.0591,0.0412,0,0,0,0.0016,-0.0008,-0.0063,-0.0049,-0.0016,-0.0121,-0.0168,0.0126,0.0417,0.0467,0.0442,0.0385,0.0349,0.0407,0.047,0.0472,0.0379,0.0277,0.0264,0.0247,0.0233,0.0217,0.0173,0.0176,0.0206,0.0272,0.0294,0.0236,0.0176,0.0211,0.0198,0.0085,-0.0088,0.0003,0.0453,0.0662,0,0,0,0.0217,0.056,0.0643,0.0547,0,0,0.0069,0.0058,-0.0041,-0.0052,-0.0016,0.0022,0.0016,0.0,0,0,0,0.0082,0.0211,0.0269,0.0286,0,0.0233,0.0423,0.0379,0,0,0,0,0,0,0,0.0003,0.0102,0.0211,0.0214,0.0253,0.022,0.0132,0,0,0.0088,0.0201,0.0266,0.0439,0.0648,0.0481,0.0233,0,0,0,0.0063,0.0036,-0.0022,-0.0011,-0.0022,0.0005,-0.0074,0.0055,0.0253,0.0184,0.0168,0.0239,0.0275,0.0264,0,0,0.0168,0.0368,0.0442,0.0404,0.0255,0.0294,0.0426,0.028,0.0099,0.0192,0.0201,0.0143,0,0,0,0.0016,0.0082,-0.0099,-0.0225,0.0198,0.0148,0.0107,0.0269,0.0277,0.0349,0,-0.0253,-0.0365,-0.0162,-0.0096,0.0294,0.0063,-0.0041,-0.0041,-0.008,-0.0107,0.0011,0.0272,0.0398,0.0148,-0.0148,-0.0192,-0.0038,0.0157,0.0308,0.0453,0.0516,0.056,0.0591,0.0585,0.0555,0.0508,0.0494,0.0335,0.0126,0.0093,0.0198,0.0071,-0.0041,-0.0014,0.0115,0.0091,0.0049,-0.0038,-0.0247,-0.0055,0.0184,0.0272,0.0225,0.0099,-0.0113,0.0014,0.0121,-0.0049,-0.0093,-0.0102,0,-0.0036,-0.0121,-0.0173,-0.0195,-0.0214,0,0,-0.0027,-0.0121,-0.0206,-0.0129,-0.0047,-0.0091,-0.0137,-0.0066,0.0247,0.0613,0.0791,0.0846,0.0766,0.0648,0.0566,0.0508,0.0335,0.011,0.0137,0.0198,-0.0099,-0.0387,-0.0275,-0.0074,0.003,-0.0052,-0.0195,-0.0148,-0.0025,0.0008,-0.0049,-0.0129,-0.0192,-0.0162,-0.0096,-0.011,-0.0143,-0.0124,0.0522,0.0269,-0.0058,-0.0181,-0.0179,0,0,0,-0.0069,-0.0179,-0.0209,-0.0162,-0.0118,-0.0071,-0.0074,-0.0181,0.0071,0.0585,0.0843,0.0967,0.0898,0.0747,0.0632,0.0593,0.0461,0.0126,-0.0014,0.0041,-0.0168,-0.05,-0.056,-0.0415,-0.0233,-0.0124,-0.0107,-0.014,-0.0143,-0.0118,-0.0135,-0.0179,-0.0225,-0.0228,-0.0187,-0.0176,-0.0176,-0.0159,0.0082,0.0187,0.0206,0,0,0,0,0,-0.0069,-0.0165,-0.0179,-0.0165,-0.0137,-0.0071,-0.0005,0.003,0.0266,0.0656,0.0819,0.0832,0.0854,0.075,0.0632,0.0574,0.0552,0.0225,-0.006,-0.0047,-0.003,-0.0266,-0.0489,-0.0396,-0.0272,-0.0203,-0.0184,-0.0179,-0.0181,-0.0176,-0.0181,-0.0198,-0.0228,-0.0233,-0.0203,-0.0176,-0.0168,-0.0168,0,0,0.0069,0.0005,0.0014,0.0154,0,0,-0.0107,-0.0209,-0.017,-0.0137,-0.0165,-0.0159,-0.0154,-0.0217,-0.0264,0,0.0283,0.0571,0.0637,0.0643,0.0599,0.0538,0.0533,0.0308,-0.0022,-0.0305,-0.0527,-0.0615,-0.0563,-0.0428,-0.0371,-0.0324,-0.0283,-0.0236,-0.0214,-0.0209,-0.0211,-0.0217,-0.0222,-0.0217,-0.0192,-0.017,-0.0162,-0.0168,0,0,0.0038,0.0066,0.0107,0.0126,0.0115,0.0121,-0.0025,-0.0104,-0.0077,-0.0121,-0.0176,-0.0228,-0.0258,-0.0321,-0.028,-0.0184,0,0.0126,0.0332,0.047,0.0519,0.05,0.0492,0.045,0.0428,0.0461,0.0404,0.0093,-0.0162,-0.0187,-0.0181,-0.0143,-0.0102,-0.0096,-0.0124,-0.0173,-0.0201,-0.0203,-0.0201,-0.0198,-0.0181,-0.0157,-0.0137,-0.0126,0,0,0,-0.006,-0.0124,0,0,0,-0.0008,0.0,-0.003,-0.008,-0.0088,-0.0132,-0.0203,-0.028,-0.0214,-0.0104,0,0.0096,0.0217,0.033,0.0423,0.0445,0.045,0.0511,0.0662,0.0816,0.0884,0.0857,0.0766,0.0687,0.0648,0.0632,0.0574,0.0456,0.0305,0.0148,0.0014,-0.0085,-0.0146,-0.0165,-0.0143,-0.0096,-0.0055,-0.003,0,0,0,0,0,0,0,0.0055,0.0049,0.0019,0.0047,0.0044,0.006,0.0099,0.0113,0.0066,0.0033,0.0038,0,0.0082,0.0162,0.0242,0.0349,0.0393,0.0415,0.0481,0.0651,0.0824,0.0882,0.0865,0.089,0.0975,0.1046,0.1077,0.1038,0.0937,0.0753,0.0541,0.0374,0.0242,0.0129,0.0044,0.0019,0.0044,0.0074,0.0088,0,0,0,0,0,0,0.0038,0.0058,0.0022,0.0027,0.0049,0.0052,0.0038,0.0044,0.0091,0.0187,0.0201,0.0154,0,0.0088,0.0162,0.0209,0.0305,0.0363,0.0396,0.0445,0.056,0.0692,0.0764,0.084,0.0992,0.1145,0.122,0.1225,0.1148,0.1046,0.0967,0.081,0.0651,0.0566,0.05,0.0417,0.0341,0.0313,0.0313,0.031,0,0,0,0,0,0,0.0033,0.0027,-0.0014,0.0003,0.0044,0.0077,0.0082,0.0022,-0.0011,0.0005,0,0,0,0.0091,0.0181,0.0225,0.0316,0.0371,0.0404,0.0459,0.053,0.0591,0.0698,0.089,0.1104,0.1239,0.1269,0.1252,0.12,0.1041,0.0909,0.0893,0.0775,0.0648,0.0634,0.0634,0.0623,0.0626,0.0643,0.0662,0,0,0,0,0,0,0.0005,-0.0025,-0.0055,-0.003,0.0016,0.006,0.0124,0.0085,-0.0019,-0.0044,-0.0041,0,0,0.008,0.0173,0.0242,0.0357,0.0428,0.0456,0.0508,0.056,0.0621,0.0753,0.0926,0.1044,0.109,0.1077,0.1063,0.1063,0.1044,0.0884,0.0808,0.0865,0.0764,0.0662,0.0662,0.0684,0.0717,0.0764,0.0816,0,0,0,0,0,0.0005,-0.0027,-0.0082,-0.0099,-0.0069,-0.0016,0.0022,0.0036,0,0.0005,0.0019,0.0025,0,0,0.0082,0.0181,0.028,0.0423,0.0536,0.0588,0.0613,0.0621,0.0678,0.0764,0.084,0.0829,0.0791,0.0769,0.0802,0.0879,0.0931,0.0901,0.0775,0.084,0.0909,0.0764,0.0673,0.0667,0.0703,0.0755,0.0805,0,0.0025,0.0115,0.011,0,0.0049,0.0003,-0.0113,-0.0118,-0.0074,-0.0008,0.0033,0.0074,0.0129,0.0115,0.0074,0.0069,0,0.0228,0.0401,0.0341,0.0368,0.05,0.067,0.0799,0.0846,0.0829,0.0805,0.0758,0.0706,0.0621,0.0555,0.0563,0.0643,0.0733,0.0808,0.0843,0.0747,0.0731,0.0893,0.0851,0.0684,0.0626,0.0637,0.0684,0.0722,0,0.0091,0,-0.0008,-0.0014,0,-0.0047,-0.0124,-0.0118,-0.0044,0.0019,0.0052,0.0066,0.0071,0.0077,0.0055,0.003,0,0.0118,0.0272,0.0324,0.0341,0.042,0.0591,0.0764,0.0884,0.0959,0.0945,0.0816,0.0626,0.0442,0.0371,0.0379,0.0423,0.0453,0.0489,0.0547,0.0514,0.0607,0.0879,0.0876,0.067,0.053,0.0475,0.0489,0.0494,0,0.0033,0.0082,0.0049,0.0052,0.0052,-0.0052,-0.0118,-0.0077,0.0011,0.0058,0.0052,0.0038,0.0055,0.0025,-0.0022,0,0.0264,0.0475,0.0407,0.0352,0.0283,0.0283,0.0401,0.0558,0.0698,0.0846,0.0887,0.0769,0.0558,0.0354,0.0299,0.0277,0.0264,0.0266,0.014,0.0113,0.0352,0.0648,0.0846,0.078,0.0571,0.0417,0.0343,0.0277,0.0165,-0.0008,0.0022,0.0058,0.0088,0.0058,-0.0011,-0.0066,-0.006,0.0014,0.0085,0.0093,0.006,0.0025,-0.0036,-0.0077,0,0.0258,0.0489,0.0445,0.042,0.0346,0.0272,0.0266,0.0324,0.0398,0.0505,0.0665,0.0761,0.0678,0.0486,0.0374,0.0321,0.0261,0.0209,0.0261,0.0181,0.0077,0.0187,0.0387,0.0544,0.0538,0.0459,0.0393,0.033,0.0162,-0.0102,0.0005,0.0091,0.0099,0.0091,0.0044,-0.0022,-0.0033,0.0038,0.0121,0.0137,0.0129,0.0124,0.0165,0.0206,0,0.0239,0.0483,0.0478,0.0467,0.0428,0.0368,0.0327,0.033,0.0357,0.0387,0.0453,0.0607,0.0667,0.0566,0.0486,0.0461,0.042,0.0382,0.0288,0.0338,0.0231,0.0162,0.0291,0.0319,0.0398,0.0448,0.0478,0.0483,0.0481,0.0332,0.0,0.0063,0.0099,0.0077,0.003,-0.0025,-0.0049,0.0003,0.0082,0.0157,0.0192,0.0198,0.0244,0.0346,0.0555,0.072,0.0676,0.0577,0.0522,0.0505,0.045,0.0404,0.0385,0.0385,0.039,0.0398,0.0467,0.0461,0.0313,0.0222,0.0173,0.022,0.0434,0.0615,0.0558,0.0558,0.0379,0.0176,0.0434,0.0461,0.0313,0.0385,0.0533,0.0585,0.0593,0.0478,0.014,0.0063,0.0082,0.0044,-0.0011,-0.003,0.0003,0.0025,0.0055,0.0159,0.0255,0.0308,0.0428,0.0497,0.0552,0.0618,0.0585,0.0549,0.056,0.0525,0.0464,0.0428,0.0409,0.0404,0.0428,0.0478,0.0398,0.0143,-0.0052,-0.0195,-0.0151,0.0201,0.067,0.0948,0.0904,0.0829,0.0574,0.0165,0.0266,0.0228,-0.0008,0.0159,0.0379,0.0508,0.0456,0.0338,0.0137,0.0088,0.0102,0.0074,0.0038,0.0036,0.0055,0.0019,0.0066,0.0288,0.0349,0.0277,0,0.0148,0.0376,0.047,0.0483,0.0538,0.056,0.0514,0.0453,0.0415,0.0398,0.0398,0.0525,0.0527,0.0305,0.0154,0.0157,0.0198,0.0379,0.0684,0.0923,0.1008,0.0887,0.0786,0.061,0.0313,0.042,0.0445,-0.0121,-0.0519,-0.0365,0.0022,0.0283,0.0294,0.0044,0.0058,0.0124,0.0151,0.0151,0.014,0.0091,-0.0041,-0.0132,0,0.0091,0.0286,0.0387,0.0376,0.0382,0.039,0.0453,0.0533,0.0536,0.0475,0.0437,0.0445,0.0456,0.0552,0.0483,0.039,0.0376,0.0368,0.0426,0.0626,0.0802,0.0799,0.0643,0.042,0.0363,0.0423,0.0382,0.0376,0.0574,0.0681,0.025,-0.0566,-0.0994,-0.0709,-0.0217,0.0014,0.0126,0.0077,0.0135,0.0203,0.0239,0.0236,0.0165,0.0107,0,0.0027,0.0118,0.0233,0.025,0.0242,0.0261,0.0319,0.0459,0.0525,0.0497,0.0483,0.0555,0.0758,0.0961,0.0997,0.1038,0.0992,0.0835,0.07,0.07,0.081,0.0917,0.0937,0.0645,0.0181,0.0071,0.022,0.0261,0.028,0.0357,0.0629,0.0953,0.1085,0.0975,0.0538,0.0327,0.056,0.0909]},{"header":{"parameterUnit":"m.s-1","parameterCategory":2,"la1":30.5641,"la2":29.4642,"lo1":-89.4342,"lo2":-87.9343,"dx":0.0333,"dy":0.0333,"nx":46,"ny":34,"refTime":"2022-11-04T00:00:00:Z","depth":"10","parameterNumber":3,"parameterNumberName":"V-component_of_CURRENTS"},"data":[0,0,0,0,0,0,0,0,0,0,0,0,0,0,0,0,0,0,0,0,0,0,0,0,0,0,0,0,0,0,0,0,0,0,0,0,0,0,0,0,0,0.031,0.0294,0.0148,0.0146,0,0,0,0,0,0,0,0,0,0,0,0,0,0,0,0,0,0,0,0,0,0,0,0,0,0,0,0,0,0,0,0,0,0,0,0,0,0,0,0,0,0,0.0341,0.0173,0.008,0.0058,0,0,0,0,0,0,0,0,0,0,0,0,0,0,0,0,0,0,0,0,0,0,0,0,0,0,0,0,0,0,0,0,0,0,0,0,0,0,0,0,0,0,0.0538,0.0165,0.011,0.0033,0,0,0,0,0,0,0,0,0,0,0,0,0,0,0,0,0,0,0,0,0,0,0,0,0,0,0,0,0,0,0,0,0,0,0,0,0,0,0,0,0,0,0.0634,0.0126,0.0118,0.0082,0,0,0,0,0,0,0,0,0,0,0,0,0,0,0,0,0,0,0,0,0,0,0,0,0,0,0,0,0,0,0,0,0,0,0,0,0,0,0,0,0,0.0503,0.0613,0.0143,0.0143,0.0184,0,0,0,0,0,0,0,0,0,0,0,0,0,0,0,0,0,0,0,0,0,0,0,0,0,0,0,0,0,0,0,0,0,0,0,0,0,0,0,0,0,0.0574,0.0643,0.0327,0.0231,0.0253,0,0,0,0,0,0,0,0,0,0,0,0,0.0286,0.0113,0.0016,-0.0025,-0.003,-0.0033,-0.0022,-0.011,-0.042,0,0,0,0,0,0,0,0,0,0,0,0,-0.006,-0.0236,-0.0374,0,0,0,0,0,0.0618,0.058,0.0549,0.0266,0.0302,0,0,0,0,0,0,0,0,0,0.0291,0.0198,0.0201,0.0272,0.0132,0.0027,0.0003,0.0022,0.0003,-0.0066,-0.0192,-0.0376,-0.0258,-0.0297,-0.011,0.019,0.0211,0.0437,0,0,0,0,-0.0025,-0.0379,-0.0228,-0.033,-0.045,0,0,0,0,0,0.0645,0.0645,0.0368,0.0066,0.0115,0,0,0,0,0.0217,0.0286,0.0228,0.0151,0.0176,0.0335,0.0228,0.0137,0.0135,0.006,0.0,0.0022,0.0066,0.0019,-0.0063,-0.0184,-0.0203,-0.0113,-0.0066,0.0044,0.0044,0.0121,0.0313,0.0118,-0.0148,-0.0266,-0.0302,-0.0129,-0.0168,-0.0231,-0.019,-0.0096,0.0588,0.0582,0.053,0.0,0.0,0.0343,0.0667,0.0082,-0.0016,-0.0005,0,0,0,0.0209,0.0275,0.0319,0.0291,0.028,0.0299,0.0277,0.0129,0.0036,0.0003,-0.0096,-0.0085,-0.0041,0.0093,0.0,0.0038,0.0,0.0085,0.0016,0.0082,0.0099,-0.0052,0.0016,0.0096,0.006,-0.0148,-0.0264,-0.0209,-0.0118,0.0063,0.0066,0.0206,0.017,0.0294,0.0258,0.0431,0,0,0,0.0527,0.0461,0.0036,0.0047,0,0,0.0275,0.0308,0.0365,0.0374,0.0409,0.0461,0.0489,0.0184,0,0,0,-0.006,-0.0014,-0.0049,0.0063,0,0.0121,0.0181,0.0115,0,0,0,0,0,0,0,-0.0242,-0.0129,-0.0058,0.0,0.0027,0.0211,0.0368,0,0,0.0055,0.0385,0.0354,0.0407,0.0618,0.0242,0.0912,0,0,0,0.0396,0.0319,0.0396,0.0407,0.0437,0.05,0.0503,0.0327,0.0019,-0.0137,-0.0066,0.0181,0.0261,0.0242,0,0,0.0143,0.0052,0.0055,-0.0118,-0.0055,-0.0005,0.0005,0.0016,0.0132,0.0192,0.0203,-0.0102,0,0,0,0.0126,0.0275,0.0393,0.0291,0.0376,0.0313,0.0291,0.0332,0.0368,0.0563,0,0.0706,0.0239,0.0027,0.0003,0.0198,0.0308,0.0338,0.0401,0.0448,0.0439,0.0247,0.0049,-0.0225,0.0016,0.0143,0.0157,0.0151,0.0066,-0.0239,-0.0003,0.0181,0.0011,-0.0146,-0.0233,-0.017,-0.0217,-0.0239,-0.0165,-0.0063,0.0055,0.0151,0.0198,0.0233,0.0302,0.0492,0.0368,0.017,0.0222,0.0091,0.0066,0.0115,0.0143,0.0305,0.0283,0.0308,-0.0104,0.0209,0.0146,0.0041,0.0014,0,0.0231,0.0291,0.0321,0.028,0.0173,0,0,-0.0305,-0.0003,0.0077,-0.0063,-0.0181,-0.0168,-0.0132,-0.0025,0.0088,0.0027,-0.0129,-0.0288,-0.0368,-0.0442,-0.0437,-0.0338,-0.0214,-0.0077,-0.0025,0.0036,0.0074,0.0003,-0.0047,-0.0047,-0.0121,-0.0036,-0.0052,-0.0082,-0.0014,0.0157,0.0179,0.0121,0.0033,-0.0093,-0.0058,-0.0003,0.0005,-0.0003,-0.0181,0.0162,0.0165,0.0126,0.0071,0,0,0,-0.0244,-0.006,-0.0069,-0.0085,-0.0005,0.0069,0.017,0.0151,0.011,-0.0041,-0.022,-0.0385,-0.0511,-0.0574,-0.0563,-0.0481,-0.0363,-0.0236,-0.0286,-0.0239,-0.0146,-0.0102,-0.0225,-0.0343,-0.0308,-0.0236,-0.019,-0.0082,-0.0008,0.003,0.0041,0.0036,0.0,-0.0055,-0.0093,-0.0058,-0.0038,-0.0019,-0.0091,0.0058,-0.0173,0,0,0,0,0,-0.0077,0.0129,0.0162,0.0176,0.0222,0.0299,0.0382,0.0409,0.0445,-0.0036,-0.0404,-0.0511,-0.0632,-0.067,-0.0659,-0.0596,-0.0599,-0.047,-0.0497,-0.0321,-0.0162,-0.0019,0.0038,-0.0244,-0.0365,-0.0346,-0.0264,-0.0137,-0.0091,-0.0063,-0.0014,0.0016,0.0014,-0.0016,-0.0049,-0.0038,-0.0014,0.0003,0,0,-0.0168,0.0456,0.0453,0.0368,0,0,0.0113,0.0291,0.0275,0.0269,0.0283,0.0352,0.0379,0.0423,0.0508,0,-0.0244,-0.058,-0.0656,-0.0706,-0.0706,-0.0662,-0.0766,-0.0753,-0.0827,-0.0665,-0.0275,-0.0198,-0.0203,-0.036,-0.0379,-0.0365,-0.0286,-0.0192,-0.0121,-0.0066,-0.0025,0.0008,0.0027,0.003,0.0016,0.0008,0.0011,0.0011,0,0,0.0022,0.0417,0.0426,0.0184,0.0,0.0,0.0396,0.036,0.0277,0.0288,0.0299,0.0288,0.0299,0.031,0.0225,0.0016,0,-0.0511,-0.056,-0.0648,-0.0681,-0.0665,-0.0788,-0.0931,-0.1038,-0.0893,-0.0569,-0.0409,-0.0346,-0.0327,-0.0305,-0.0288,-0.0225,-0.0151,-0.0104,-0.0071,-0.0033,0.0008,0.0052,0.0071,0.0066,0.0044,0.0019,0.0005,0,0,0,0.019,0.0201,0,0,0,0.0269,0.0159,0.0179,0.0239,0.028,0.0299,0.0288,0.0247,0.0047,0.0055,0,-0.0376,-0.0415,-0.0533,-0.0596,-0.0618,-0.0703,-0.0876,-0.0994,-0.0909,-0.0772,-0.0505,-0.036,-0.0266,-0.025,-0.025,-0.0236,-0.0179,-0.0126,-0.0085,-0.006,-0.0022,0.003,0.0077,0.0102,0.0091,0.006,0.0041,0,0,0,0,0,0,0,-0.011,-0.0058,-0.0025,0.0049,0.0099,0.0135,0.0187,0.0209,0.0184,0.0016,0.0069,0,-0.0244,-0.0288,-0.0415,-0.0497,-0.0547,-0.061,-0.0728,-0.0851,-0.0882,-0.0843,-0.0621,-0.0376,-0.0266,-0.0294,-0.0365,-0.0448,-0.0456,-0.0338,-0.0201,-0.0115,-0.0055,0.0025,0.0121,0.0192,0.0187,0.0135,0.0093,0,0,0,0,0,0,-0.0088,-0.0096,-0.0055,-0.0016,0.0008,0.0019,0.0008,0.0022,0.008,0.0132,-0.0003,0.0022,0,-0.0124,-0.0179,-0.031,-0.0404,-0.0467,-0.0525,-0.0621,-0.0709,-0.0786,-0.0775,-0.0437,-0.0206,-0.0214,-0.0321,-0.0478,-0.064,-0.078,-0.0709,-0.0437,-0.0201,-0.0088,0.0011,0.0137,0.025,0.0255,0.0198,0.0146,0,0,0,0,0,0,-0.0099,-0.0082,-0.0036,-0.0011,0.0,0.0016,0.0005,-0.0016,0.0049,0.0088,0,0,0,-0.0011,-0.0082,-0.0211,-0.0321,-0.0387,-0.0459,-0.0552,-0.0607,-0.0689,-0.0519,-0.011,-0.0047,-0.019,-0.0352,-0.0558,-0.075,-0.092,-0.1063,-0.0799,-0.0398,-0.0104,0.0033,0.0143,0.025,0.0266,0.0222,0.0181,0,0,0,0,0,0,-0.0129,-0.0091,-0.0047,-0.0033,-0.0033,-0.0022,-0.0019,-0.0025,-0.0036,-0.0044,-0.0066,0,0,0.0099,-0.0011,-0.0137,-0.0236,-0.0319,-0.0409,-0.0494,-0.0555,-0.0613,-0.0176,0.0069,-0.0041,-0.0236,-0.0371,-0.0555,-0.0733,-0.0909,-0.1143,-0.1156,-0.0753,-0.0203,0.0107,0.0201,0.0266,0.0266,0.0239,0.0203,0,0,0,0,0,-0.014,-0.0151,-0.011,-0.0082,-0.0082,-0.0102,-0.0113,-0.0118,0,-0.014,-0.0148,-0.0085,0,0,0.0228,0.0088,-0.0047,-0.0154,-0.0272,-0.0382,-0.0467,-0.0547,-0.0505,0.0014,0.0019,-0.0159,-0.031,-0.0338,-0.0439,-0.0552,-0.0777,-0.0986,-0.1247,-0.1118,-0.0472,0.0099,0.0266,0.0302,0.0291,0.028,0.0255,0,-0.0143,0.0,-0.0231,0,-0.0069,-0.0181,-0.0137,-0.0124,-0.0146,-0.0184,-0.0211,-0.0239,-0.0297,-0.0231,-0.0209,-0.0121,0,0.0266,0.0299,0.0195,0.0088,0.0,-0.0154,-0.0321,-0.0459,-0.0574,-0.0437,-0.006,-0.0162,-0.0319,-0.033,-0.0261,-0.0225,-0.0277,-0.0527,-0.0802,-0.1088,-0.1236,-0.0758,-0.0016,0.028,0.0324,0.0341,0.036,0.0346,0,-0.0217,0,-0.0231,-0.028,0,-0.0201,-0.0159,-0.0168,-0.0217,-0.0266,-0.0297,-0.031,-0.031,-0.0297,-0.0233,-0.0069,0,0.0357,0.0349,0.0291,0.0242,0.0201,0.0033,-0.0192,-0.0423,-0.0604,-0.0461,-0.0294,-0.0396,-0.0483,-0.0352,-0.0192,-0.0019,-0.0027,-0.031,-0.0651,-0.0953,-0.1156,-0.0786,-0.0071,0.0233,0.0299,0.0374,0.042,0.0385,0,-0.0286,-0.0261,-0.025,-0.0283,-0.0247,-0.0195,-0.0168,-0.022,-0.0291,-0.0335,-0.0354,-0.0357,-0.036,-0.0338,-0.0115,0,0.0376,0.0437,0.0423,0.0382,0.0352,0.0335,0.0184,-0.0038,-0.0305,-0.0536,-0.0489,-0.0571,-0.0648,-0.0632,-0.0448,-0.019,0.014,0.0132,-0.0308,-0.0602,-0.084,-0.0851,-0.0459,-0.0014,0.0146,0.0233,0.036,0.0357,0.0217,-0.0225,-0.0264,-0.0242,-0.0255,-0.0277,-0.022,-0.0181,-0.0201,-0.0286,-0.0352,-0.0382,-0.0398,-0.0423,-0.0467,-0.0179,0,0.0349,0.0385,0.0412,0.0434,0.0423,0.0404,0.0368,0.0253,0.0088,-0.0102,-0.0294,-0.0511,-0.0766,-0.0832,-0.075,-0.0604,-0.0255,0.0269,0.0214,-0.0374,-0.0632,-0.0626,-0.0302,-0.0066,0.003,0.0058,0.019,0.0247,0.0025,-0.0168,-0.0253,-0.0266,-0.0236,-0.0253,-0.0255,-0.0201,-0.0209,-0.028,-0.0343,-0.0385,-0.0398,-0.0415,-0.0478,-0.0623,0,0.031,0.0354,0.0387,0.042,0.045,0.045,0.0426,0.0368,0.0261,0.0143,0.0052,-0.0168,-0.0555,-0.0783,-0.0887,-0.0816,-0.07,-0.0338,0.0288,0.0269,-0.0253,-0.0695,-0.0437,0.0124,0.0132,0.0019,0.0011,0.0187,-0.0008,-0.0558,-0.0659,-0.0299,-0.0288,-0.0269,-0.0272,-0.0277,-0.0266,-0.0308,-0.0343,-0.0349,-0.0371,-0.0379,-0.039,-0.0481,-0.0604,-0.011,0.0209,0.0302,0.0357,0.0426,0.0459,0.0461,0.0428,0.0352,0.0225,0.011,-0.0008,-0.0308,-0.0634,-0.0777,-0.0948,-0.0832,-0.0634,-0.0343,0.0214,0.025,-0.0184,-0.0703,-0.0396,0.0269,0.0244,0.0049,0.0063,0.0121,-0.0508,-0.1107,-0.1123,-0.0324,-0.0291,-0.0291,-0.031,-0.0335,-0.0338,-0.0321,-0.0266,-0.0275,-0.0316,-0.0332,-0.0181,-0.0453,-0.0426,-0.0113,0.0088,0.0209,0.0313,0.0393,0.0431,0.0431,0.039,0.0313,0.0126,-0.0126,-0.0283,-0.0508,-0.0777,-0.0849,-0.0986,-0.0409,-0.0047,-0.0049,0.0198,0.0069,-0.0387,-0.0753,-0.0618,0.0088,0.0319,0.0239,0.0244,-0.028,-0.0961,-0.1365,-0.1376,-0.0324,-0.0294,-0.0294,-0.0327,-0.0343,-0.0321,-0.0225,-0.014,-0.0107,-0.0365,-0.0412,0,-0.0305,-0.0233,-0.0066,0.0077,0.017,0.0266,0.033,0.0349,0.0343,0.0308,0.014,-0.0143,-0.0352,-0.0459,-0.0607,-0.0871,-0.0862,-0.0525,0.0074,0.0676,0.0398,0.0203,-0.0239,-0.0689,-0.0819,-0.0753,-0.0261,0.0286,0.0461,0.0269,-0.0706,-0.103,-0.1357,-0.1582,-0.0313,-0.0299,-0.0291,-0.0308,-0.0313,-0.028,-0.0217,-0.0049,0,-0.0407,-0.0461,-0.0168,-0.0124,-0.008,0.003,0.0096,0.0148,0.0209,0.0231,0.0225,0.0195,0.0033,-0.0088,-0.0192,-0.0275,-0.0423,-0.0541,-0.0788,-0.0711,-0.0074,0.0148,0.0758,0.047,0.0063,-0.0385,-0.0819,-0.0742,-0.045,-0.0385,-0.0288,0.006,0.0201,-0.0516,-0.0937,-0.136,-0.1684,-0.0214,-0.0266,-0.0277,-0.0288,-0.0291,-0.0286,-0.0365,0,-0.0162,-0.0291,-0.0313,-0.0113,-0.0033,0.0058,0.0124,0.0118,0.0129,0.0121,0.0066,0.0005,0.0049,0.0096,0.0113,0.008,-0.0124,-0.0324,-0.0442,-0.056,-0.0385,-0.0036,0.0176,0.0401,0.0272,-0.0044,-0.0357,-0.0764,-0.0681,-0.0288,-0.0365,-0.0662,-0.036,-0.0077,-0.0445,-0.0873,-0.1225,-0.1192]}],[{"header":{"parameterUnit":"m.s-1","parameterCategory":2,"la1":30.5641,"la2":29.4642,"lo1":-89.4342,"lo2":-87.9343,"dx":0.0333,"dy":0.0333,"nx":46,"ny":34,"refTime":"2022-11-04T00:00:00:Z","depth":"12","parameterNumber":2,"parameterNumberName":"U-component_of_CURRENTS"},"data":[0,0,0,0,0,0,0,0,0,0,0,0,0,0,0,0,0,0,0,0,0,0,0,0,0,0,0,0,0,0,0,0,0,0,0,0,0,0,0,0,0,0,0,0,0,0,0,0,0,0,0,0,0,0,0,0,0,0,0,0,0,0,0,0,0,0,0,0,0,0,0,0,0,0,0,0,0,0,0,0,0,0,0,0,0,0,0,0,0,0,0,0,0,0,0,0,0,0,0,0,0,0,0,0,0,0,0,0,0,0,0,0,0,0,0,0,0,0,0,0,0,0,0,0,0,0,0,0,0,0,0,0,0,0,0,0,0,0,0,0,0,0,0,0,0,0,0,0,0,0,0,0,0,0,0,0,0,0,0,0,0,0,0,0,0,0,0,0,0,0,0,0,0,0,0,0,0,0,0,0,0,0,0,0,0,0,0,0,0,0,0,0,0,0,0,0,0,0,0,0,0,0,0,0,0,0,0,0,0,0,0,0,0,0,0,0,0,0,0,0,0,0,0,0,0,0,0,0,0,0,0,0,0,0,0,0,0,0,0,0,0,0,0,0,0,0,0,0,0,0,0,0,0,0,0,0,0,0,0,0,0,0,0,0,0,0,0,0,0,0,0,0,0,0,0,0,0,0,0,0,0,0,0,0,0,0,0,0,0,0,0,0,0,0,0,0,0,0,0,0,0,0,0,0,0,0,0,0,0,0,0,0,0,0,0,0,0,0,0,0,0,0,0,0,0,0,0,0,0,0,0,0,0,0,0,0,0,0,0,0,0,0,0,0,0,0,0,0,0,0,0,0,0,0,0,0,0,0,0,0,0,0,0,0,0,0,0,0,0,0,0,0,0,0,0,0,0,0,0,0,0,0,0,0,0,0,0,0,0,0,0,0,0,0,0,0,0,0,0,0,0,0,0,0,0,0,0,0,0,0,0,0,0,0,0,0,0,0,0,0,0,0,0,0,0,0,0,0,0,0,0,0,0,0,0,0,0,0,0,0,0,0,0,0,0,0,0,0,0,0,0,0,0,0,0,0,0,0,0,0,0,0,0,0,0,0,0,0,0,0,0,0,0,0,0,0,0,0,0,0,0,0,0,0,0,0,0,0,0,0,0,0,0,0,0,0,0,0,0,0,0,0,0,0,0,0,0,0,0,0,0,0,0,0,0,0,0,0,0,0,0,0,0,0,0,0,0,0.0181,0.0159,0.0146,0.0148,0,0,0,0,0,0,0,0,0,-0.017,0.0203,0,0,0,0,0,0,0,0,0,0,0,0,0,0,0,0,0,0,0,0,0,0,0,0,0,0,0,0,0,0,0.05,0.0363,0.0327,0.0275,0.0115,0.0115,0.0214,0,-0.0044,-0.0022,0.0113,0.0082,0.0033,-0.0016,-0.0272,-0.0025,0.0261,0.0286,0.0217,0.0096,0,0.0014,0,-0.0049,-0.0093,-0.0099,0,0,0,0,0,0,0,0,0,0,0,0,0,0,0,0,0,0,0,0.0766,0.0659,0.0552,0.0494,0.0472,0.0324,0.0102,0.0135,0.0201,-0.0121,-0.0426,-0.0255,-0.0014,0.0088,-0.0025,-0.0214,-0.0148,-0.0008,0.0014,-0.0049,-0.0129,-0.0192,-0.0162,-0.0096,-0.011,-0.0143,-0.0124,0,0,0,0,0,0,0,0,0,0,0,0,0,0,0,0,0,0,0,0.0868,0.0786,0.0678,0.058,0.056,0.0437,0.0063,-0.0044,0.0148,-0.0143,-0.0577,-0.0651,-0.056,-0.033,-0.0146,-0.0104,-0.014,-0.0143,-0.0115,-0.0129,-0.0176,-0.0225,-0.0231,-0.0187,-0.0176,-0.0176,-0.0159,0,0,0,0,0,0,0,0,0,0,0,0,0,0,0,0,0,0,0,0,0.0742,0.0692,0.0585,0.0547,0.0555,0.0222,-0.0052,0.006,0.008,-0.0225,-0.0486,-0.047,-0.0379,-0.0286,-0.0206,-0.0181,-0.0181,-0.0176,-0.0179,-0.0195,-0.0225,-0.0233,-0.0203,-0.0176,-0.0168,-0.017,0,0,0,0,0,0,0,0,0,0,0,0,0,0,0,0,0,0,0,0,0.0569,0.0596,0.056,0.0505,0.0549,0.033,-0.006,-0.0239,-0.0335,-0.042,-0.0467,-0.039,-0.0343,-0.0327,-0.0283,-0.0236,-0.0203,-0.0198,-0.0203,-0.0211,-0.0222,-0.0217,-0.0192,-0.0173,-0.0165,-0.017,0,0,0,0,0,0,0,0,0,0,0,0,0,0,0,0,0,0,0,0,0.0313,0.0439,0.0492,0.0464,0.0456,0.0385,0.0269,0.0247,0.0214,-0.0008,-0.0222,-0.0258,-0.0277,-0.0261,-0.0225,-0.0203,-0.0201,-0.019,-0.0181,-0.0192,-0.0198,-0.0198,-0.0184,-0.0168,-0.0154,-0.0151,0,0,0,0,0,0,0,0,0,0,0,0,0,0,0,0,0,0,0,0,0,0.031,0.0407,0.0417,0.0398,0.0404,0.047,0.0569,0.0651,0.0637,0.0571,0.0522,0.0494,0.047,0.0407,0.0294,0.0165,0.0047,-0.006,-0.014,-0.0179,-0.0181,-0.0165,-0.0137,-0.0104,-0.008,0,0,0,0,0,0,0,0,0,0,0,0,0,0,0,0,0,0,0,0,0,0.0228,0.0338,0.0376,0.0376,0.039,0.0478,0.0604,0.0676,0.0684,0.0731,0.0824,0.0882,0.0884,0.0824,0.0711,0.0544,0.0376,0.025,0.014,0.0044,-0.0022,-0.0036,-0.0014,0.0014,0.003,0,0,0,0,0,0,0,0,0,0,0,0,0,0,0,0,0,0,0,0,0,0.0198,0.0294,0.0346,0.0363,0.0374,0.0417,0.05,0.0574,0.0695,0.0873,0.1025,0.106,0.1008,0.0901,0.0775,0.0689,0.0582,0.0483,0.0434,0.0387,0.0321,0.0255,0.0228,0.0222,0.0222,0,0,0,0,0,0,0,0,0,0,0,0,0,0,0,0,0,0,0,0,0,0.0211,0.0288,0.0343,0.0354,0.0363,0.0387,0.0407,0.0538,0.0788,0.1,0.1123,0.111,0.1022,0.0953,0.0764,0.0593,0.0596,0.0544,0.0494,0.0519,0.0533,0.0527,0.0525,0.0533,0.0549,0,0,0,0,0,0,0,0,0,0,0,0,0,0,0,0,0,0,0,0,0,0.0201,0.0283,0.0354,0.0374,0.0379,0.0396,0.0439,0.0629,0.0846,0.0945,0.0956,0.0851,0.0802,0.0797,0.0725,0.0536,0.0475,0.0569,0.0544,0.053,0.0566,0.0596,0.0626,0.0662,0.0706,0,0,0,0,0,0,0,0,0,0,0,0,0,0,0,0,0,0,0,0,0,0.0173,0.0253,0.0365,0.0423,0.0434,0.0431,0.0508,0.067,0.0772,0.0733,0.0596,0.0522,0.0577,0.0667,0.0654,0.0516,0.0365,0.0481,0.0632,0.0593,0.0571,0.0588,0.0623,0.0665,0.0711,0,0,0,0,0,0,0,0,0,0,0,0,0,0,0,0,0,0,0,0,0.0302,0.0228,0.0286,0.0428,0.0563,0.0621,0.061,0.0637,0.0667,0.0654,0.053,0.0368,0.0371,0.0494,0.0582,0.0629,0.058,0.0349,0.0343,0.0604,0.0659,0.0582,0.0552,0.0566,0.0602,0.0634,0,0,0,0,0,0,0,0,0,0,0,0,0,0,0,0,0,0,0,0,0.0275,0.0209,0.0198,0.0338,0.0522,0.0651,0.0725,0.0764,0.0703,0.0582,0.0401,0.0264,0.0258,0.0327,0.0357,0.039,0.0387,0.0211,0.0283,0.0637,0.0711,0.0574,0.0459,0.0412,0.0423,0.0426,0,0,0,0,0,0,0,0,0,0,0,0,0,0,0,0,0,0,0,0,0.0291,0.0162,0.0077,0.0181,0.0357,0.0494,0.0648,0.072,0.0662,0.053,0.0343,0.0244,0.0217,0.0228,0.0162,-0.003,-0.003,0.0203,0.0486,0.0711,0.0678,0.0494,0.0352,0.0283,0.022,0.011,0,0,0,0,0,0,0,0,0,0,0,0,0,0,0,0,0,0,0,0.0382,0.0286,0.0162,0.0096,0.0151,0.0244,0.0352,0.0541,0.0632,0.0585,0.047,0.0371,0.0269,0.0192,0.019,0.014,-0.0104,-0.0137,0.011,0.0341,0.0497,0.0478,0.039,0.0327,0.0258,0.008,-0.0173,0,0,0,0,0,0,0,0,0,0,0,0,0,0,0,0,0,0,0,0.0379,0.0299,0.0225,0.0198,0.0225,0.0269,0.0343,0.0494,0.0552,0.0492,0.0448,0.0423,0.033,0.0275,0.0258,0.0299,0.0036,-0.0096,0.0115,0.0239,0.0368,0.0401,0.0415,0.0415,0.0387,0.0206,-0.0137,0,0,0,0,0,0,0,0,0,0,0,0,0,0,0,0,0,0,0.0464,0.0393,0.0335,0.0294,0.0275,0.0255,0.0242,0.0316,0.0338,0.022,0.0154,0.0148,0.0187,0.0349,0.0525,0.0522,0.0544,0.0217,-0.0058,0.0233,0.0327,0.0291,0.036,0.0486,0.0516,0.0475,0.0291,-0.0082,0,0,0,0,0,0,0,0,0,0,0,0,0,0,0,0,0,0.0522,0.0461,0.0407,0.0365,0.0332,0.0261,0.0201,0.0244,0.025,0.0016,-0.0162,-0.0264,-0.0269,0.0088,0.064,0.0931,0.0898,0.081,0.039,-0.008,0.0033,0.0041,-0.0036,0.0168,0.0363,0.0439,0.0319,0.0118,-0.0113,0,0,0,0,0,0,0,0,0,0,0,0,0,0,0,0,0.0497,0.0486,0.0445,0.0393,0.0346,0.0258,0.0187,0.0264,0.0363,0.0195,-0.0003,-0.0058,-0.0022,0.0157,0.0431,0.0744,0.095,0.0876,0.075,0.0434,0.003,0.0135,0.0214,-0.0187,-0.0478,-0.033,-0.0055,0.0132,0.0093,-0.0222,0,0,0,0,0,0,0,0,0,0,0,0,0,0,0,0,0.045,0.0456,0.0396,0.0321,0.0272,0.0222,0.0228,0.0297,0.0264,0.0275,0.0255,0.0179,0.0297,0.0434,0.0382,0.0371,0.036,0.0343,0.0385,0.0214,0.0113,0.036,0.0481,0.0088,-0.0651,-0.1019,-0.0722,-0.0316,-0.0181,-0.011,0,0,0,0,0,0,0,0,0,0,0,0,0,0,0,0.0363,0.0423,0.0376,0.0302,0.0327,0.0492,0.0747,0.0799,0.0799,0.0755,0.0645,0.0574,0.0544,0.053,0.0522,0.0525,0.0294,-0.0025,-0.0027,0.0137,0.0102,0.0058,0.0159,0.0456,0.0799,0.0942,0.0849,0.0437,0.0217,0.0401,0.0731]},{"header":{"parameterUnit":"m.s-1","parameterCategory":2,"la1":30.5641,"la2":29.4642,"lo1":-89.4342,"lo2":-87.9343,"dx":0.0333,"dy":0.0333,"nx":46,"ny":34,"refTime":"2022-11-04T00:00:00:Z","depth":"12","parameterNumber":3,"parameterNumberName":"V-component_of_CURRENTS"},"data":[0,0,0,0,0,0,0,0,0,0,0,0,0,0,0,0,0,0,0,0,0,0,0,0,0,0,0,0,0,0,0,0,0,0,0,0,0,0,0,0,0,0,0,0,0,0,0,0,0,0,0,0,0,0,0,0,0,0,0,0,0,0,0,0,0,0,0,0,0,0,0,0,0,0,0,0,0,0,0,0,0,0,0,0,0,0,0,0,0,0,0,0,0,0,0,0,0,0,0,0,0,0,0,0,0,0,0,0,0,0,0,0,0,0,0,0,0,0,0,0,0,0,0,0,0,0,0,0,0,0,0,0,0,0,0,0,0,0,0,0,0,0,0,0,0,0,0,0,0,0,0,0,0,0,0,0,0,0,0,0,0,0,0,0,0,0,0,0,0,0,0,0,0,0,0,0,0,0,0,0,0,0,0,0,0,0,0,0,0,0,0,0,0,0,0,0,0,0,0,0,0,0,0,0,0,0,0,0,0,0,0,0,0,0,0,0,0,0,0,0,0,0,0,0,0,0,0,0,0,0,0,0,0,0,0,0,0,0,0,0,0,0,0,0,0,0,0,0,0,0,0,0,0,0,0,0,0,0,0,0,0,0,0,0,0,0,0,0,0,0,0,0,0,0,0,0,0,0,0,0,0,0,0,0,0,0,0,0,0,0,0,0,0,0,0,0,0,0,0,0,0,0,0,0,0,0,0,0,0,0,0,0,0,0,0,0,0,0,0,0,0,0,0,0,0,0,0,0,0,0,0,0,0,0,0,0,0,0,0,0,0,0,0,0,0,0,0,0,0,0,0,0,0,0,0,0,0,0,0,0,0,0,0,0,0,0,0,0,0,0,0,0,0,0,0,0,0,0,0,0,0,0,0,0,0,0,0,0,0,0,0,0,0,0,0,0,0,0,0,0,0,0,0,0,0,0,0,0,0,0,0,0,0,0,0,0,0,0,0,0,0,0,0,0,0,0,0,0,0,0,0,0,0,0,0,0,0,0,0,0,0,0,0,0,0,0,0,0,0,0,0,0,0,0,0,0,0,0,0,0,0,0,0,0,0,0,0,0,0,0,0,0,0,0,0,0,0,0,0,0,0,0,0,0,0,0,0,0,0,0,0,0,0,0,0,0,0,0,0,0,0,0,0,0,0,0,0,0,0,0,0,0,0,0,0,0,0,0,0,0,0,0,0,0,0,0,0,0.0074,0.0148,0.0129,0.0198,0,0,0,0,0,0,0,0,0,0.0404,0.0423,0,0,0,0,0,0,0,0,0,0,0,0,0,0,0,0,0,0,0,0,0,0,0,0,0,0,0,0,0,0,-0.0143,-0.0066,-0.0025,-0.0011,0.0019,0.0096,0.0201,0,0.0233,0.0321,0.053,0.0401,0.0277,0.0368,0.0305,0.0266,0.0253,0.0187,0.0305,0.028,0,-0.0102,0,0.0146,0.0044,0.0019,0,0,0,0,0,0,0,0,0,0,0,0,0,0,0,0,0,0,0,-0.025,-0.0291,-0.0327,-0.031,-0.0244,-0.0187,-0.0063,0.0033,0.0113,0.0146,0.0154,0.0157,0.0157,0.0058,0.0146,0.0107,0.0005,0.0036,0.0173,0.0187,0.0132,0.0044,-0.0085,-0.0047,0.0003,0.0011,0.0003,0,0,0,0,0,0,0,0,0,0,0,0,0,0,0,0,0,0,0,-0.0338,-0.0426,-0.0489,-0.0481,-0.0415,-0.0277,-0.0129,-0.0157,-0.0126,-0.006,0.0148,0.0014,-0.0115,-0.011,-0.0077,-0.0085,-0.0041,0.0005,0.0038,0.0047,0.0041,0.0005,-0.0052,-0.0091,-0.0055,-0.0036,-0.0019,0,0,0,0,0,0,0,0,0,0,0,0,0,0,0,0,0,0,0,0,-0.0533,-0.0591,-0.0588,-0.0522,-0.045,-0.0231,-0.0242,-0.0179,-0.006,0.0225,0.0407,0.0047,-0.0162,-0.0214,-0.0192,-0.0115,-0.0085,-0.006,-0.0008,0.0022,0.0019,-0.0014,-0.0047,-0.0036,-0.0014,0.0003,0,0,0,0,0,0,0,0,0,0,0,0,0,0,0,0,0,0,0,0,-0.0577,-0.0634,-0.0634,-0.0582,-0.061,-0.0489,-0.0555,-0.0459,-0.0146,0.0033,0.0126,-0.0107,-0.0217,-0.0247,-0.0203,-0.0151,-0.0121,-0.0074,-0.003,0.0011,0.003,0.0033,0.0019,0.0014,0.0014,0.0014,0,0,0,0,0,0,0,0,0,0,0,0,0,0,0,0,0,0,0,0,-0.0525,-0.0591,-0.0621,-0.0593,-0.0656,-0.0717,-0.0824,-0.0786,-0.0516,-0.0343,-0.028,-0.0297,-0.0288,-0.0294,-0.0242,-0.0179,-0.0137,-0.0088,-0.003,0.0025,0.0063,0.008,0.0071,0.0047,0.0019,0.0,0,0,0,0,0,0,0,0,0,0,0,0,0,0,0,0,0,0,0,0,0,-0.0492,-0.0555,-0.056,-0.0604,-0.0717,-0.0849,-0.0857,-0.0769,-0.0533,-0.0407,-0.0343,-0.0335,-0.0327,-0.0308,-0.0236,-0.0184,-0.0143,-0.0093,-0.003,0.003,0.0071,0.0091,0.0071,0.0033,0.0005,0,0,0,0,0,0,0,0,0,0,0,0,0,0,0,0,0,0,0,0,0,-0.0387,-0.0467,-0.0503,-0.0527,-0.0602,-0.0731,-0.084,-0.0827,-0.0634,-0.0445,-0.0363,-0.0398,-0.0461,-0.0514,-0.0481,-0.0363,-0.025,-0.0173,-0.0104,-0.0022,0.0069,0.0135,0.0132,0.0085,0.0044,0,0,0,0,0,0,0,0,0,0,0,0,0,0,0,0,0,0,0,0,0,-0.0294,-0.0382,-0.0431,-0.0459,-0.05,-0.0599,-0.0733,-0.0766,-0.0516,-0.0327,-0.0352,-0.0464,-0.0604,-0.0722,-0.0797,-0.0662,-0.0439,-0.0253,-0.0151,-0.0052,0.0069,0.0173,0.0181,0.0132,0.0082,0,0,0,0,0,0,0,0,0,0,0,0,0,0,0,0,0,0,0,0,0,-0.0209,-0.0297,-0.0357,-0.0401,-0.045,-0.0525,-0.0634,-0.0569,-0.0239,-0.0201,-0.0371,-0.0544,-0.0722,-0.0873,-0.097,-0.0986,-0.0711,-0.0398,-0.0165,-0.0044,0.0058,0.0162,0.0184,0.0148,0.011,0,0,0,0,0,0,0,0,0,0,0,0,0,0,0,0,0,0,0,0,0,-0.0154,-0.0233,-0.0288,-0.0352,-0.0426,-0.0505,-0.0593,-0.0294,-0.008,-0.0228,-0.0486,-0.0615,-0.0747,-0.0873,-0.0997,-0.1123,-0.0992,-0.0648,-0.0225,0.0019,0.0102,0.0173,0.0176,0.0159,0.0126,0,0,0,0,0,0,0,0,0,0,0,0,0,0,0,0,0,0,0,0,0,-0.0113,-0.0217,-0.0294,-0.0379,-0.0453,-0.0536,-0.0552,-0.0124,-0.014,-0.0396,-0.0618,-0.0566,-0.0602,-0.0689,-0.0873,-0.1019,-0.1134,-0.0926,-0.0428,0.0033,0.0165,0.0201,0.0198,0.0198,0.0176,0,0,0,0,0,0,0,0,0,0,0,0,0,0,0,0,0,0,0,0,0.0159,-0.0022,-0.0137,-0.0272,-0.0407,-0.0511,-0.061,-0.0538,-0.0192,-0.0319,-0.056,-0.0591,-0.0415,-0.0352,-0.0404,-0.0623,-0.0862,-0.1055,-0.1068,-0.0689,-0.0052,0.0184,0.0222,0.0244,0.0272,0.0255,0,0,0,0,0,0,0,0,0,0,0,0,0,0,0,0,0,0,0,0,0.0228,0.0129,0.0099,-0.0058,-0.0288,-0.0516,-0.0678,-0.058,-0.042,-0.0552,-0.0676,-0.0527,-0.0305,-0.0132,-0.0148,-0.0417,-0.0728,-0.0948,-0.1082,-0.0758,-0.0115,0.014,0.0203,0.0277,0.033,0.0294,0,0,0,0,0,0,0,0,0,0,0,0,0,0,0,0,0,0,0,0,0.0305,0.0272,0.0308,0.0179,-0.0088,-0.0374,-0.0618,-0.0604,-0.0703,-0.0805,-0.0783,-0.0563,-0.0286,0.0036,0.0003,-0.0385,-0.0645,-0.0873,-0.0862,-0.0497,-0.0091,0.0052,0.0143,0.0269,0.0277,0.0148,0,0,0,0,0,0,0,0,0,0,0,0,0,0,0,0,0,0,0,0.0387,0.0357,0.0352,0.0354,0.0247,0.0041,-0.0187,-0.0407,-0.0632,-0.0909,-0.0989,-0.0887,-0.0706,-0.0343,0.0168,0.0074,-0.0417,-0.0629,-0.0695,-0.0376,-0.0151,-0.006,-0.003,0.0099,0.0162,-0.0027,-0.0198,0,0,0,0,0,0,0,0,0,0,0,0,0,0,0,0,0,0,0,0.0396,0.0398,0.0387,0.0335,0.022,0.006,-0.0063,-0.0299,-0.0698,-0.0959,-0.109,-0.0997,-0.0819,-0.0428,0.0187,0.014,-0.0305,-0.0574,-0.0467,0.0033,0.0047,-0.0063,-0.0071,0.0091,-0.0088,-0.0593,-0.0676,0,0,0,0,0,0,0,0,0,0,0,0,0,0,0,0,0,0,0.0387,0.0409,0.042,0.039,0.0305,0.0165,0.0022,-0.0124,-0.0453,-0.0794,-0.097,-0.1156,-0.0909,-0.0681,-0.0412,0.0124,0.0143,-0.0253,-0.0464,-0.0332,0.019,0.0151,-0.0033,-0.003,0.0022,-0.058,-0.1143,-0.1165,0,0,0,0,0,0,0,0,0,0,0,0,0,0,0,0,0,0.0291,0.0352,0.0398,0.0396,0.0343,0.0266,0.0088,-0.0187,-0.0401,-0.0656,-0.0912,-0.0989,-0.1066,-0.0489,-0.0159,-0.0162,0.0077,-0.0058,-0.0483,-0.0489,-0.0461,0.0052,0.0222,0.0143,0.0124,-0.0376,-0.1035,-0.1469,-0.1332,0,0,0,0,0,0,0,0,0,0,0,0,0,0,0,0,0.0162,0.0239,0.0305,0.033,0.0316,0.0302,0.0151,-0.0195,-0.0475,-0.0613,-0.078,-0.0997,-0.0992,-0.0667,-0.0058,0.05,0.0214,0.003,-0.0385,-0.081,-0.0591,-0.0654,-0.0288,0.0228,0.039,0.0179,-0.0769,-0.1082,-0.1343,-0.1327,0,0,0,0,0,0,0,0,0,0,0,0,0,0,0,0,0.0143,0.0201,0.0233,0.0239,0.0214,0.0033,-0.0179,-0.0343,-0.0434,-0.0574,-0.0703,-0.0931,-0.0786,-0.0165,0.0093,0.0634,0.0275,-0.0104,-0.0527,-0.0898,-0.0555,-0.0445,-0.0453,-0.0332,0.0014,0.014,-0.0588,-0.0959,-0.1294,-0.1489,0,0,0,0,0,0,0,0,0,0,0,0,0,0,0,0.0126,0.014,0.0165,0.0179,-0.0003,-0.0082,-0.0132,-0.0118,-0.0129,-0.031,-0.0494,-0.0599,-0.0687,-0.05,-0.011,0.0168,0.0346,0.0143,-0.0162,-0.0464,-0.0725,-0.0541,-0.0283,-0.039,-0.0698,-0.0396,-0.0126,-0.0503,-0.0937,-0.1269,-0.1263]}],[{"header":{"parameterUnit":"m.s-1","parameterCategory":2,"la1":30.5641,"la2":29.4642,"lo1":-89.4342,"lo2":-87.9343,"dx":0.0333,"dy":0.0333,"nx":46,"ny":34,"refTime":"2022-11-04T00:00:00:Z","depth":"15","parameterNumber":2,"parameterNumberName":"U-component_of_CURRENTS"},"data":[0,0,0,0,0,0,0,0,0,0,0,0,0,0,0,0,0,0,0,0,0,0,0,0,0,0,0,0,0,0,0,0,0,0,0,0,0,0,0,0,0,0,0,0,0,0,0,0,0,0,0,0,0,0,0,0,0,0,0,0,0,0,0,0,0,0,0,0,0,0,0,0,0,0,0,0,0,0,0,0,0,0,0,0,0,0,0,0,0,0,0,0,0,0,0,0,0,0,0,0,0,0,0,0,0,0,0,0,0,0,0,0,0,0,0,0,0,0,0,0,0,0,0,0,0,0,0,0,0,0,0,0,0,0,0,0,0,0,0,0,0,0,0,0,0,0,0,0,0,0,0,0,0,0,0,0,0,0,0,0,0,0,0,0,0,0,0,0,0,0,0,0,0,0,0,0,0,0,0,0,0,0,0,0,0,0,0,0,0,0,0,0,0,0,0,0,0,0,0,0,0,0,0,0,0,0,0,0,0,0,0,0,0,0,0,0,0,0,0,0,0,0,0,0,0,0,0,0,0,0,0,0,0,0,0,0,0,0,0,0,0,0,0,0,0,0,0,0,0,0,0,0,0,0,0,0,0,0,0,0,0,0,0,0,0,0,0,0,0,0,0,0,0,0,0,0,0,0,0,0,0,0,0,0,0,0,0,0,0,0,0,0,0,0,0,0,0,0,0,0,0,0,0,0,0,0,0,0,0,0,0,0,0,0,0,0,0,0,0,0,0,0,0,0,0,0,0,0,0,0,0,0,0,0,0,0,0,0,0,0,0,0,0,0,0,0,0,0,0,0,0,0,0,0,0,0,0,0,0,0,0,0,0,0,0,0,0,0,0,0,0,0,0,0,0,0,0,0,0,0,0,0,0,0,0,0,0,0,0,0,0,0,0,0,0,0,0,0,0,0,0,0,0,0,0,0,0,0,0,0,0,0,0,0,0,0,0,0,0,0,0,0,0,0,0,0,0,0,0,0,0,0,0,0,0,0,0,0,0,0,0,0,0,0,0,0,0,0,0,0,0,0,0,0,0,0,0,0,0,0,0,0,0,0,0,0,0,0,0,0,0,0,0,0,0,0,0,0,0,0,0,0,0,0,0,0,0,0,0,0,0,0,0,0,0,0,0,0,0,0,0,0,0,0,0,0,0,0,0,0,0,0,0,0,0,0,0,0,0,0,0,0,0,0,0,0,0,0,0,0,0,0,0,0,0,0,0,0,0,0,0,0,0,0,0,0,0,0,0,0,0,0,0,0,0,0,0,0,0,0,0,0,0,0,0,0,0,0,0,0,0,0,0,0,0,0,0,0,0,0,0,0,0,0,0,0,0,0.0008,0.0255,0,0,0,0,0,0,0,0,0,0,0,0,0,0,0,0,0,0,0,0,0,0,0,0,0,0,0,0,0,0,0,0,0.0445,0.031,0,0,0,0,0,0,-0.0008,0.0096,-0.0008,-0.0206,-0.014,0.0,0.0019,-0.0047,-0.0129,0,0,0,0,0,0,0,0,0,0,0,0,0,0,0,0,0,0,0,0,0,0,0,0,0,0,0,0,0.0505,0.0503,0.0401,0.003,-0.006,0.0203,-0.0003,-0.0404,-0.0437,-0.0376,-0.0297,-0.0159,-0.0107,-0.014,-0.014,-0.011,-0.0124,-0.0168,-0.0222,-0.0228,-0.0187,-0.0173,-0.0176,-0.0159,0,0,0,0,0,0,0,0,0,0,0,0,0,0,0,0,0,0,0,0,0,0.0613,0.0505,0.0492,0.0503,0.0176,-0.0041,0.0275,0.0305,-0.0077,-0.0275,-0.031,-0.0354,-0.0308,-0.0217,-0.0181,-0.0179,-0.017,-0.0173,-0.019,-0.0222,-0.0233,-0.0203,-0.0176,-0.0168,-0.017,0,0,0,0,0,0,0,0,0,0,0,0,0,0,0,0,0,0,0,0,0,0.0536,0.0492,0.0448,0.0505,0.0308,-0.0066,-0.0113,-0.0066,-0.0126,-0.0258,-0.0264,-0.0269,-0.031,-0.028,-0.0233,-0.0201,-0.0192,-0.0198,-0.0209,-0.022,-0.0217,-0.0195,-0.0173,-0.0165,-0.017,0,0,0,0,0,0,0,0,0,0,0,0,0,0,0,0,0,0,0,0,0,0,0.0439,0.0409,0.039,0.0302,0.0132,0.0071,0.0027,-0.0093,-0.0222,-0.0255,-0.0277,-0.0316,-0.0324,-0.0286,-0.0228,-0.0181,-0.0176,-0.019,-0.0195,-0.0195,-0.0184,-0.017,-0.0159,-0.0157,0,0,0,0,0,0,0,0,0,0,0,0,0,0,0,0,0,0,0,0,0,0,0.0371,0.0379,0.0332,0.0286,0.0286,0.0297,0.0308,0.0324,0.0313,0.0308,0.0294,0.0253,0.0184,0.0082,-0.0019,-0.0082,-0.0129,-0.0162,-0.0179,-0.0176,-0.0165,-0.0148,-0.0124,-0.0104,0,0,0,0,0,0,0,0,0,0,0,0,0,0,0,0,0,0,0,0,0,0,0.031,0.0352,0.033,0.0297,0.0313,0.0357,0.0398,0.0439,0.05,0.0596,0.0632,0.0591,0.0514,0.039,0.0253,0.0154,0.0077,0.0003,-0.0069,-0.0107,-0.0107,-0.0085,-0.006,-0.0036,0,0,0,0,0,0,0,0,0,0,0,0,0,0,0,0,0,0,0,0,0,0,0.0277,0.0327,0.0324,0.0305,0.0305,0.0324,0.036,0.0486,0.0678,0.078,0.0722,0.0588,0.0437,0.0319,0.0288,0.0269,0.0255,0.0253,0.0228,0.0181,0.0137,0.0107,0.0096,0.0107,0,0,0,0,0,0,0,0,0,0,0,0,0,0,0,0,0,0,0,0,0,0,0.0275,0.0321,0.0319,0.0294,0.0286,0.0269,0.0352,0.0604,0.078,0.0788,0.0596,0.0426,0.0335,0.0124,0.0088,0.0187,0.0233,0.0288,0.0352,0.0382,0.0382,0.0374,0.0371,0.0385,0,0,0,0,0,0,0,0,0,0,0,0,0,0,0,0,0,0,0,0,0,0,0.0261,0.0321,0.0327,0.0299,0.028,0.0288,0.045,0.0651,0.0632,0.0401,0.0179,0.0099,0.0102,-0.0003,-0.0096,0.0025,0.0173,0.0255,0.0346,0.0423,0.0461,0.0489,0.0508,0.0541,0,0,0,0,0,0,0,0,0,0,0,0,0,0,0,0,0,0,0,0,0,0,0.017,0.0233,0.0286,0.0291,0.0275,0.0332,0.0505,0.0555,0.0321,-0.0058,-0.0247,-0.0233,-0.0165,-0.0132,-0.0206,-0.0146,0.0069,0.0258,0.0349,0.0423,0.0467,0.05,0.0527,0.0569,0,0,0,0,0,0,0,0,0,0,0,0,0,0,0,0,0,0,0,0,0,0,0.0055,0.0085,0.0233,0.0338,0.0349,0.0404,0.0478,0.0412,0.0115,-0.028,-0.0401,-0.0258,-0.0137,-0.0074,-0.011,-0.019,-0.0063,0.0214,0.039,0.0428,0.0437,0.045,0.0475,0.05,0,0,0,0,0,0,0,0,0,0,0,0,0,0,0,0,0,0,0,0,0,0,-0.008,-0.0088,0.0107,0.0272,0.0376,0.0483,0.0489,0.0393,0.0093,-0.0286,-0.0266,-0.0129,-0.0148,-0.0124,-0.0173,-0.0275,-0.0102,0.0288,0.047,0.0426,0.0352,0.031,0.0319,0.0316,0,0,0,0,0,0,0,0,0,0,0,0,0,0,0,0,0,0,0,0,0,0,-0.0118,-0.0157,0.0016,0.0159,0.0294,0.045,0.0459,0.0407,0.0179,-0.0047,-0.0019,0.0082,-0.0066,-0.0379,-0.0327,-0.0071,0.022,0.0494,0.0511,0.0371,0.025,0.019,0.0129,0.0022,0,0,0,0,0,0,0,0,0,0,0,0,0,0,0,0,0,0,0,0,0,0.0132,0.0014,-0.0025,0.0038,0.0102,0.0261,0.0417,0.0417,0.0407,0.0297,0.0077,0.0016,0.0107,-0.0113,-0.0525,-0.0437,-0.0058,0.0228,0.0398,0.0374,0.0283,0.0228,0.0154,-0.0038,-0.0272,0,0,0,0,0,0,0,0,0,0,0,0,0,0,0,0,0,0,0,0,0,0.0184,0.0129,0.0135,0.0157,0.0135,0.0242,0.0327,0.0335,0.0357,0.028,0.0088,0.0047,0.0154,-0.0038,-0.0536,-0.05,-0.0121,0.0137,0.0316,0.033,0.0319,0.0308,0.0253,0.0016,-0.0346,0,0,0,0,0,0,0,0,0,0,0,0,0,0,0,0,0,0,0,0,0,0.0244,0.0206,0.0173,0.0102,-0.0019,0.0022,-0.0008,-0.0036,0.0027,0.0124,0.019,0.0319,0.0434,0.0335,-0.0195,-0.0357,-0.0008,0.0162,0.0258,0.0324,0.0415,0.0412,0.0283,0.0005,-0.0426,0,0,0,0,0,0,0,0,0,0,0,0,0,0,0,0,0,0,0,0,0.0321,0.0283,0.0206,0.0041,-0.0165,-0.0214,-0.0266,-0.0382,-0.0417,-0.0483,-0.0115,0.0541,0.0865,0.0873,0.0678,0.0058,-0.033,-0.019,-0.0154,-0.0069,0.0168,0.0327,0.0313,0.0085,-0.0228,-0.0434,0,0,0,0,0,0,0,0,0,0,0,0,0,0,0,0,0,0,0,0.0352,0.0297,0.0198,-0.0027,-0.0233,-0.008,-0.0082,-0.0294,-0.0434,-0.042,-0.0275,0.0016,0.0497,0.0854,0.0832,0.0613,0.008,-0.0335,-0.0187,-0.0085,-0.0261,-0.0407,-0.0277,-0.0173,-0.0099,-0.0124,-0.0453,0,0,0,0,0,0,0,0,0,0,0,0,0,0,0,0,0,0,0.0352,0.0264,0.0151,-0.0038,-0.0148,-0.0096,0.0019,0.0041,-0.0113,-0.0382,-0.0319,-0.0209,-0.0283,0.0011,0.025,0.028,0.0264,-0.0047,-0.0192,0.0077,0.0181,-0.0159,-0.0783,-0.1025,-0.07,-0.0338,-0.031,-0.0379,0,0,0,0,0,0,0,0,0,0,0,0,0,0,0,0,0,0.031,0.0203,0.0137,-0.0047,0.0148,0.0332,0.0412,0.0385,0.036,0.0294,0.0022,-0.0088,-0.0063,-0.0228,-0.0302,-0.0275,-0.0135,0.0022,-0.011,-0.0214,-0.0066,0.0264,0.0621,0.0772,0.0667,0.0275,0.0025,0.0091,0.0415]},{"header":{"parameterUnit":"m.s-1","parameterCategory":2,"la1":30.5641,"la2":29.4642,"lo1":-89.4342,"lo2":-87.9343,"dx":0.0333,"dy":0.0333,"nx":46,"ny":34,"refTime":"2022-11-04T00:00:00:Z","depth":"15","parameterNumber":3,"parameterNumberName":"V-component_of_CURRENTS"},"data":[0,0,0,0,0,0,0,0,0,0,0,0,0,0,0,0,0,0,0,0,0,0,0,0,0,0,0,0,0,0,0,0,0,0,0,0,0,0,0,0,0,0,0,0,0,0,0,0,0,0,0,0,0,0,0,0,0,0,0,0,0,0,0,0,0,0,0,0,0,0,0,0,0,0,0,0,0,0,0,0,0,0,0,0,0,0,0,0,0,0,0,0,0,0,0,0,0,0,0,0,0,0,0,0,0,0,0,0,0,0,0,0,0,0,0,0,0,0,0,0,0,0,0,0,0,0,0,0,0,0,0,0,0,0,0,0,0,0,0,0,0,0,0,0,0,0,0,0,0,0,0,0,0,0,0,0,0,0,0,0,0,0,0,0,0,0,0,0,0,0,0,0,0,0,0,0,0,0,0,0,0,0,0,0,0,0,0,0,0,0,0,0,0,0,0,0,0,0,0,0,0,0,0,0,0,0,0,0,0,0,0,0,0,0,0,0,0,0,0,0,0,0,0,0,0,0,0,0,0,0,0,0,0,0,0,0,0,0,0,0,0,0,0,0,0,0,0,0,0,0,0,0,0,0,0,0,0,0,0,0,0,0,0,0,0,0,0,0,0,0,0,0,0,0,0,0,0,0,0,0,0,0,0,0,0,0,0,0,0,0,0,0,0,0,0,0,0,0,0,0,0,0,0,0,0,0,0,0,0,0,0,0,0,0,0,0,0,0,0,0,0,0,0,0,0,0,0,0,0,0,0,0,0,0,0,0,0,0,0,0,0,0,0,0,0,0,0,0,0,0,0,0,0,0,0,0,0,0,0,0,0,0,0,0,0,0,0,0,0,0,0,0,0,0,0,0,0,0,0,0,0,0,0,0,0,0,0,0,0,0,0,0,0,0,0,0,0,0,0,0,0,0,0,0,0,0,0,0,0,0,0,0,0,0,0,0,0,0,0,0,0,0,0,0,0,0,0,0,0,0,0,0,0,0,0,0,0,0,0,0,0,0,0,0,0,0,0,0,0,0,0,0,0,0,0,0,0,0,0,0,0,0,0,0,0,0,0,0,0,0,0,0,0,0,0,0,0,0,0,0,0,0,0,0,0,0,0,0,0,0,0,0,0,0,0,0,0,0,0,0,0,0,0,0,0,0,0,0,0,0,0,0,0,0,0,0,0,0,0,0,0,0,0,0,0,0,0,0,0,0,0,0,0,0,0,0,0,0,0,0,0,0,0,0,0,0,0,0,0,0,0,0,0,0,0,0,0,0,0,0,0,0,0,0,0,0,0,0,0,0,0,0,0,0,0,0,0,0,0,0,0,0,0,0,0,0,0,0.0277,0.0253,0,0,0,0,0,0,0,0,0,0,0,0,0,0,0,0,0,0,0,0,0,0,0,0,0,0,0,0,0,0,0,0,-0.0203,-0.017,0,0,0,0,0,0,0.017,0.0124,0.0261,0.0247,0.008,0.0069,0.0184,0.0195,0.0137,0,0,0,0,0,0,0,0,0,0,0,0,0,0,0,0,0,0,0,0,0,0,0,0,0,0,0,0,-0.0396,-0.0335,-0.022,-0.0082,-0.0091,0.0027,0.0187,0.0214,0.0069,0.0025,0.0022,0.0019,-0.0005,-0.0022,0.0019,0.0049,0.0055,0.0049,0.0011,-0.0047,-0.0085,-0.0052,-0.0036,-0.0019,0,0,0,0,0,0,0,0,0,0,0,0,0,0,0,0,0,0,0,0,0,-0.0508,-0.0481,-0.0428,-0.0272,0.0052,0.0093,0.006,0.0088,0.0374,0.0525,0.031,0.0082,-0.0085,-0.014,-0.0102,-0.008,-0.0055,-0.0003,0.0027,0.0025,-0.0011,-0.0044,-0.0033,-0.0011,0.0005,0,0,0,0,0,0,0,0,0,0,0,0,0,0,0,0,0,0,0,0,0,-0.0552,-0.0533,-0.0481,-0.036,-0.0077,-0.011,-0.0154,0.0041,0.0299,0.0396,0.0148,0.0022,-0.0088,-0.0143,-0.0135,-0.011,-0.0069,-0.0025,0.0016,0.0036,0.0038,0.0022,0.0016,0.0016,0.0016,0,0,0,0,0,0,0,0,0,0,0,0,0,0,0,0,0,0,0,0,0,0,-0.053,-0.0497,-0.0464,-0.0407,-0.0481,-0.0519,-0.0288,-0.0192,-0.019,-0.0195,-0.0214,-0.0239,-0.0217,-0.0181,-0.0135,-0.0077,-0.0019,0.0036,0.0074,0.0088,0.0077,0.0052,0.0022,0.0003,0,0,0,0,0,0,0,0,0,0,0,0,0,0,0,0,0,0,0,0,0,0,-0.0483,-0.0483,-0.0472,-0.0497,-0.0588,-0.0632,-0.0571,-0.0494,-0.0401,-0.0357,-0.0371,-0.0368,-0.0338,-0.0269,-0.0211,-0.0159,-0.0088,-0.0005,0.0049,0.0088,0.0096,0.0071,0.003,0.0,0,0,0,0,0,0,0,0,0,0,0,0,0,0,0,0,0,0,0,0,0,0,-0.0417,-0.0448,-0.0431,-0.0442,-0.0511,-0.0604,-0.064,-0.0549,-0.0453,-0.0431,-0.0481,-0.0514,-0.053,-0.0453,-0.0352,-0.0277,-0.0209,-0.0124,-0.0044,0.0033,0.0082,0.0082,0.0044,0.0005,0,0,0,0,0,0,0,0,0,0,0,0,0,0,0,0,0,0,0,0,0,0,-0.0352,-0.0393,-0.0382,-0.0365,-0.0401,-0.0505,-0.0588,-0.0505,-0.0415,-0.0505,-0.0585,-0.0632,-0.072,-0.0667,-0.0533,-0.0396,-0.0286,-0.0201,-0.0107,-0.0005,0.0082,0.0096,0.0063,0.0019,0,0,0,0,0,0,0,0,0,0,0,0,0,0,0,0,0,0,0,0,0,0,-0.0275,-0.0327,-0.0343,-0.0341,-0.0365,-0.0453,-0.047,-0.0335,-0.0376,-0.058,-0.0634,-0.0711,-0.0827,-0.0794,-0.0665,-0.0505,-0.0354,-0.0211,-0.0118,-0.003,0.0063,0.0091,0.0069,0.0033,0,0,0,0,0,0,0,0,0,0,0,0,0,0,0,0,0,0,0,0,0,0,-0.0214,-0.0258,-0.0291,-0.0321,-0.0374,-0.0456,-0.0327,-0.025,-0.0472,-0.0626,-0.0645,-0.0681,-0.0777,-0.0838,-0.0739,-0.0569,-0.045,-0.0222,-0.0074,-0.0005,0.0063,0.0074,0.0074,0.0044,0,0,0,0,0,0,0,0,0,0,0,0,0,0,0,0,0,0,0,0,0,0,-0.0209,-0.0247,-0.0288,-0.0341,-0.0415,-0.0464,-0.0231,-0.0365,-0.0613,-0.0629,-0.0522,-0.05,-0.0607,-0.0731,-0.0731,-0.0615,-0.0536,-0.0299,-0.0033,0.0049,0.0082,0.0091,0.011,0.0085,0,0,0,0,0,0,0,0,0,0,0,0,0,0,0,0,0,0,0,0,0,0,-0.0165,-0.0231,-0.0354,-0.0456,-0.0536,-0.0533,-0.0294,-0.0552,-0.0819,-0.0593,-0.0316,-0.0294,-0.0368,-0.0508,-0.0637,-0.0574,-0.0533,-0.0472,-0.0063,0.0077,0.0104,0.0135,0.017,0.0154,0,0,0,0,0,0,0,0,0,0,0,0,0,0,0,0,0,0,0,0,0,0,0.0049,-0.0005,-0.0233,-0.0481,-0.064,-0.0626,-0.0505,-0.0769,-0.0983,-0.0613,-0.0242,-0.0187,-0.0181,-0.0368,-0.0516,-0.0555,-0.0651,-0.0596,-0.0124,0.0044,0.0091,0.0162,0.0217,0.0184,0,0,0,0,0,0,0,0,0,0,0,0,0,0,0,0,0,0,0,0,0,0,0.0283,0.0264,0.0016,-0.0302,-0.056,-0.0654,-0.0791,-0.1014,-0.1066,-0.0643,-0.0288,-0.0066,-0.0102,-0.0283,-0.045,-0.0676,-0.0709,-0.0467,-0.0151,-0.0044,0.0036,0.0162,0.0184,0.0077,0,0,0,0,0,0,0,0,0,0,0,0,0,0,0,0,0,0,0,0,0,0.0332,0.0338,0.0283,0.0093,-0.0143,-0.0415,-0.0698,-0.1033,-0.1184,-0.1096,-0.0766,-0.0341,0.0055,-0.0041,-0.019,-0.0434,-0.0659,-0.0393,-0.0214,-0.0151,-0.0124,-0.0003,0.0066,-0.0077,-0.0198,0,0,0,0,0,0,0,0,0,0,0,0,0,0,0,0,0,0,0,0,0,0.0363,0.0316,0.0209,0.0047,-0.0093,-0.0368,-0.0819,-0.1167,-0.1324,-0.1225,-0.0868,-0.042,0.0082,-0.0011,-0.014,-0.0231,-0.0439,-0.0047,-0.0036,-0.0148,-0.0157,-0.0014,-0.0176,-0.0596,-0.0637,0,0,0,0,0,0,0,0,0,0,0,0,0,0,0,0,0,0,0,0,0,0.0363,0.0283,0.0148,0.0008,-0.0113,-0.0516,-0.092,-0.1189,-0.1233,-0.0876,-0.0591,-0.0368,0.0041,-0.0049,-0.0264,0.0041,-0.0184,0.0132,0.006,-0.0118,-0.0129,-0.0104,-0.064,-0.1121,-0.109,0,0,0,0,0,0,0,0,0,0,0,0,0,0,0,0,0,0,0,0,0.0371,0.0316,0.0253,0.0132,-0.0041,-0.0431,-0.075,-0.0983,-0.1055,-0.0923,-0.0346,-0.0162,-0.0233,-0.0044,-0.028,-0.0536,0.0022,-0.0129,0.0063,0.0135,0.0044,-0.0041,-0.0478,-0.1082,-0.1478,-0.1101,0,0,0,0,0,0,0,0,0,0,0,0,0,0,0,0,0,0,0,0.0313,0.0297,0.0302,0.033,0.0014,-0.0467,-0.0728,-0.0898,-0.0994,-0.0923,-0.056,0.003,0.0308,-0.0022,-0.0176,-0.0629,-0.0824,-0.0151,-0.0396,-0.0255,0.0192,0.0319,0.006,-0.0766,-0.1101,-0.122,-0.0791,0,0,0,0,0,0,0,0,0,0,0,0,0,0,0,0,0,0,0.0228,0.0242,0.0299,0.0343,0.0047,-0.0354,-0.0555,-0.0728,-0.089,-0.0873,-0.0593,0.0093,0.0294,0.0503,0.003,-0.0305,-0.0755,-0.0791,-0.019,-0.0398,-0.0472,-0.0335,-0.0016,0.0088,-0.0571,-0.0923,-0.0972,-0.1066,0,0,0,0,0,0,0,0,0,0,0,0,0,0,0,0,0,0.0173,0.0239,0.0294,0.0115,-0.0176,-0.0283,-0.0327,-0.0467,-0.0654,-0.0758,-0.0673,-0.0239,0.0448,0.0533,0.0368,0.0005,-0.0269,-0.0558,-0.0464,-0.0233,-0.0187,-0.0352,-0.0703,-0.0407,-0.0154,-0.0541,-0.0953,-0.1217,-0.1261]}],[{"header":{"parameterUnit":"m.s-1","parameterCategory":2,"la1":30.5641,"la2":29.4642,"lo1":-89.4342,"lo2":-87.9343,"dx":0.0333,"dy":0.0333,"nx":46,"ny":34,"refTime":"2022-11-04T00:00:00:Z","depth":"20","parameterNumber":2,"parameterNumberName":"U-component_of_CURRENTS"},"data":[0,0,0,0,0,0,0,0,0,0,0,0,0,0,0,0,0,0,0,0,0,0,0,0,0,0,0,0,0,0,0,0,0,0,0,0,0,0,0,0,0,0,0,0,0,0,0,0,0,0,0,0,0,0,0,0,0,0,0,0,0,0,0,0,0,0,0,0,0,0,0,0,0,0,0,0,0,0,0,0,0,0,0,0,0,0,0,0,0,0,0,0,0,0,0,0,0,0,0,0,0,0,0,0,0,0,0,0,0,0,0,0,0,0,0,0,0,0,0,0,0,0,0,0,0,0,0,0,0,0,0,0,0,0,0,0,0,0,0,0,0,0,0,0,0,0,0,0,0,0,0,0,0,0,0,0,0,0,0,0,0,0,0,0,0,0,0,0,0,0,0,0,0,0,0,0,0,0,0,0,0,0,0,0,0,0,0,0,0,0,0,0,0,0,0,0,0,0,0,0,0,0,0,0,0,0,0,0,0,0,0,0,0,0,0,0,0,0,0,0,0,0,0,0,0,0,0,0,0,0,0,0,0,0,0,0,0,0,0,0,0,0,0,0,0,0,0,0,0,0,0,0,0,0,0,0,0,0,0,0,0,0,0,0,0,0,0,0,0,0,0,0,0,0,0,0,0,0,0,0,0,0,0,0,0,0,0,0,0,0,0,0,0,0,0,0,0,0,0,0,0,0,0,0,0,0,0,0,0,0,0,0,0,0,0,0,0,0,0,0,0,0,0,0,0,0,0,0,0,0,0,0,0,0,0,0,0,0,0,0,0,0,0,0,0,0,0,0,0,0,0,0,0,0,0,0,0,0,0,0,0,0,0,0,0,0,0,0,0,0,0,0,0,0,0,0,0,0,0,0,0,0,0,0,0,0,0,0,0,0,0,0,0,0,0,0,0,0,0,0,0,0,0,0,0,0,0,0,0,0,0,0,0,0,0,0,0,0,0,0,0,0,0,0,0,0,0,0,0,0,0,0,0,0,0,0,0,0,0,0,0,0,0,0,0,0,0,0,0,0,0,0,0,0,0,0,0,0,0,0,0,0,0,0,0,0,0,0,0,0,0,0,0,0,0,0,0,0,0,0,0,0,0,0,0,0,0,0,0,0,0,0,0,0,0,0,0,0,0,0,0,0,0,0,0,0,0,0,0,0,0,0,0,0,0,0,0,0,0,0,0,0,0,0,0,0,0,0,0,0,0,0,0,0,0,0,0,0,0,0,0,0,0,0,0,0,0,0,0,0,0,0,0,0,0,0,0,0,0,0,0,0,0,0,0,0,0,0,0,0,0,0,0,0,0,0,0,0,0,0,0,0,0,0,0,0,0,0,0,0,0,0,0,0,0,0,0,0,0,0,0,0,0,0,0,0,0,0,0,0,0,0,0,0,0,0,0,0,0,0,0,0,0,0,0,0,0,0,0,0,0,0,0,0,0,0,0,0,0,0,0,0,0,0,0,0,0,0,0,0,0,0,0,0,0,0,0,0,0,0,0,0,0,0,0,0,0,0,0,0,0,0,0,0,0,0,0,0,0,0,0,0,0,0,0,0,0,0,0,0,0,0,0,0,0,0,0,0,0,0,0,0,0,0,0,0,0,0,0,0,0,0,0,0,0,0,0,0,0,0,0,0,0,-0.0302,-0.0214,-0.0181,0,0,0,0,0,0,0,0,0,0,0,0,0,0,0,0,0,0,0,0,0,0,0,0,0,0,0,0,0,0,0,0,0,0,0,0.0228,-0.0096,0.0044,0.0239,0.0162,-0.0082,-0.0214,-0.0253,-0.0302,-0.0275,-0.0228,-0.0192,-0.0184,-0.019,-0.0201,-0.0211,0,0,0,0,0,0,0,0,0,0,0,0,0,0,0,0,0,0,0,0,0,0,0,0,0,0,0,0,0,0.0316,0.019,0.0019,-0.0019,-0.0132,-0.0104,-0.0088,-0.0228,-0.0255,-0.0299,-0.0324,-0.0283,-0.0217,-0.0173,-0.0168,-0.0181,-0.0187,-0.019,-0.0181,-0.017,-0.0159,-0.0157,0,0,0,0,0,0,0,0,0,0,0,0,0,0,0,0,0,0,0,0,0,0,0,0,0.0272,0.017,0.0091,0.0027,-0.0091,-0.0148,-0.0066,-0.0003,-0.0016,-0.0085,-0.0173,-0.0233,-0.0225,-0.0168,-0.014,-0.0159,-0.0173,-0.017,-0.0162,-0.0148,-0.0126,-0.0107,0,0,0,0,0,0,0,0,0,0,0,0,0,0,0,0,0,0,0,0,0,0,0,0,0.0286,0.0198,0.0148,0.0146,0.0096,0.0091,0.014,0.0148,0.0071,-0.0008,-0.0074,-0.0137,-0.0162,-0.014,-0.0126,-0.0143,-0.0168,-0.0159,-0.0129,-0.0113,-0.0088,-0.0052,0,0,0,0,0,0,0,0,0,0,0,0,0,0,0,0,0,0,0,0,0,0,0,0,0.0288,0.0228,0.0187,0.0148,0.0137,0.0198,0.025,0.0137,0.0005,-0.011,-0.0168,-0.0184,-0.0217,-0.0148,-0.0055,-0.0005,0.0003,-0.0011,-0.0016,-0.0036,-0.0044,-0.0014,0,0,0,0,0,0,0,0,0,0,0,0,0,0,0,0,0,0,0,0,0,0,0,0,0.0288,0.0231,0.019,0.014,0.0179,0.0277,0.0247,0.0055,-0.0027,-0.0088,-0.0143,-0.0184,-0.0222,-0.0242,-0.0148,-0.0003,0.0102,0.0154,0.0165,0.0146,0.0124,0.0146,0,0,0,0,0,0,0,0,0,0,0,0,0,0,0,0,0,0,0,0,0,0,0,0,0.0297,0.0236,0.019,0.0168,0.0233,0.0236,-0.0005,-0.0159,0.0038,0.017,0.0102,0.0019,-0.0102,-0.0203,-0.0247,-0.0113,0.008,0.0203,0.0255,0.0239,0.0206,0.0228,0,0,0,0,0,0,0,0,0,0,0,0,0,0,0,0,0,0,0,0,0,0,0,0,0.0244,0.0214,0.017,0.0184,0.0203,-0.0014,-0.0165,-0.0036,0.0055,0.0041,0.0104,0.0154,0.0115,-0.0055,-0.0211,-0.0192,0.0014,0.0198,0.0269,0.0258,0.0225,0.0264,0,0,0,0,0,0,0,0,0,0,0,0,0,0,0,0,0,0,0,0,0,0,0,0,0,0.0071,0.0115,0.017,0.0113,-0.0121,-0.0272,-0.0258,-0.0294,-0.0201,0.0003,0.0198,0.0302,0.0195,-0.0074,-0.017,0.0003,0.0192,0.025,0.0253,0.0236,0.0247,0,0,0,0,0,0,0,0,0,0,0,0,0,0,0,0,0,0,0,0,0,0,0,0,0,-0.0093,-0.006,0.008,0.0033,-0.0179,-0.0379,-0.0582,-0.064,-0.0489,-0.0255,0.0011,0.0277,0.0299,0.0019,-0.0058,0.0102,0.0187,0.0176,0.0146,0.0137,0.0129,0,0,0,0,0,0,0,0,0,0,0,0,0,0,0,0,0,0,0,0,0,0,0,0,0,-0.0118,-0.0088,-0.0003,-0.0038,-0.0294,-0.0511,-0.0687,-0.0623,-0.0439,-0.0407,-0.0376,-0.0058,0.0033,0.0027,0.0162,0.0231,0.017,0.0088,0.0047,-0.0014,-0.0126,0,0,0,0,0,0,0,0,0,0,0,0,0,0,0,0,0,0,0,0,0,0,0,0,0,-0.0063,-0.0066,-0.0055,-0.0148,-0.0233,-0.0459,-0.0563,-0.0379,-0.0214,-0.0437,-0.0742,-0.0527,-0.0211,0.0025,0.0203,0.0184,0.0113,0.0077,-0.0008,-0.0201,-0.0371,0,0,0,0,0,0,0,0,0,0,0,0,0,0,0,0,0,0,0,0,0,0,0,0,0,0.0082,-0.0129,-0.0272,-0.0277,-0.031,-0.0582,-0.0544,-0.0343,-0.0179,-0.0483,-0.078,-0.0596,-0.0343,0.0036,0.0236,0.0214,0.0168,0.014,0.003,-0.0286,-0.0629,0,0,0,0,0,0,0,0,0,0,0,0,0,0,0,0,0,0,0,0,0,0,0,0,0.0077,-0.0162,-0.0475,-0.0733,-0.0571,-0.0483,-0.0099,0.0102,0.0055,0.0146,-0.0179,-0.0371,-0.0247,-0.0233,0.0036,0.0236,0.0272,0.0286,0.0222,-0.0077,-0.0478,-0.0777,0,0,0,0,0,0,0,0,0,0,0,0,0,0,0,0,0,0,0,0,0,0,0,0,-0.0242,-0.0492,-0.0843,-0.0813,-0.0591,-0.0475,-0.0173,0.0461,0.084,0.0824,0.033,-0.0099,-0.0203,-0.0357,-0.028,-0.0036,0.0201,0.0253,0.0,-0.0376,-0.0698,-0.0544,0,0,0,0,0,0,0,0,0,0,0,0,0,0,0,0,0,0,0,0,0,0,-0.0047,-0.0288,-0.0533,-0.0667,-0.0876,-0.0882,-0.0673,-0.0464,-0.0291,0.0206,0.0709,0.0725,0.0253,-0.0192,-0.0379,-0.0489,-0.0398,-0.0363,-0.0324,-0.0225,-0.039,-0.0538,-0.0385,-0.039,0,0,0,0,0,0,0,0,0,0,0,0,0,0,0,0,0,0,0,0,0,-0.0088,-0.0217,-0.0357,-0.0453,-0.0519,-0.0563,-0.064,-0.0533,-0.0434,-0.0387,-0.0187,0.0071,0.0085,-0.0206,-0.0363,-0.0365,-0.0387,-0.0327,-0.056,-0.089,-0.0857,-0.0442,-0.014,-0.0206,-0.0549,0,0,0,0,0,0,0,0,0,0,0,0,0,0,0,0,0,0,0,0.0077,-0.0052,-0.0074,-0.0222,-0.0357,-0.0327,-0.0201,-0.0154,-0.0176,-0.0132,-0.0316,-0.0629,-0.0695,-0.0481,-0.0247,-0.0104,-0.0115,-0.0203,-0.0115,0.0,0.0154,0.0363,0.0283,-0.0038,-0.0228,-0.0261,-0.008]},{"header":{"parameterUnit":"m.s-1","parameterCategory":2,"la1":30.5641,"la2":29.4642,"lo1":-89.4342,"lo2":-87.9343,"dx":0.0333,"dy":0.0333,"nx":46,"ny":34,"refTime":"2022-11-04T00:00:00:Z","depth":"20","parameterNumber":3,"parameterNumberName":"V-component_of_CURRENTS"},"data":[0,0,0,0,0,0,0,0,0,0,0,0,0,0,0,0,0,0,0,0,0,0,0,0,0,0,0,0,0,0,0,0,0,0,0,0,0,0,0,0,0,0,0,0,0,0,0,0,0,0,0,0,0,0,0,0,0,0,0,0,0,0,0,0,0,0,0,0,0,0,0,0,0,0,0,0,0,0,0,0,0,0,0,0,0,0,0,0,0,0,0,0,0,0,0,0,0,0,0,0,0,0,0,0,0,0,0,0,0,0,0,0,0,0,0,0,0,0,0,0,0,0,0,0,0,0,0,0,0,0,0,0,0,0,0,0,0,0,0,0,0,0,0,0,0,0,0,0,0,0,0,0,0,0,0,0,0,0,0,0,0,0,0,0,0,0,0,0,0,0,0,0,0,0,0,0,0,0,0,0,0,0,0,0,0,0,0,0,0,0,0,0,0,0,0,0,0,0,0,0,0,0,0,0,0,0,0,0,0,0,0,0,0,0,0,0,0,0,0,0,0,0,0,0,0,0,0,0,0,0,0,0,0,0,0,0,0,0,0,0,0,0,0,0,0,0,0,0,0,0,0,0,0,0,0,0,0,0,0,0,0,0,0,0,0,0,0,0,0,0,0,0,0,0,0,0,0,0,0,0,0,0,0,0,0,0,0,0,0,0,0,0,0,0,0,0,0,0,0,0,0,0,0,0,0,0,0,0,0,0,0,0,0,0,0,0,0,0,0,0,0,0,0,0,0,0,0,0,0,0,0,0,0,0,0,0,0,0,0,0,0,0,0,0,0,0,0,0,0,0,0,0,0,0,0,0,0,0,0,0,0,0,0,0,0,0,0,0,0,0,0,0,0,0,0,0,0,0,0,0,0,0,0,0,0,0,0,0,0,0,0,0,0,0,0,0,0,0,0,0,0,0,0,0,0,0,0,0,0,0,0,0,0,0,0,0,0,0,0,0,0,0,0,0,0,0,0,0,0,0,0,0,0,0,0,0,0,0,0,0,0,0,0,0,0,0,0,0,0,0,0,0,0,0,0,0,0,0,0,0,0,0,0,0,0,0,0,0,0,0,0,0,0,0,0,0,0,0,0,0,0,0,0,0,0,0,0,0,0,0,0,0,0,0,0,0,0,0,0,0,0,0,0,0,0,0,0,0,0,0,0,0,0,0,0,0,0,0,0,0,0,0,0,0,0,0,0,0,0,0,0,0,0,0,0,0,0,0,0,0,0,0,0,0,0,0,0,0,0,0,0,0,0,0,0,0,0,0,0,0,0,0,0,0,0,0,0,0,0,0,0,0,0,0,0,0,0,0,0,0,0,0,0,0,0,0,0,0,0,0,0,0,0,0,0,0,0,0,0,0,0,0,0,0,0,0,0,0,0,0,0,0,0,0,0,0,0,0,0,0,0,0,0,0,0,0,0,0,0,0,0,0,0,0,0,0,0,0,0,0,0,0,0,0,0,0,0,0,0,0,0,0,0,0,0,0,0,0,0,0,0,0,0,0,0,0,0,0,0,0,0,0,0,0,0,0,0,0,0,0,0,0,0,0,0,0,0,0,0,0,0,0,0,0,0,0,0,0,0,0,0,0,0,0,0,0,0,0,0,0,0,0,0,0,0,0,0,0,0,0,0,0,0,-0.0066,-0.0121,-0.0088,0,0,0,0,0,0,0,0,0,0,0,0,0,0,0,0,0,0,0,0,0,0,0,0,0,0,0,0,0,0,0,0,0,0,0,0.0113,0.0168,0.0121,0.0305,0.0516,0.0486,0.0244,0.0074,-0.0036,-0.0113,-0.0118,-0.0099,-0.0058,-0.0016,0.0022,0.0041,0,0,0,0,0,0,0,0,0,0,0,0,0,0,0,0,0,0,0,0,0,0,0,0,0,0,0,0,0,-0.033,-0.0115,-0.0093,-0.0151,0.0107,0.0258,0.008,-0.0049,-0.0113,-0.0146,-0.0154,-0.0148,-0.0113,-0.0063,-0.0005,0.0049,0.0085,0.0099,0.0085,0.006,0.0027,0.0008,0,0,0,0,0,0,0,0,0,0,0,0,0,0,0,0,0,0,0,0,0,0,0,0,-0.0368,-0.0283,-0.0206,-0.0088,0.0011,-0.0129,-0.0231,-0.0236,-0.028,-0.0247,-0.0233,-0.0187,-0.0162,-0.0126,-0.006,0.0016,0.0071,0.0102,0.0104,0.0077,0.0036,0.0003,0,0,0,0,0,0,0,0,0,0,0,0,0,0,0,0,0,0,0,0,0,0,0,0,-0.0354,-0.028,-0.0176,-0.0066,-0.0049,-0.0143,-0.0286,-0.0324,-0.0349,-0.0332,-0.0211,-0.0225,-0.0231,-0.0225,-0.0176,-0.0096,-0.0033,0.0022,0.0058,0.0058,0.003,-0.0003,0,0,0,0,0,0,0,0,0,0,0,0,0,0,0,0,0,0,0,0,0,0,0,0,-0.0324,-0.0239,-0.0146,-0.0113,-0.0151,-0.0231,-0.0332,-0.0382,-0.0288,-0.0231,-0.0077,-0.0104,-0.0165,-0.0264,-0.0247,-0.019,-0.0124,-0.0069,-0.0005,0.0025,0.0011,-0.0019,0,0,0,0,0,0,0,0,0,0,0,0,0,0,0,0,0,0,0,0,0,0,0,0,-0.0299,-0.0242,-0.0184,-0.019,-0.0214,-0.0275,-0.0393,-0.0269,-0.0179,-0.0038,0.0038,-0.0008,0.0036,-0.0137,-0.0228,-0.0206,-0.0154,-0.011,-0.0038,0.0003,0.0011,-0.0022,0,0,0,0,0,0,0,0,0,0,0,0,0,0,0,0,0,0,0,0,0,0,0,0,-0.0255,-0.0242,-0.0236,-0.0275,-0.0231,-0.0321,-0.0321,-0.0027,-0.0093,0.008,0.0033,0.0071,0.0135,0.0096,-0.0135,-0.017,-0.0146,-0.0118,-0.0047,-0.0022,0.0019,0.0,0,0,0,0,0,0,0,0,0,0,0,0,0,0,0,0,0,0,0,0,0,0,0,0,-0.0239,-0.0239,-0.0275,-0.0313,-0.0266,-0.0382,-0.0176,0.0022,-0.0107,0.0005,-0.0052,-0.0027,0.0036,0.0211,0.006,-0.0093,-0.0091,-0.0085,-0.0049,-0.0014,0.0041,0.0041,0,0,0,0,0,0,0,0,0,0,0,0,0,0,0,0,0,0,0,0,0,0,0,0,0,-0.0233,-0.0321,-0.0363,-0.0343,-0.0431,-0.0173,-0.0225,-0.0165,0.0019,-0.0008,0.0025,-0.0022,0.0162,0.0244,-0.0036,-0.0027,-0.0044,-0.0027,0.0014,0.0074,0.0063,0,0,0,0,0,0,0,0,0,0,0,0,0,0,0,0,0,0,0,0,0,0,0,0,0,-0.0044,-0.0269,-0.0439,-0.0514,-0.0602,-0.0486,-0.0401,-0.011,0.0093,0.0118,0.0244,0.0055,0.0137,0.0173,-0.0121,-0.0058,-0.0063,-0.0036,0.003,0.0096,0.006,0,0,0,0,0,0,0,0,0,0,0,0,0,0,0,0,0,0,0,0,0,0,0,0,0,0.0118,-0.0126,-0.0492,-0.0747,-0.0981,-0.0821,-0.0376,0.0047,0.0162,0.0214,0.0505,0.0168,-0.0146,-0.0132,-0.025,-0.0168,-0.0146,-0.0082,0.0033,0.0074,0.0011,0,0,0,0,0,0,0,0,0,0,0,0,0,0,0,0,0,0,0,0,0,0,0,0,0,0.0011,-0.0113,-0.0527,-0.1027,-0.1318,-0.0928,-0.0168,0.0049,0.0159,0.0231,0.0549,0.011,-0.0352,-0.0239,-0.0217,-0.0225,-0.0214,-0.0115,-0.0044,-0.0088,-0.0132,0,0,0,0,0,0,0,0,0,0,0,0,0,0,0,0,0,0,0,0,0,0,0,0,0,-0.0063,-0.0063,-0.0706,-0.1269,-0.1533,-0.0964,-0.0003,-0.0085,0.017,0.0187,0.0472,0.0321,-0.0203,-0.0077,-0.0102,-0.0222,-0.0233,-0.0137,-0.0242,-0.0459,-0.0439,0,0,0,0,0,0,0,0,0,0,0,0,0,0,0,0,0,0,0,0,0,0,0,0,0.0011,0.0047,-0.0277,-0.0816,-0.1291,-0.114,-0.0637,0.0049,-0.0027,0.0115,0.0052,0.0327,0.0637,0.0118,0.0077,-0.0022,-0.0217,-0.0239,-0.0255,-0.0596,-0.0854,-0.056,0,0,0,0,0,0,0,0,0,0,0,0,0,0,0,0,0,0,0,0,0,0,0,0,0.0165,-0.0159,-0.0448,-0.0755,-0.0937,-0.0371,-0.0157,0.0016,-0.0132,-0.0159,-0.0368,-0.0091,0.061,0.0288,0.0102,0.008,-0.0066,-0.0272,-0.0483,-0.0923,-0.0959,-0.0338,0,0,0,0,0,0,0,0,0,0,0,0,0,0,0,0,0,0,0,0,0,0,0.0343,0.036,-0.0058,-0.0338,-0.0486,-0.0489,-0.0475,0.0016,0.0195,0.0157,-0.0255,-0.0478,-0.084,-0.0308,0.0505,0.0074,-0.0088,0.0222,0.0255,-0.0115,-0.0623,-0.0912,-0.0788,-0.0088,0,0,0,0,0,0,0,0,0,0,0,0,0,0,0,0,0,0,0,0,0,0.0445,0.0412,0.0036,-0.0225,-0.0492,-0.0481,-0.0052,0.014,0.0503,0.0687,0.0313,-0.0258,-0.061,-0.1016,-0.0049,0.0516,-0.011,-0.0313,-0.0225,-0.0025,0.0074,-0.0459,-0.0667,-0.0571,-0.036,0,0,0,0,0,0,0,0,0,0,0,0,0,0,0,0,0,0,0,0.0346,0.0464,0.0222,-0.0063,-0.0085,-0.025,-0.0538,-0.0396,0.0124,0.0645,0.1038,0.0843,0.0352,-0.0124,-0.0338,-0.0563,0.0313,0.0409,0.0049,-0.014,-0.0577,-0.0302,-0.0069,-0.0439,-0.0681,-0.0843,-0.0953]}],[{"header":{"parameterUnit":"m.s-1","parameterCategory":2,"la1":30.5641,"la2":29.4642,"lo1":-89.4342,"lo2":-87.9343,"dx":0.0333,"dy":0.0333,"nx":46,"ny":34,"refTime":"2022-11-04T00:00:00:Z","depth":"25","parameterNumber":2,"parameterNumberName":"U-component_of_CURRENTS"},"data":[0,0,0,0,0,0,0,0,0,0,0,0,0,0,0,0,0,0,0,0,0,0,0,0,0,0,0,0,0,0,0,0,0,0,0,0,0,0,0,0,0,0,0,0,0,0,0,0,0,0,0,0,0,0,0,0,0,0,0,0,0,0,0,0,0,0,0,0,0,0,0,0,0,0,0,0,0,0,0,0,0,0,0,0,0,0,0,0,0,0,0,0,0,0,0,0,0,0,0,0,0,0,0,0,0,0,0,0,0,0,0,0,0,0,0,0,0,0,0,0,0,0,0,0,0,0,0,0,0,0,0,0,0,0,0,0,0,0,0,0,0,0,0,0,0,0,0,0,0,0,0,0,0,0,0,0,0,0,0,0,0,0,0,0,0,0,0,0,0,0,0,0,0,0,0,0,0,0,0,0,0,0,0,0,0,0,0,0,0,0,0,0,0,0,0,0,0,0,0,0,0,0,0,0,0,0,0,0,0,0,0,0,0,0,0,0,0,0,0,0,0,0,0,0,0,0,0,0,0,0,0,0,0,0,0,0,0,0,0,0,0,0,0,0,0,0,0,0,0,0,0,0,0,0,0,0,0,0,0,0,0,0,0,0,0,0,0,0,0,0,0,0,0,0,0,0,0,0,0,0,0,0,0,0,0,0,0,0,0,0,0,0,0,0,0,0,0,0,0,0,0,0,0,0,0,0,0,0,0,0,0,0,0,0,0,0,0,0,0,0,0,0,0,0,0,0,0,0,0,0,0,0,0,0,0,0,0,0,0,0,0,0,0,0,0,0,0,0,0,0,0,0,0,0,0,0,0,0,0,0,0,0,0,0,0,0,0,0,0,0,0,0,0,0,0,0,0,0,0,0,0,0,0,0,0,0,0,0,0,0,0,0,0,0,0,0,0,0,0,0,0,0,0,0,0,0,0,0,0,0,0,0,0,0,0,0,0,0,0,0,0,0,0,0,0,0,0,0,0,0,0,0,0,0,0,0,0,0,0,0,0,0,0,0,0,0,0,0,0,0,0,0,0,0,0,0,0,0,0,0,0,0,0,0,0,0,0,0,0,0,0,0,0,0,0,0,0,0,0,0,0,0,0,0,0,0,0,0,0,0,0,0,0,0,0,0,0,0,0,0,0,0,0,0,0,0,0,0,0,0,0,0,0,0,0,0,0,0,0,0,0,0,0,0,0,0,0,0,0,0,0,0,0,0,0,0,0,0,0,0,0,0,0,0,0,0,0,0,0,0,0,0,0,0,0,0,0,0,0,0,0,0,0,0,0,0,0,0,0,0,0,0,0,0,0,0,0,0,0,0,0,0,0,0,0,0,0,0,0,0,0,0,0,0,0,0,0,0,0,0,0,0,0,0,0,0,0,0,0,0,0,0,0,0,0,0,0,0,0,0,0,0,0,0,0,0,0,0,0,0,0,0,0,0,0,0,0,0,0,0,0,0,0,0,0,0,0,0,0,0,0,0,0,0,0,0,0,0,0,0,0,0,0,0,0,0,0,0,0,0,0,0,0,0,0,0,0,0,0,0,0,0,0,0,0,0,0,0,0,0,0,0,0,0,0,0,0,0,0,0,0,0,0,0,0,0,0,0,0,0,0,0,0,0,0,0,0,0,0,0,0,0,0,0,0,0,0,0,0,0,0,0,0,0,0,0,0,0,0,0,0,0,0,0,0,0,0,0,0,0,0,0,0,0,0,0,0,0,0,0,0,0,0,0,0,0,0,0,0,0,0,0,0,0,0,0,0,0,0,0,0,0,0,0,0,0,0,0,0,0,0,0,0,0,0,0,0,0,0,0,0,0,0,0,0,0,0,0,0,0,0,-0.0104,-0.0074,-0.022,-0.0244,-0.0286,-0.031,-0.0275,0,0,0,0,0,0,0,0,0,0,0,0,0,0,0,0,0,0,0,0,0,0,0,0,0,0,0,0,0,0,0,0,0,0,0,0,0,-0.0016,-0.0129,-0.0203,-0.0157,-0.0104,-0.0121,-0.0187,-0.0258,-0.0288,-0.0247,-0.0168,-0.0137,-0.0157,-0.0168,0,0,0,0,0,0,0,0,0,0,0,0,0,0,0,0,0,0,0,0,0,0,0,0,0,0,0,0,0,0,0,0,0.0011,-0.0041,-0.0022,-0.0014,-0.0033,-0.0066,-0.011,-0.0181,-0.028,-0.0313,-0.0239,-0.017,-0.0159,-0.0173,-0.0159,-0.0129,-0.0113,-0.0091,-0.0052,0,0,0,0,0,0,0,0,0,0,0,0,0,0,0,0,0,0,0,0,0,0,0,0,0,0,0,0.0066,0.0036,0.0088,0.0082,0.0069,0.0085,0.0066,0.0055,-0.0041,-0.0253,-0.0313,-0.0206,-0.0129,-0.0099,-0.0085,-0.0063,-0.0069,-0.0069,-0.003,0,0,0,0,0,0,0,0,0,0,0,0,0,0,0,0,0,0,0,0,0,0,0,0,0,0,0,0.0096,0.0102,0.0115,0.003,0.0038,0.0049,0.0047,0.003,0.0063,-0.0022,-0.0255,-0.0297,-0.0162,-0.0066,-0.0027,-0.0008,-0.0033,-0.0055,-0.0027,0,0,0,0,0,0,0,0,0,0,0,0,0,0,0,0,0,0,0,0,0,0,0,0,0,0,0,0.0124,0.0137,0.0069,-0.0016,-0.003,-0.0019,-0.0027,0.0008,0.0041,0.0071,-0.0077,-0.0324,-0.0316,-0.0146,-0.0033,-0.0025,-0.0069,-0.0104,-0.0091,0,0,0,0,0,0,0,0,0,0,0,0,0,0,0,0,0,0,0,0,0,0,0,0,0,0,0.0148,0.0132,0.006,-0.0069,-0.0154,-0.0173,-0.0198,-0.014,-0.0085,-0.0038,0.0038,0.0063,-0.0195,-0.0396,-0.0277,-0.0091,-0.0041,-0.0104,-0.0151,-0.014,0,0,0,0,0,0,0,0,0,0,0,0,0,0,0,0,0,0,0,0,0,0,0,0,0,0,0.0055,0.0074,0.0011,-0.0124,-0.0198,-0.0302,-0.0407,-0.0371,-0.019,-0.0044,0.0011,0.0129,0.0044,-0.0294,-0.0302,-0.006,-0.0022,-0.0074,-0.0143,-0.0146,0,0,0,0,0,0,0,0,0,0,0,0,0,0,0,0,0,0,0,0,0,0,0,0,0,0,0,-0.0058,-0.0052,-0.0143,-0.0214,-0.0417,-0.0591,-0.05,-0.0242,0.0025,0.0206,0.0332,0.0168,-0.0162,-0.0192,-0.003,-0.0014,-0.0044,-0.0088,-0.0143,0,0,0,0,0,0,0,0,0,0,0,0,0,0,0,0,0,0,0,0,0,0,0,0,0,0,0,-0.0071,-0.0088,-0.0176,-0.0299,-0.0574,-0.0656,-0.0481,-0.019,0.0099,0.0239,0.0146,-0.0003,-0.0069,-0.0016,-0.0003,-0.003,-0.0055,-0.0104,-0.019,0,0,0,0,0,0,0,0,0,0,0,0,0,0,0,0,0,0,0,0,0,0,0,0,0,0,0,-0.0113,-0.0176,-0.031,-0.0494,-0.0623,-0.064,-0.0527,-0.0299,-0.0228,-0.022,-0.0187,-0.0115,-0.0014,0.0016,-0.0022,-0.0047,-0.0118,-0.0266,-0.0393,0,0,0,0,0,0,0,0,0,0,0,0,0,0,0,0,0,0,0,0,0,0,0,0,0,0,-0.014,-0.0258,-0.0538,-0.064,-0.0744,-0.0706,-0.0634,-0.0522,-0.0363,-0.0176,-0.0266,-0.0291,0.0047,0.0165,0.0124,0.0049,-0.0003,-0.0173,-0.0511,-0.0764,0,0,0,0,0,0,0,0,0,0,0,0,0,0,0,0,0,0,0,0,0,0,0,0,0,0,-0.0332,-0.0632,-0.0788,-0.0645,-0.045,-0.0192,-0.0107,-0.0091,-0.0129,-0.0049,-0.0077,-0.0225,0.0014,0.0244,0.0258,0.0179,0.0022,-0.0346,-0.0747,-0.0797,0,0,0,0,0,0,0,0,0,0,0,0,0,0,0,0,0,0,0,0,0,0,0,0,0,-0.0341,-0.0516,-0.0695,-0.053,-0.0192,0.0003,0.0261,0.0514,0.0566,0.0255,0.003,-0.0099,-0.0349,-0.025,0.0049,0.025,0.0187,-0.0231,-0.0654,-0.0706,-0.0343,0,0,0,0,0,0,0,0,0,0,0,0,0,0,0,0,0,0,0,0,0,0,0,0,-0.0283,-0.0481,-0.0654,-0.075,-0.0533,-0.0121,-0.0137,0.0011,0.0514,0.0544,0.0077,-0.0071,-0.0231,-0.0574,-0.0538,-0.0357,-0.0201,-0.014,-0.0275,-0.0514,-0.0319,-0.0115,0,0,0,0,0,0,0,0,0,0,0,0,0,0,0,0,0,0,0,0,0,0,0,-0.0085,-0.0387,-0.0461,-0.0511,-0.0547,-0.0478,-0.0121,-0.0052,-0.0308,-0.025,-0.0299,-0.0404,-0.0085,-0.0198,-0.0475,-0.0538,-0.0626,-0.0648,-0.0544,-0.0135,0.0181,0.0049,-0.0505,0,0,0,0,0,0,0,0,0,0,0,0,0,0,0,0,0,0,0,0,0,-0.0014,0.0148,-0.0162,-0.0294,-0.0302,-0.0305,-0.0258,-0.0247,-0.0272,-0.0497,-0.0846,-0.0797,-0.0483,-0.006,0.0277,0.0091,-0.0049,-0.0181,-0.0272,-0.0115,-0.0206,-0.0313,-0.0354,-0.0376,-0.036]},{"header":{"parameterUnit":"m.s-1","parameterCategory":2,"la1":30.5641,"la2":29.4642,"lo1":-89.4342,"lo2":-87.9343,"dx":0.0333,"dy":0.0333,"nx":46,"ny":34,"refTime":"2022-11-04T00:00:00:Z","depth":"25","parameterNumber":3,"parameterNumberName":"V-component_of_CURRENTS"},"data":[0,0,0,0,0,0,0,0,0,0,0,0,0,0,0,0,0,0,0,0,0,0,0,0,0,0,0,0,0,0,0,0,0,0,0,0,0,0,0,0,0,0,0,0,0,0,0,0,0,0,0,0,0,0,0,0,0,0,0,0,0,0,0,0,0,0,0,0,0,0,0,0,0,0,0,0,0,0,0,0,0,0,0,0,0,0,0,0,0,0,0,0,0,0,0,0,0,0,0,0,0,0,0,0,0,0,0,0,0,0,0,0,0,0,0,0,0,0,0,0,0,0,0,0,0,0,0,0,0,0,0,0,0,0,0,0,0,0,0,0,0,0,0,0,0,0,0,0,0,0,0,0,0,0,0,0,0,0,0,0,0,0,0,0,0,0,0,0,0,0,0,0,0,0,0,0,0,0,0,0,0,0,0,0,0,0,0,0,0,0,0,0,0,0,0,0,0,0,0,0,0,0,0,0,0,0,0,0,0,0,0,0,0,0,0,0,0,0,0,0,0,0,0,0,0,0,0,0,0,0,0,0,0,0,0,0,0,0,0,0,0,0,0,0,0,0,0,0,0,0,0,0,0,0,0,0,0,0,0,0,0,0,0,0,0,0,0,0,0,0,0,0,0,0,0,0,0,0,0,0,0,0,0,0,0,0,0,0,0,0,0,0,0,0,0,0,0,0,0,0,0,0,0,0,0,0,0,0,0,0,0,0,0,0,0,0,0,0,0,0,0,0,0,0,0,0,0,0,0,0,0,0,0,0,0,0,0,0,0,0,0,0,0,0,0,0,0,0,0,0,0,0,0,0,0,0,0,0,0,0,0,0,0,0,0,0,0,0,0,0,0,0,0,0,0,0,0,0,0,0,0,0,0,0,0,0,0,0,0,0,0,0,0,0,0,0,0,0,0,0,0,0,0,0,0,0,0,0,0,0,0,0,0,0,0,0,0,0,0,0,0,0,0,0,0,0,0,0,0,0,0,0,0,0,0,0,0,0,0,0,0,0,0,0,0,0,0,0,0,0,0,0,0,0,0,0,0,0,0,0,0,0,0,0,0,0,0,0,0,0,0,0,0,0,0,0,0,0,0,0,0,0,0,0,0,0,0,0,0,0,0,0,0,0,0,0,0,0,0,0,0,0,0,0,0,0,0,0,0,0,0,0,0,0,0,0,0,0,0,0,0,0,0,0,0,0,0,0,0,0,0,0,0,0,0,0,0,0,0,0,0,0,0,0,0,0,0,0,0,0,0,0,0,0,0,0,0,0,0,0,0,0,0,0,0,0,0,0,0,0,0,0,0,0,0,0,0,0,0,0,0,0,0,0,0,0,0,0,0,0,0,0,0,0,0,0,0,0,0,0,0,0,0,0,0,0,0,0,0,0,0,0,0,0,0,0,0,0,0,0,0,0,0,0,0,0,0,0,0,0,0,0,0,0,0,0,0,0,0,0,0,0,0,0,0,0,0,0,0,0,0,0,0,0,0,0,0,0,0,0,0,0,0,0,0,0,0,0,0,0,0,0,0,0,0,0,0,0,0,0,0,0,0,0,0,0,0,0,0,0,0,0,0,0,0,0,0,0,0,0,0,0,0,0,0,0,0,0,0,0,0,0,0,0,0,0,0,0,0,0,0,0,0,0,0,0,0,0,0,0,0,0,0,0,0,0,0,0,0,0,0,0,0,0,0,0,0,0,0,0,0,0,0,0,0,0,0,0,0,0,0,0,0,0,0,0,0,0,0,0,0,0,0,0,0,0,0,0,0,0,0,0,0,0,0,0,0,0,0,0,0,0,0,0,0,0,0,0,0,0,0,0,0,0,0,0,0,0,0,0,0,0.0209,0.0099,-0.0027,-0.0088,-0.0113,-0.0135,-0.0137,0,0,0,0,0,0,0,0,0,0,0,0,0,0,0,0,0,0,0,0,0,0,0,0,0,0,0,0,0,0,0,0,0,0,0,0,0,-0.0016,0.0113,0.0003,-0.0071,-0.0099,-0.0077,-0.0077,-0.0055,-0.0096,-0.011,-0.011,-0.0049,0.0025,0.0077,0,0,0,0,0,0,0,0,0,0,0,0,0,0,0,0,0,0,0,0,0,0,0,0,0,0,0,0,0,0,0,0,0.0129,0.0209,0.0173,0.0047,-0.0016,0.0063,0.0102,0.0118,0.0091,-0.0044,-0.0124,-0.0135,-0.008,-0.0022,0.0027,0.0058,0.0058,0.003,0.0,0,0,0,0,0,0,0,0,0,0,0,0,0,0,0,0,0,0,0,0,0,0,0,0,0,0,0,0.0066,0.0102,0.0049,0.006,0.0107,0.0096,0.0137,0.0148,0.0233,0.0159,-0.0011,-0.0126,-0.014,-0.0107,-0.0066,-0.0022,0.0011,0.0005,-0.0019,0,0,0,0,0,0,0,0,0,0,0,0,0,0,0,0,0,0,0,0,0,0,0,0,0,0,0,-0.0099,-0.0063,-0.0022,0.0151,0.0093,0.0016,0.0091,0.0074,0.014,0.0291,0.0201,-0.0014,-0.011,-0.0115,-0.0093,-0.0036,0.0022,0.0041,0.0014,0,0,0,0,0,0,0,0,0,0,0,0,0,0,0,0,0,0,0,0,0,0,0,0,0,0,0,-0.0203,-0.0115,0.0,0.0093,0.0014,-0.0022,0.0044,0.0027,0.0008,0.0168,0.0313,0.0157,-0.0036,-0.011,-0.0104,-0.0027,0.0077,0.0135,0.0129,0,0,0,0,0,0,0,0,0,0,0,0,0,0,0,0,0,0,0,0,0,0,0,0,0,0,-0.0239,-0.0231,-0.0115,-0.0025,-0.0041,-0.0038,0.0022,0.0074,0.0063,0.0019,-0.0003,0.0198,0.0297,0.0063,-0.0069,-0.0102,-0.0052,0.0069,0.0165,0.019,0,0,0,0,0,0,0,0,0,0,0,0,0,0,0,0,0,0,0,0,0,0,0,0,0,0,-0.0225,-0.0217,-0.0135,-0.0157,-0.0132,-0.0085,0.0093,0.0126,0.0082,0.003,-0.006,-0.0008,0.031,0.0231,0.0049,-0.0069,-0.0052,0.0022,0.011,0.0129,0,0,0,0,0,0,0,0,0,0,0,0,0,0,0,0,0,0,0,0,0,0,0,0,0,0,0,-0.0151,-0.0176,-0.0321,-0.0283,-0.0222,0.0025,0.0025,0.0129,0.0261,0.011,0.0093,0.0398,0.0305,0.0055,-0.0082,-0.0077,-0.0014,0.0066,0.0049,0,0,0,0,0,0,0,0,0,0,0,0,0,0,0,0,0,0,0,0,0,0,0,0,0,0,0,-0.0115,-0.0275,-0.0511,-0.0563,-0.0393,-0.0168,-0.0137,0.0157,0.0604,0.0472,0.0302,0.0374,0.0085,-0.011,-0.0162,-0.0135,-0.0033,0.0052,0.0033,0,0,0,0,0,0,0,0,0,0,0,0,0,0,0,0,0,0,0,0,0,0,0,0,0,0,0,-0.0093,-0.0456,-0.0843,-0.0819,-0.042,-0.0179,-0.0115,0.0179,0.0684,0.0613,0.019,0.0077,-0.0107,-0.0214,-0.0225,-0.0165,-0.0082,-0.0022,-0.0055,0,0,0,0,0,0,0,0,0,0,0,0,0,0,0,0,0,0,0,0,0,0,0,0,0,0,-0.0027,-0.0176,-0.0764,-0.1035,-0.0838,-0.0404,-0.003,-0.0005,0.0159,0.0544,0.0731,0.0126,-0.0016,-0.0124,-0.022,-0.0236,-0.0201,-0.0195,-0.0173,-0.0179,0,0,0,0,0,0,0,0,0,0,0,0,0,0,0,0,0,0,0,0,0,0,0,0,0,0,0.0003,-0.0525,-0.0975,-0.0871,-0.0648,-0.0349,0.0173,0.0148,0.0069,0.0401,0.0802,0.0294,0.0088,-0.0069,-0.0211,-0.0258,-0.0321,-0.0272,-0.0332,-0.0165,0,0,0,0,0,0,0,0,0,0,0,0,0,0,0,0,0,0,0,0,0,0,0,0,0,0.0107,-0.0459,-0.067,-0.0821,-0.0445,-0.0099,-0.0173,-0.0085,-0.0181,-0.0181,0.033,0.064,0.0481,0.0217,0.0115,-0.011,-0.0415,-0.045,-0.0288,-0.0332,0.0041,0,0,0,0,0,0,0,0,0,0,0,0,0,0,0,0,0,0,0,0,0,0,0,0,0.019,-0.0481,-0.0577,-0.0519,-0.0486,-0.008,0.033,0.0025,-0.0417,-0.0769,-0.0478,0.0121,0.0483,0.0401,0.0173,0.0286,0.0165,-0.0255,-0.0536,-0.0376,-0.0255,0.0294,0,0,0,0,0,0,0,0,0,0,0,0,0,0,0,0,0,0,0,0,0,0,0,0.0181,-0.0428,-0.056,-0.0503,-0.0071,0.0192,0.0302,0.0574,0.0181,-0.0428,-0.0813,-0.0593,0.0148,0.0426,0.0327,0.019,0.0132,0.0165,0.0162,-0.0228,-0.0228,-0.0184,0.0104,0,0,0,0,0,0,0,0,0,0,0,0,0,0,0,0,0,0,0,0,0,0.042,-0.0063,-0.0439,-0.0428,-0.0588,-0.0417,0.0151,0.0733,0.0838,0.0648,0.0357,-0.0192,-0.0316,-0.0305,0.0472,0.0676,0.0368,0.0162,-0.0286,-0.0044,0.0217,-0.0077,-0.0214,-0.0401,-0.0461]}]]